GFSSW_500_spd_000.txt.gz
Wind_Speed
37 37 37 37 39 46 46 47 50 52 51 53 55 61 65 69 69 65 60 53 51 49 49 46 42 39 37 36 32 30 27 27 26 24 23 23 21 18 15 20 14 16 15 17 18
33 36 33 36 40 42 44 50 53 52 55 57 58 63 69 71 73 69 61 57 53 53 51 48 42 40 40 37 35 32 26 27 31 26 24 22 21 17 14 16 21 14 15 18 18
36 31 32 39 42 42 46 48 48 49 57 60 61 68 70 74 74 68 67 61 56 55 53 51 45 45 42 40 36 31 26 30 32 31 26 22 21 16 13 13 21 15 15 14 18
34 29 34 38 40 41 44 43 45 52 51 50 54 56 62 70 72 75 68 62 58 58 56 52 51 48 40 36 34 30 30 29 31 32 25 23 21 18 12 16 21 21 18 14 14
29 31 35 36 41 43 41 38 44 44 37 44 49 44 53 65 69 72 70 63 63 60 58 55 54 45 39 34 35 31 30 33 33 31 26 22 23 21 13 16 22 26 20 15 13
33 34 33 35 40 41 37 40 37 34 34 40 39 42 47 57 61 72 72 66 66 61 58 57 52 41 41 39 35 32 35 37 31 29 28 25 22 18 14 21 23 21 17 11 13
36 31 33 35 39 38 37 35 32 31 33 37 39 44 44 41 64 71 73 68 68 62 57 52 47 47 42 39 35 37 36 33 29 29 31 27 19 23 23 21 18 18 17 16 16
31 34 32 37 36 37 35 31 30 29 31 34 37 40 37 45 59 67 72 69 68 63 57 53 51 47 43 42 38 37 33 30 29 34 31 26 15 26 22 20 21 19 20 19 17
30 30 34 38 36 34 32 27 25 30 25 27 33 35 40 40 51 61 69 70 69 64 58 54 52 51 48 43 40 39 32 30 31 34 28 26 17 21 20 21 22 23 22 21 20
30 31 35 40 35 31 28 26 23 27 22 25 28 36 32 37 47 59 69 71 69 64 61 57 51 53 50 46 46 32 31 29 32 31 28 24 19 21 18 19 22 22 23 19 19
30 31 40 42 36 28 27 25 22 21 18 17 18 24 29 37 47 58 68 70 68 66 63 58 56 58 49 37 33 34 37 31 33 34 26 24 21 20 18 15 18 18 19 19 23
29 31 39 42 36 24 19 18 19 22 19 11 19 25 30 31 48 59 67 68 66 65 63 60 57 44 40 40 39 36 34 30 31 30 25 24 19 20 18 17 18 19 20 23 25
31 28 35 28 34 26 14 13 19 17 17 7 11 19 26 30 46 58 64 68 66 65 63 60 53 46 43 41 37 32 30 27 29 29 24 24 20 21 21 21 20 19 20 20 19
30 33 36 35 32 21 18 11 19 16 16 14 9 17 26 32 47 58 62 65 63 62 59 57 50 45 43 39 35 31 24 28 29 27 22 24 21 19 21 23 22 20 19 18 17
32 29 25 30 36 27 23 15 14 16 25 18 18 13 31 30 46 58 60 62 57 58 62 59 49 49 47 37 32 22 26 26 29 26 24 19 22 14 22 25 24 23 20 18 19
28 24 25 32 36 31 26 22 19 13 20 12 16 20 34 38 49 56 61 62 57 59 57 56 51 45 39 34 27 30 30 26 29 28 28 18 23 13 21 24 23 22 22 21 21
23 24 21 27 33 29 23 19 20 19 14 12 11 28 33 44 53 56 61 62 55 60 59 53 50 45 39 38 33 33 32 27 27 25 21 21 25 14 21 22 22 22 22 22 23
19 23 22 21 24 26 20 17 19 13 7 10 23 34 41 51 53 56 61 59 54 52 53 55 54 49 45 37 35 30 29 23 24 23 23 22 22 19 22 24 24 24 22 25 26
16 22 22 19 20 26 17 11 11 5 7 8 31 38 48 34 44 51 54 57 54 51 52 52 48 42 38 34 34 30 34 28 25 25 24 24 22 21 23 25 27 27 28 30 28
13 21 22 18 18 25 17 2 5 6 15 14 26 51 53 51 48 46 51 50 50 49 46 44 44 43 37 36 39 38 30 30 29 27 25 23 22 23 25 26 26 27 30 30 29
10 19 18 16 12 17 24 3 5 11 15 14 32 41 43 51 45 50 50 47 41 44 44 41 39 39 37 38 36 34 32 29 28 28 25 23 24 21 22 24 26 27 27 27 27
8 13 11 11 11 18 22 8 6 10 13 17 28 32 29 46 45 40 34 34 33 34 36 38 35 36 38 38 38 37 32 30 31 28 24 23 20 19 21 22 23 23 22 24 26
6 13 9 6 7 7 12 10 11 11 12 14 23 25 31 42 39 34 25 29 28 27 31 34 39 37 37 38 39 33 30 30 28 27 23 23 19 20 20 22 21 21 24 27 29
8 9 8 3 2 5 6 10 2 7 6 16 22 24 36 42 31 24 32 28 28 24 26 34 37 37 35 26 27 28 25 25 27 27 24 22 18 22 24 22 20 24 26 27 29
11 9 10 4 3 5 5 9 3 3 7 14 22 23 25 38 29 29 30 30 28 27 26 25 33 31 32 33 33 30 28 30 29 24 26 19 25 28 23 20 24 25 26 29 32
15 12 14 7 2 5 8 10 6 9 11 16 19 21 20 25 30 29 24 30 25 29 28 26 34 31 29 31 30 31 32 30 29 26 25 24 25 26 24 25 26 26 28 31 32
18 13 17 13 5 2 6 4 11 13 15 16 21 19 20 19 24 34 31 28 22 28 24 23 30 31 32 31 30 32 31 28 27 27 27 26 24 25 25 25 26 27 31 33 33

GFSSW_500_spd_003.txt.gz
Wind_Speed
35 33 37 38 40 40 40 38 40 40 39 41 45 45 50 53 53 52 54 57 57 53 52 51 49 46 43 39 36 35 31 25 30 30 27 22 19 19 17 16 12 11 12 8 9
37 28 28 32 37 37 40 39 40 40 40 43 48 51 53 56 57 53 55 60 60 59 54 54 51 48 46 41 38 37 30 26 31 34 28 21 19 19 18 14 11 13 10 11 9
34 27 30 35 36 37 40 40 41 43 46 46 48 52 53 56 59 58 59 61 63 64 57 57 53 51 49 44 40 36 28 30 31 33 30 25 21 18 16 12 15 19 15 11 14
31 30 30 30 34 38 38 38 41 43 44 46 47 51 56 60 62 63 64 62 63 67 61 59 58 55 52 45 37 34 31 33 31 30 30 30 22 19 12 16 18 19 21 16 16
31 31 29 33 31 33 35 36 38 42 44 45 48 52 60 64 56 63 64 67 68 69 64 60 60 57 52 41 38 35 34 36 33 29 29 30 24 19 13 16 21 22 23 19 17
32 29 29 31 31 32 34 38 41 42 43 43 44 48 51 51 52 59 62 65 71 69 66 62 60 56 50 45 42 34 38 37 35 33 32 28 26 18 19 21 25 21 23 19 16
33 31 28 28 29 32 39 40 43 40 39 38 42 45 46 50 52 54 57 63 72 71 67 63 58 57 52 46 40 40 40 38 32 36 33 30 23 28 23 18 19 18 18 20 19
32 30 28 28 30 37 37 38 38 35 38 40 38 43 42 38 41 43 50 60 67 72 68 65 60 56 53 50 44 42 39 35 33 35 36 30 21 33 21 22 17 20 19 22 20
30 28 27 31 33 37 36 40 33 33 37 40 33 35 39 29 35 42 40 53 63 69 67 66 61 56 55 51 46 44 37 33 37 36 36 33 24 31 21 20 19 22 22 22 20
28 28 28 29 37 39 39 39 28 31 34 32 30 34 26 28 34 40 37 52 59 65 68 66 60 58 55 53 52 46 32 33 33 36 36 35 25 31 22 19 17 17 22 23 22
26 27 29 34 43 39 37 37 30 29 28 31 32 30 26 28 34 38 39 52 58 64 67 66 61 61 53 52 43 35 35 34 34 38 34 33 26 32 23 18 18 17 20 22 24
26 25 30 33 35 38 32 33 29 27 28 29 28 22 23 28 33 40 42 52 58 62 66 64 62 54 47 46 42 38 37 35 35 34 32 31 24 30 23 20 20 19 19 22 25
26 26 28 28 34 37 34 31 29 28 26 28 25 18 23 31 31 38 43 51 57 62 64 64 57 50 46 47 44 39 36 32 34 35 32 29 26 29 23 22 21 20 20 22 24
25 26 27 27 34 37 40 29 28 25 30 28 22 15 21 31 27 36 43 51 56 62 61 61 47 52 45 44 41 37 31 33 34 35 30 27 25 26 22 23 24 23 23 24 23
25 25 28 28 32 33 38 32 25 25 31 29 25 19 16 28 30 38 43 51 55 60 59 55 50 48 47 37 37 33 33 35 33 31 28 25 26 23 25 24 26 26 27 26 24
25 23 26 30 30 33 36 31 28 28 33 24 22 18 20 29 29 36 45 50 52 59 52 47 46 46 41 38 36 35 35 33 28 29 27 21 24 26 22 21 26 28 27 27 26
23 20 23 29 32 31 34 28 25 23 24 19 16 19 28 33 33 40 46 52 43 58 53 45 50 43 40 39 38 38 35 31 27 27 22 22 25 19 20 20 24 27 27 24 25
22 21 21 29 29 24 31 18 16 22 21 10 8 26 35 37 36 44 45 52 54 55 51 54 48 47 46 44 44 40 34 30 27 24 24 20 23 19 21 23 23 25 23 21 24
22 22 20 26 27 25 26 13 15 24 24 10 20 33 32 38 39 47 48 52 55 54 49 52 49 49 45 36 38 37 36 31 26 23 23 20 19 23 20 22 24 26 25 25 28
23 20 17 22 17 20 29 16 10 15 16 15 22 34 37 38 42 49 51 55 54 50 51 48 47 49 47 41 37 41 32 33 30 25 19 19 17 23 24 24 25 25 27 30 30
22 18 15 18 15 18 25 11 6 12 11 14 21 27 36 38 49 51 53 54 51 45 47 46 44 44 43 42 35 32 34 31 28 27 22 22 19 20 23 24 25 27 28 28 26
22 16 12 14 10 16 19 13 2 9 13 22 30 18 28 35 43 47 49 50 48 42 40 40 43 44 40 37 34 34 32 32 30 28 25 23 19 20 22 23 24 26 24 22 23
21 15 9 9 7 8 13 18 6 6 11 25 23 12 23 29 39 40 44 45 41 37 35 35 37 41 43 44 40 37 35 35 29 26 27 27 21 20 22 22 22 21 20 21 22
18 15 9 5 5 4 7 13 6 11 14 19 21 19 20 30 31 37 39 38 31 27 30 33 35 33 33 32 31 31 29 28 29 30 26 22 19 19 23 25 23 20 21 23 24
18 16 11 4 3 1 3 11 6 11 15 14 23 23 25 30 31 29 29 33 28 26 27 31 34 35 35 33 35 36 36 34 32 26 27 17 23 26 26 23 22 23 23 24 26
20 16 16 11 8 6 6 9 5 6 9 13 16 19 32 33 25 19 21 22 21 23 23 25 27 31 34 36 34 33 34 35 33 31 27 23 23 23 24 24 23 24 25 27 29
20 16 18 15 11 8 4 3 7 11 10 13 23 19 23 37 29 23 23 20 22 17 19 19 19 22 28 30 33 36 31 32 30 27 26 25 20 26 25 24 25 26 28 29 28

GFSSW_500_spd_006.txt.gz
Wind_Speed
28 29 31 36 38 36 38 41 44 41 39 42 41 38 38 38 38 38 38 48 49 54 55 52 49 49 49 46 42 39 36 33 29 33 36 32 25 24 23 22 18 16 17 15 10
30 33 34 33 31 29 30 32 34 39 43 43 43 39 40 40 41 41 44 47 51 52 55 57 54 51 52 49 46 41 37 31 31 36 36 33 26 21 24 21 19 15 17 17 14
32 33 29 27 29 32 32 36 37 38 40 42 42 43 43 40 44 42 49 52 53 55 51 59 58 54 54 52 51 45 35 32 35 39 34 34 28 21 24 21 20 17 19 18 19
32 33 27 28 29 31 34 35 35 36 37 39 43 42 43 45 48 46 49 55 57 60 58 57 61 59 54 56 51 46 36 36 37 39 34 34 29 23 20 21 20 19 24 24 19
32 35 32 28 26 30 30 32 30 34 38 41 44 45 47 48 46 49 51 53 58 61 60 58 61 62 57 55 51 45 38 38 39 40 34 33 29 26 17 26 22 23 24 28 20
35 36 33 29 27 31 31 31 31 37 39 41 44 49 48 46 43 49 53 57 59 63 63 62 58 63 59 57 52 44 41 41 45 41 36 30 29 22 31 26 21 21 22 25 23
35 37 34 31 28 31 29 31 35 37 42 44 48 43 41 38 42 47 53 60 59 60 61 62 61 65 62 58 54 49 46 46 45 41 36 33 27 26 33 22 23 21 21 26 26
35 38 34 32 30 29 32 34 41 42 43 45 41 36 33 39 45 45 50 53 55 58 64 65 64 66 65 60 54 52 50 50 41 38 35 38 27 33 30 27 22 22 20 23 27
36 38 32 31 31 32 36 40 43 42 40 39 37 34 35 40 44 49 47 59 61 63 57 66 68 67 65 62 58 57 53 46 42 36 40 37 31 32 29 28 24 22 19 25 28
36 36 31 30 31 31 34 38 38 39 37 37 38 37 34 38 42 46 48 44 50 57 63 66 68 68 66 63 64 60 54 43 38 39 39 40 31 32 28 26 23 22 22 26 29
37 36 32 29 29 31 35 37 38 41 37 39 38 37 35 38 42 42 36 36 44 50 60 64 68 71 66 61 58 55 44 41 37 40 40 39 31 31 32 27 24 23 21 27 30
36 36 33 29 30 32 34 37 40 43 39 37 37 37 34 35 36 32 34 35 37 40 51 57 66 64 59 56 55 52 47 41 41 39 37 38 29 33 34 27 26 26 24 27 28
36 35 33 29 32 32 34 34 39 39 35 35 35 33 34 34 28 27 30 35 31 38 50 50 63 64 52 56 50 53 46 43 37 35 36 33 28 32 33 29 30 27 27 25 25
35 34 33 28 30 31 35 35 37 29 37 40 37 36 35 28 21 28 29 35 36 40 43 49 59 60 59 53 48 48 45 43 36 35 36 33 30 30 31 29 30 29 28 26 26
35 33 32 28 28 32 38 33 34 24 40 38 35 31 30 25 17 24 28 35 41 33 52 47 59 52 52 50 43 45 46 40 36 37 34 30 27 28 33 30 29 29 29 28 27
33 32 31 27 29 33 36 32 34 27 37 35 33 26 19 20 22 26 27 32 42 48 53 51 53 50 50 42 42 49 45 40 36 35 31 28 27 29 32 30 30 30 30 29 28
32 29 30 28 29 31 29 32 31 25 31 28 22 25 19 20 26 23 27 42 41 50 51 57 42 53 50 42 44 49 43 37 35 35 27 27 28 25 33 30 30 29 30 30 29
31 27 31 28 26 29 26 32 29 25 25 26 24 22 23 27 26 25 36 42 30 56 50 50 41 51 59 44 45 48 43 39 35 29 27 28 28 26 28 31 29 27 25 26 28
29 25 29 24 21 22 24 28 18 20 22 32 17 16 23 28 26 30 43 33 39 60 44 45 54 33 51 51 41 42 42 40 34 28 28 26 27 24 26 27 27 25 24 24 26
26 22 26 20 17 16 19 18 13 17 15 14 6 14 25 27 29 40 46 31 52 56 47 30 41 46 47 46 41 39 37 38 33 28 26 23 26 25 24 24 25 22 24 24 27
24 20 23 18 15 10 16 14 10 15 9 6 11 17 25 28 35 41 45 43 52 48 46 37 48 49 40 41 46 45 42 38 32 31 29 22 23 23 22 21 22 24 26 28 30
22 19 20 15 13 10 12 12 9 14 4 9 9 19 23 28 36 39 42 43 45 47 40 38 36 46 46 41 34 38 40 31 36 33 28 25 23 22 22 21 22 24 25 27 30
20 18 18 12 10 7 7 14 10 6 6 12 12 17 17 28 36 37 41 44 45 43 41 39 42 42 42 45 46 45 30 28 27 27 30 30 25 22 22 23 22 20 22 26 26
19 17 16 12 10 8 8 13 12 5 6 9 10 9 14 23 31 36 41 39 35 33 38 40 38 39 38 36 36 29 31 29 29 32 27 26 25 25 25 25 22 24 24 21 22
18 17 14 11 11 8 6 11 11 14 6 6 9 9 11 17 32 33 37 39 37 32 27 32 34 34 35 35 37 38 37 38 35 32 31 24 26 26 27 24 25 25 24 25 24
17 17 15 14 15 12 5 7 9 12 16 11 11 11 10 14 16 23 33 36 35 35 33 29 29 30 30 34 37 40 40 39 37 36 31 32 23 25 26 25 27 26 25 25 26
18 17 14 14 18 13 9 5 7 8 14 17 14 14 15 23 29 24 26 29 23 20 19 25 29 32 33 34 36 37 40 38 37 35 32 31 20 28 27 27 26 25 26 28 30

GFSSW_500_spd_009.txt.gz
Wind_Speed
24 25 27 30 32 35 37 35 36 39 43 48 47 46 43 42 40 39 36 39 41 40 44 48 49 51 47 44 48 43 43 38 34 33 33 38 34 27 27 30 29 24 24 22 19
25 26 29 31 32 34 31 30 31 33 34 37 42 42 42 45 46 42 42 40 42 41 42 47 49 53 54 47 48 47 45 38 34 36 37 41 32 30 26 31 30 27 25 22 22
28 28 30 31 33 34 32 31 32 33 33 36 38 40 44 45 45 43 43 45 46 45 45 48 51 51 56 53 47 51 48 39 37 38 41 42 32 32 25 28 32 31 27 20 23
29 30 30 29 33 36 34 31 30 34 36 38 40 43 45 45 44 44 45 45 47 47 46 49 52 53 53 57 52 49 49 42 41 40 42 40 34 30 28 25 32 29 25 22 27
30 31 30 31 33 36 36 34 34 32 36 37 39 39 40 41 43 45 48 46 49 51 52 51 54 53 51 55 56 54 46 44 43 43 43 41 34 29 26 27 33 30 27 25 27
31 32 32 33 33 36 36 35 36 34 35 37 37 39 41 43 46 47 51 53 52 53 55 55 55 56 55 55 59 55 47 47 46 47 46 41 34 33 26 38 30 26 27 27 28
34 33 33 33 34 36 37 35 37 37 35 35 38 43 47 44 47 51 52 52 52 52 53 56 56 59 58 57 57 57 52 49 50 50 46 41 37 30 33 39 30 27 27 25 27
34 34 32 34 34 36 37 34 36 38 38 41 47 49 47 45 48 49 50 53 52 49 50 54 57 59 61 61 59 60 57 52 50 50 46 43 33 34 39 32 31 26 28 25 26
36 35 32 33 35 37 38 33 36 38 39 43 44 46 47 42 45 48 50 49 49 51 54 56 58 60 60 58 57 62 60 53 54 51 45 47 35 36 38 32 30 29 27 25 25
38 36 33 31 34 38 39 35 34 37 40 42 44 47 45 42 45 46 47 46 47 46 53 54 58 64 65 61 63 54 59 56 53 53 46 44 38 39 39 34 29 30 28 26 25
39 37 34 31 32 37 41 35 39 40 43 42 43 47 42 41 43 45 45 45 48 47 49 55 61 60 67 60 60 54 57 57 52 49 47 42 40 39 39 35 29 27 29 27 27
39 37 34 31 32 36 38 38 38 42 44 43 47 44 41 41 42 44 45 44 45 49 55 60 69 68 58 61 61 56 58 52 49 52 45 41 41 37 38 36 31 28 28 27 27
39 36 33 32 32 36 35 36 39 45 45 45 46 45 40 41 43 42 41 40 40 45 41 45 45 49 64 64 58 57 58 52 51 52 43 43 39 35 34 38 31 30 31 29 28
38 34 33 31 33 35 34 36 43 50 49 49 45 40 41 40 41 43 39 34 34 33 37 42 39 51 57 63 57 56 53 47 54 50 42 43 37 37 36 35 33 30 31 30 29
37 32 32 30 32 33 35 37 41 48 46 48 41 36 40 35 33 37 30 27 28 31 36 34 39 49 56 56 53 47 37 50 53 47 44 42 38 30 34 34 32 29 31 31 29
34 31 30 30 31 33 35 38 45 41 47 45 40 36 37 36 23 31 28 28 31 34 28 36 36 43 56 56 56 51 48 48 48 50 44 38 33 32 32 35 33 30 29 29 29
32 29 29 29 30 32 32 36 38 39 38 32 34 28 30 26 22 25 19 30 31 34 40 25 40 52 56 54 54 48 51 52 48 48 40 38 34 27 35 32 31 29 29 29 30
30 28 27 28 28 29 29 32 32 34 26 27 32 33 28 21 24 22 24 28 32 34 11 34 51 52 55 64 48 53 55 45 48 46 38 31 31 32 30 29 31 26 28 28 30
27 25 24 25 27 25 28 28 29 30 26 26 32 26 19 18 19 23 22 26 31 30 23 45 48 50 48 52 44 54 36 46 45 41 35 33 29 28 29 29 27 28 25 29 29
24 23 23 22 24 24 26 27 27 24 23 23 24 7 2 9 20 19 27 37 32 34 39 49 44 48 41 51 51 47 46 43 42 37 30 30 28 29 26 26 27 26 28 31 31
23 22 23 21 22 20 25 22 24 20 22 19 7 4 6 14 15 22 44 31 36 43 38 26 43 49 31 58 46 48 44 41 39 37 28 22 25 26 23 25 24 24 27 28 28
22 21 21 20 19 17 21 16 18 19 19 9 2 4 6 13 23 26 24 30 49 42 30 25 16 35 51 50 50 26 40 38 35 34 32 27 26 24 21 20 20 24 27 28 28
21 21 19 18 17 15 19 13 16 18 15 6 7 9 13 21 35 27 26 44 49 37 30 18 22 31 43 40 39 44 32 33 34 33 33 30 28 23 19 22 23 22 23 25 27
22 21 18 16 16 16 18 15 13 14 6 4 9 8 13 20 30 32 32 38 45 28 24 27 26 29 36 30 32 31 34 34 33 34 35 33 29 26 26 26 23 22 24 26 27
21 20 18 14 14 15 18 14 13 16 10 2 6 12 11 16 27 32 35 35 42 30 28 29 33 36 35 33 36 33 29 32 37 25 26 27 28 28 28 25 24 24 27 28 28
21 20 19 15 14 16 20 10 9 11 18 6 3 9 12 14 18 25 35 35 33 35 28 25 24 26 27 27 29 34 35 33 31 28 28 27 26 25 27 28 26 26 28 28 27
23 21 19 16 16 16 19 15 9 16 13 15 8 8 10 20 23 24 28 26 25 28 23 25 27 28 29 29 31 34 34 36 31 31 31 27 26 35 30 31 30 27 27 26 26

GFSSW_500_spd_012.txt.gz
Wind_Speed
24 24 24 23 23 25 27 29 31 33 34 35 37 40 46 50 47 43 40 40 40 36 36 37 38 40 42 41 45 42 44 43 37 34 31 32 34 30 28 25 28 27 29 34 23
25 26 25 25 26 26 29 28 31 32 34 33 32 34 35 43 50 48 44 43 41 40 39 39 40 41 42 43 45 48 43 42 38 36 37 37 39 30 27 27 29 31 33 37 29
26 27 27 26 28 28 29 30 30 32 36 35 33 32 32 34 40 46 44 44 43 43 43 41 41 42 41 43 44 46 46 38 43 39 41 43 37 30 29 28 28 32 38 36 26
28 28 28 29 29 29 30 30 31 33 35 35 34 34 34 34 37 39 40 41 43 45 43 42 44 45 44 44 45 46 46 45 40 43 45 44 37 35 29 24 31 34 33 30 26
29 29 30 30 30 29 30 31 32 33 35 36 37 35 33 33 31 39 42 41 42 43 46 46 46 46 46 47 48 48 46 47 43 45 47 45 41 34 30 26 33 35 33 31 30
32 32 32 32 31 31 32 30 32 32 36 38 39 37 37 34 36 39 38 41 43 45 47 47 48 49 49 51 52 50 50 48 47 45 49 48 42 38 28 29 35 37 29 28 28
36 35 35 33 34 32 33 31 32 30 35 38 39 37 38 33 38 41 44 45 47 47 49 52 55 56 56 55 55 54 53 51 49 49 49 52 46 39 27 32 38 36 29 27 27
38 39 38 37 36 35 34 32 32 30 35 36 37 40 39 40 44 46 49 51 51 51 53 56 58 59 58 59 57 57 58 52 46 53 49 54 48 36 34 40 35 34 33 26 28
40 41 41 40 39 37 36 33 32 30 35 36 37 39 41 42 45 52 50 50 52 52 52 54 57 57 55 56 55 57 58 52 48 52 52 51 50 37 37 41 34 30 33 31 29
46 42 43 41 40 39 37 36 32 30 34 36 40 41 43 45 47 47 49 50 51 51 52 53 54 53 55 56 58 56 56 55 51 47 53 50 48 42 40 39 34 31 31 30 29
50 43 43 42 41 39 37 37 35 34 35 39 41 39 45 46 44 47 50 50 48 47 48 50 53 53 50 48 46 48 51 51 50 51 51 51 45 43 41 40 38 33 33 28 31
50 45 43 43 41 39 37 36 37 36 40 40 41 41 45 43 43 46 46 45 43 43 46 52 54 46 46 47 48 47 50 49 48 48 51 51 46 46 41 41 38 35 34 31 29
48 48 44 41 40 38 35 37 35 38 44 43 42 46 44 44 43 41 40 40 41 43 45 51 45 49 50 47 48 51 49 46 48 38 48 52 49 47 41 39 37 36 32 33 28
45 47 46 41 39 37 35 35 35 39 46 46 47 41 40 42 38 34 39 42 43 40 44 49 46 50 54 57 55 53 47 49 39 41 50 50 50 45 40 41 38 35 35 32 31
42 45 44 39 35 34 34 35 37 42 47 44 47 44 38 31 32 30 37 44 41 41 45 42 41 45 52 55 61 61 47 47 55 36 45 45 48 43 47 42 36 34 33 32 30
45 44 41 36 34 32 32 34 37 42 46 46 41 35 32 33 35 35 34 35 37 38 38 34 34 38 36 39 51 59 56 46 51 47 49 40 35 44 46 36 33 34 34 31 27
46 42 40 34 31 31 31 33 37 37 40 41 38 34 34 36 37 33 35 27 28 33 36 29 28 29 36 38 49 58 52 53 39 43 48 46 43 36 40 36 32 30 32 28 26
43 42 39 33 28 29 31 33 35 33 38 39 34 33 35 40 23 19 26 26 29 27 24 25 30 33 34 45 53 59 57 51 56 59 56 47 47 41 39 29 28 29 29 26 26
42 42 33 30 25 28 29 30 31 32 34 35 31 35 32 24 15 17 23 22 19 21 22 13 15 28 36 42 56 63 64 24 25 28 43 48 40 38 33 27 27 25 24 23 26
42 39 30 28 25 26 26 27 29 29 32 32 30 27 20 12 9 15 21 15 17 24 22 9 12 18 35 51 58 55 41 36 36 39 31 36 37 37 29 25 24 22 20 22 24
40 36 29 26 24 23 20 24 23 22 27 27 22 17 12 5 3 9 11 16 19 26 10 15 19 29 41 49 44 29 48 47 29 33 32 41 35 30 26 21 22 21 22 24 24
39 35 28 25 22 19 20 20 16 17 22 23 11 9 7 7 2 6 10 14 18 14 16 21 31 33 42 55 40 31 40 45 47 29 30 32 28 25 23 19 20 22 23 24 25
38 34 28 22 19 18 19 17 13 14 19 13 2 11 14 15 14 19 17 16 15 15 24 26 19 32 32 40 35 34 38 43 32 32 28 27 25 22 22 20 21 21 22 22 24
38 33 24 18 19 19 19 16 13 13 16 6 5 12 14 19 16 15 15 10 16 21 21 7 23 10 25 24 35 40 37 30 32 31 29 26 24 22 20 20 20 18 18 19 21
36 29 21 19 21 19 19 12 11 10 17 2 6 14 11 13 15 19 15 20 31 23 14 17 7 12 14 32 29 23 20 26 32 27 28 27 28 27 24 24 24 22 20 21 22
34 28 21 21 21 20 16 12 10 6 15 12 10 13 17 15 17 16 20 24 26 20 13 16 21 20 22 29 27 25 26 28 30 30 29 25 26 29 29 25 23 24 22 23 26
31 26 24 23 21 19 15 13 9 9 14 13 11 13 20 19 20 16 19 17 17 17 11 7 12 17 20 18 16 19 21 22 21 20 27 22 18 23 25 25 25 24 22 23 23

GFSSW_500_spd_015.txt.gz
Wind_Speed
30 30 30 29 27 26 26 25 23 24 25 26 26 28 32 33 37 41 40 41 37 35 35 34 35 35 37 35 36 37 37 34 28 35 26 34 33 29 24 23 24 25 29 33 28
29 30 29 30 30 27 26 25 25 25 26 27 26 28 30 32 32 31 40 47 45 41 40 39 38 38 37 37 38 37 35 31 32 32 35 36 38 36 26 21 25 26 31 39 33
29 29 29 29 30 30 28 26 27 28 26 28 28 28 29 31 35 28 31 38 50 47 45 42 39 40 41 40 39 38 34 33 33 36 36 41 43 38 27 23 25 27 33 42 32
31 30 29 29 30 30 29 29 27 27 27 28 29 28 28 31 33 31 31 33 34 40 43 44 42 43 43 42 41 39 38 36 34 38 38 42 46 40 33 26 25 28 32 37 32
33 32 31 30 30 30 30 31 30 28 28 28 29 30 30 31 33 36 30 31 32 35 37 39 42 44 44 44 44 41 41 40 36 38 40 42 48 39 38 30 28 30 34 36 34
37 35 34 33 32 31 31 31 31 29 29 29 30 29 30 30 35 39 36 32 32 33 35 39 41 43 45 47 46 44 43 42 41 39 41 45 43 46 36 33 32 32 33 35 32
38 37 36 35 34 33 33 33 34 31 29 29 30 32 27 33 35 40 39 38 37 36 36 39 42 43 44 45 45 45 46 44 43 43 42 47 47 43 35 36 36 36 35 34 29
43 40 39 37 36 36 35 36 35 34 31 32 30 34 27 34 36 40 42 41 41 43 42 43 45 45 46 46 46 48 50 49 48 47 44 51 43 41 39 39 41 37 34 30 32
47 46 44 42 40 39 37 37 38 38 35 34 33 34 30 32 35 40 43 45 46 46 47 48 47 47 48 49 50 53 54 55 52 49 49 53 46 42 36 43 44 39 34 29 32
47 46 47 46 44 43 40 37 39 40 39 37 34 38 36 33 36 39 41 45 47 47 46 46 47 47 51 54 53 50 48 51 52 47 51 51 49 43 36 46 47 38 35 30 29
51 48 45 47 47 45 43 38 40 42 40 39 37 37 37 33 37 39 40 43 44 45 45 45 49 53 47 44 45 46 48 51 50 51 51 51 48 41 40 45 45 40 36 33 26
51 51 48 46 47 46 45 40 41 42 43 39 40 37 38 37 39 43 46 43 42 44 49 52 54 44 43 45 47 47 49 49 48 47 48 51 51 40 46 45 42 40 38 35 28
48 50 49 47 45 45 46 40 42 44 45 41 37 39 37 39 42 39 42 43 45 49 49 49 49 39 43 45 46 47 48 44 46 41 44 46 52 43 47 45 41 41 39 36 29
51 47 49 47 46 42 44 41 41 43 45 43 41 31 32 40 43 40 42 42 46 43 42 46 44 45 45 45 45 48 41 41 41 41 44 40 50 43 46 41 41 41 42 35 28
52 47 46 47 47 42 42 38 40 43 45 42 39 39 39 41 43 36 35 37 38 40 43 43 42 40 44 36 43 40 42 41 40 40 42 41 41 44 43 45 46 42 39 34 29
52 48 45 46 45 40 39 35 40 41 43 44 40 40 43 43 43 39 37 37 38 39 40 42 45 46 41 42 47 40 46 44 37 39 46 42 48 42 40 43 43 38 39 33 28
51 47 44 45 44 40 37 36 39 36 37 41 38 41 44 43 38 38 38 39 41 39 42 41 41 39 38 40 43 50 50 49 47 44 49 40 45 44 41 42 39 38 36 29 27
46 45 45 43 42 40 35 36 34 33 34 37 37 40 42 36 39 32 31 29 23 28 33 33 32 33 30 36 41 45 51 53 52 52 47 37 47 26 33 44 39 36 34 27 27
44 43 43 39 42 36 35 34 28 29 32 32 34 37 34 31 30 24 20 18 21 23 28 31 21 25 27 28 31 38 52 47 51 48 34 46 46 40 40 22 25 28 28 25 25
38 42 40 38 38 37 35 26 25 29 27 27 31 30 25 23 20 15 12 13 13 14 17 18 18 16 12 23 37 42 40 57 55 52 42 27 26 30 28 24 21 22 20 23 23
38 43 40 37 36 36 28 20 22 22 19 25 23 21 20 15 8 5 4 9 10 13 16 10 14 10 16 21 26 45 56 56 52 39 45 46 35 33 30 22 20 19 20 20 18
38 42 39 36 38 30 25 21 18 14 19 23 16 9 7 9 11 8 7 6 2 13 9 5 2 5 20 18 27 37 55 69 57 26 20 30 30 35 31 23 18 18 20 20 19
41 40 38 38 33 28 22 19 14 11 21 9 11 6 10 9 4 2 3 11 15 9 7 15 9 8 16 25 34 42 47 52 39 23 36 35 27 25 26 24 22 19 20 19 19
40 39 39 36 30 26 22 16 11 16 17 4 8 8 11 7 4 10 6 7 5 9 10 11 15 10 24 36 38 37 40 41 26 18 25 21 24 27 24 20 18 18 17 16 16
40 40 34 33 30 27 22 14 12 15 12 7 9 11 11 9 5 3 3 8 10 13 11 11 13 14 35 37 27 30 25 32 20 18 19 23 20 18 18 18 17 17 16 15 14
37 40 37 33 29 27 16 12 13 14 11 10 11 15 12 10 8 6 5 11 14 8 16 9 21 23 25 11 20 14 22 19 16 22 22 19 16 18 19 18 17 16 16 16 17
36 38 36 31 26 20 15 16 13 13 8 6 14 17 16 15 15 17 15 15 10 7 4 8 11 17 20 13 12 9 8 11 13 24 21 17 17 17 21 22 18 16 16 18 17

GFSSW_500_spd_018.txt.gz
Wind_Speed
33 33 31 31 32 32 32 30 29 27 26 24 24 24 26 25 25 24 26 35 36 35 34 32 32 32 33 32 34 33 32 27 28 30 26 36 36 37 29 27 26 24 28 29 31
30 31 30 28 30 31 31 30 29 29 28 26 24 25 26 25 25 19 29 26 35 41 41 40 38 36 35 34 36 35 31 26 25 27 30 36 43 39 34 28 25 25 28 31 33
30 30 28 28 28 28 29 29 30 30 29 27 26 27 26 27 25 20 25 29 31 33 44 48 46 42 40 39 37 35 29 28 27 29 34 37 43 44 37 30 24 27 30 32 33
31 30 29 29 28 27 27 27 29 30 30 30 27 27 27 28 27 23 27 30 33 34 37 44 53 50 43 42 39 40 35 34 30 31 35 39 41 44 42 30 29 29 31 33 32
34 32 31 30 30 28 27 26 27 28 28 29 28 28 27 29 31 28 24 28 32 34 36 35 41 47 45 45 44 41 39 38 36 34 35 39 42 43 40 39 32 31 33 36 34
38 36 34 32 33 32 30 29 28 27 28 28 29 29 30 30 33 32 29 27 33 35 34 35 35 39 43 44 46 44 42 42 40 38 39 39 41 44 39 37 40 35 33 37 40
41 40 38 37 35 35 34 32 30 29 29 30 30 30 30 31 33 33 32 30 30 35 36 36 36 37 38 41 43 43 42 41 43 43 41 41 41 40 39 36 43 39 37 39 37
42 44 42 41 39 37 35 35 32 32 31 32 31 30 30 32 33 33 34 31 32 35 38 40 41 40 38 39 40 41 42 43 43 44 45 44 36 39 40 40 39 42 41 39 35
44 43 44 44 42 41 38 36 34 33 33 33 33 32 31 32 35 34 35 34 34 36 39 44 45 45 45 44 44 45 46 45 44 44 46 47 41 41 44 39 43 41 43 40 35
48 47 45 44 45 44 43 41 39 36 36 36 36 35 36 35 34 36 37 38 36 36 38 40 48 50 50 47 46 45 46 46 48 46 49 49 45 46 44 44 42 44 45 41 35
47 49 50 47 46 45 44 43 42 40 40 39 38 38 35 34 36 38 39 40 39 39 38 42 46 49 46 47 49 49 48 49 50 53 53 54 53 53 48 44 44 47 41 42 36
55 51 48 51 50 47 44 42 44 45 41 40 41 40 41 39 36 38 40 42 43 41 45 48 45 43 46 48 49 49 50 49 51 52 55 53 54 55 53 46 46 50 43 43 39
58 56 53 49 49 48 47 43 42 44 44 41 43 41 40 41 40 41 40 42 41 44 46 45 44 47 49 51 53 53 52 49 49 46 51 53 57 58 53 49 48 50 47 44 40
58 59 57 53 47 44 45 44 41 40 45 42 44 42 38 37 40 44 45 43 42 40 44 48 47 48 48 50 48 49 44 43 45 46 50 48 55 56 51 48 51 48 48 45 40
52 55 57 53 49 44 44 42 42 40 44 45 44 39 39 42 46 44 45 46 44 43 46 45 43 45 48 40 42 43 41 43 44 45 48 45 52 49 48 51 52 45 46 42 38
46 47 51 52 49 45 41 41 40 41 45 43 38 41 43 43 45 45 45 45 43 41 44 45 47 48 46 43 45 44 43 44 44 44 52 44 50 52 42 49 49 43 44 38 35
45 42 41 50 49 45 41 39 39 41 39 37 38 41 41 43 45 45 43 41 41 39 42 43 43 43 42 41 41 43 43 46 48 49 55 44 47 48 41 44 43 45 43 35 33
38 40 41 44 46 43 40 38 39 38 34 33 39 39 39 41 41 41 43 36 33 36 38 39 39 38 35 36 40 40 41 45 46 48 44 43 51 45 41 36 40 43 43 34 30
39 28 38 43 42 41 41 37 35 31 29 34 35 37 36 34 38 38 32 29 25 18 17 22 25 27 35 31 30 30 37 33 41 43 43 43 46 40 34 39 39 36 40 33 26
39 31 34 36 40 40 41 36 31 26 31 30 31 34 27 29 31 27 20 14 10 13 17 20 25 28 33 35 36 35 31 39 42 42 43 48 46 39 26 30 35 38 28 26 28
30 40 37 37 40 42 41 31 25 28 27 27 28 24 17 12 8 12 12 9 8 13 14 10 16 19 27 28 29 35 37 38 41 43 45 40 36 36 36 28 17 23 22 22 27
48 44 34 37 39 41 38 25 28 26 26 25 21 17 6 5 4 5 9 9 3 3 7 13 17 15 18 20 25 33 37 36 44 45 46 30 24 25 22 19 23 22 24 24 23
37 43 41 41 38 37 29 28 26 24 23 22 18 15 14 13 5 6 7 16 15 16 8 8 8 5 7 10 12 23 29 36 38 43 38 30 36 29 16 21 22 22 22 23 23
48 44 41 43 41 28 31 25 24 23 22 17 19 16 18 15 7 10 14 14 20 11 12 12 3 13 5 3 4 7 27 37 42 46 32 31 20 22 22 26 23 21 20 20 19
37 37 35 42 34 32 26 24 23 22 18 19 18 17 19 17 12 10 8 9 13 8 6 9 13 20 5 5 8 14 22 41 50 47 16 19 22 17 24 28 26 23 20 17 16
39 36 28 32 34 30 26 22 23 23 22 17 15 17 13 15 12 6 5 4 5 2 5 17 19 9 11 21 19 23 34 41 38 27 11 26 29 32 26 22 22 20 18 17 15
41 35 31 30 30 28 23 24 24 19 18 17 15 15 13 15 9 7 6 6 3 9 10 9 21 12 13 11 24 26 23 19 19 15 24 24 21 20 20 20 18 18 18 17 17

GFSSW_500_spd_021.txt.gz
Wind_Speed
37 35 35 36 36 37 37 35 34 34 34 36 35 33 31 30 28 24 26 28 30 31 33 32 32 32 32 32 32 32 34 25 21 23 24 31 36 38 35 32 32 30 29 28 30
36 32 31 30 32 32 33 34 33 30 31 32 32 31 30 29 26 24 28 23 27 29 31 36 35 36 36 34 36 36 35 26 23 23 25 36 39 39 40 35 32 31 30 29 30
36 32 30 30 29 28 29 30 31 29 30 31 32 30 29 28 27 24 27 25 24 28 29 32 41 41 42 40 39 37 35 30 27 26 29 35 41 41 39 40 31 32 34 32 32
36 34 32 31 29 26 26 26 27 28 27 29 29 28 27 28 28 25 29 26 27 26 29 31 34 38 47 48 45 45 38 35 32 30 29 33 39 39 39 37 39 35 36 34 33
36 36 35 34 31 29 27 26 25 25 25 27 27 27 27 27 28 27 25 27 29 29 30 31 33 38 40 44 51 53 43 41 39 37 35 35 37 40 38 38 38 40 37 37 34
35 38 38 36 34 32 30 28 26 25 25 25 25 26 27 27 27 27 27 27 29 31 31 32 34 36 37 38 41 52 51 45 43 39 39 39 37 40 38 40 37 38 39 38 37
38 37 41 39 37 35 33 31 29 28 26 26 25 25 27 26 25 26 27 28 29 30 32 33 33 35 35 37 38 38 47 50 47 45 42 40 40 38 36 39 37 38 40 39 40
43 41 40 41 41 39 37 36 33 31 29 28 27 26 26 27 25 26 27 28 29 31 33 34 35 36 38 38 38 40 43 45 44 43 44 43 36 38 37 38 38 36 40 41 42
44 46 44 41 42 42 41 39 37 34 31 30 29 27 27 29 28 27 29 31 31 32 33 36 37 35 38 41 43 42 40 41 44 43 47 46 41 37 39 41 38 36 40 41 46
47 46 48 47 43 42 43 42 40 37 35 33 30 30 30 29 31 30 30 31 32 33 35 38 39 39 38 38 43 43 47 46 47 48 48 47 47 45 42 46 43 37 39 43 43
51 51 46 51 49 46 43 41 41 41 39 38 36 33 32 31 33 34 33 32 34 34 38 41 42 42 37 37 41 49 54 53 53 53 52 52 53 50 47 47 46 41 41 43 43
54 55 53 49 48 50 47 43 42 42 40 40 39 37 36 34 33 36 34 35 38 38 42 44 43 43 44 45 46 48 52 55 54 52 57 55 55 54 53 51 49 46 42 45 44
58 57 59 56 52 49 47 48 47 44 42 40 41 39 40 40 38 36 40 39 40 42 43 42 42 44 48 48 47 46 48 52 53 52 56 59 56 54 53 53 51 50 47 47 46
60 56 57 60 59 52 46 46 48 45 44 41 40 41 41 43 43 44 41 41 42 45 48 48 46 46 46 46 46 47 48 52 54 56 57 57 60 53 53 51 49 49 49 49 49
58 61 47 61 58 52 48 49 44 42 45 42 41 40 40 40 43 42 43 44 45 47 50 49 49 49 52 50 51 52 50 53 55 57 59 58 65 56 54 53 52 54 53 53 51
53 48 48 48 57 54 54 50 43 41 42 38 37 37 38 41 41 41 44 46 48 51 51 49 50 52 49 48 50 49 50 51 53 55 63 57 59 57 51 49 50 52 51 52 49
59 49 45 43 43 49 53 50 46 44 38 37 37 39 40 39 38 38 43 47 49 51 51 51 49 50 50 49 50 49 46 48 51 56 65 59 58 57 47 42 48 46 46 50 48
58 50 46 36 38 44 51 50 48 42 38 38 36 36 35 33 33 40 42 43 46 49 50 50 49 46 43 44 42 43 40 43 47 53 57 52 63 52 42 38 40 39 45 49 46
58 49 45 39 37 39 46 49 44 39 37 35 35 35 30 30 34 34 35 36 34 31 30 30 26 21 28 34 39 37 38 33 40 46 49 48 48 48 37 36 36 40 40 47 43
58 46 42 43 37 38 43 46 43 39 35 32 33 31 27 29 25 17 17 16 13 12 16 15 18 21 24 26 30 31 33 32 34 35 39 33 40 36 32 32 34 35 36 40 41
46 48 39 40 43 40 45 42 40 36 32 32 29 27 27 21 12 12 12 11 11 14 13 16 20 18 25 25 27 34 38 42 40 38 35 33 37 34 28 28 31 37 33 33 33
49 50 40 42 36 36 43 41 38 34 33 28 25 27 19 13 14 13 14 17 20 21 20 21 24 22 21 27 27 33 34 33 37 38 37 32 30 29 28 33 30 36 38 33 37
48 19 32 41 29 31 32 30 31 31 28 25 26 21 15 13 20 15 17 19 22 24 18 21 24 27 19 19 21 38 32 36 33 34 38 35 18 26 23 36 33 35 33 33 35
44 24 40 35 33 29 23 27 28 26 26 26 21 15 15 17 22 20 15 16 19 19 18 24 24 24 25 25 16 8 19 26 28 35 33 34 19 24 27 24 24 34 34 32 31
32 19 31 37 32 27 28 30 26 26 27 23 15 13 17 17 23 22 16 11 14 13 11 16 21 26 18 9 12 9 3 11 18 19 29 24 22 19 26 25 27 22 25 28 27
25 29 34 31 29 25 25 22 23 28 24 17 15 17 15 15 22 22 14 5 6 7 11 14 23 19 11 8 6 5 5 20 27 27 26 27 19 31 26 23 25 24 18 20 22
31 34 28 24 28 29 22 21 23 21 18 17 20 16 14 18 16 13 10 6 5 14 9 12 16 15 5 1 4 16 22 18 24 27 12 14 23 39 31 28 26 22 20 20 19

GFSSW_500_spd_024.txt.gz
Wind_Speed
35 34 36 37 37 38 38 39 42 43 43 44 43 41 40 42 42 38 34 35 32 31 30 28 30 30 29 30 34 37 39 30 23 24 24 32 36 36 36 37 36 34 33 30 28
36 36 36 37 37 37 36 35 38 40 40 41 42 39 38 39 39 34 36 35 30 28 27 26 29 32 33 30 33 34 33 23 21 23 24 30 37 40 38 37 38 35 34 35 32
37 37 37 37 36 34 34 32 32 34 36 37 38 36 34 34 33 31 33 33 29 26 26 25 27 29 33 34 34 35 33 28 27 29 30 33 37 39 38 36 36 40 39 37 36
38 38 37 38 36 34 34 31 30 30 33 34 35 34 33 33 31 28 33 32 27 26 26 25 24 26 27 33 39 41 38 35 32 35 34 35 37 39 36 32 38 38 43 39 37
38 38 38 37 37 36 35 32 30 28 27 29 32 32 31 30 30 29 30 29 27 26 27 25 25 27 29 30 33 40 43 45 42 38 39 37 35 35 34 33 35 38 37 40 39
35 38 39 37 38 38 36 35 32 30 27 26 28 29 29 29 28 25 26 26 25 26 24 24 27 28 28 30 32 35 39 40 45 48 42 42 38 41 31 34 35 35 37 38 41
36 36 42 37 38 40 39 37 34 33 29 27 26 26 26 26 26 25 25 25 24 26 26 26 28 30 29 30 32 33 36 39 37 40 50 47 44 41 35 37 38 34 33 36 38
40 38 40 42 38 40 41 39 37 35 32 28 27 25 25 24 23 23 23 23 23 24 25 26 28 29 31 32 33 34 36 36 36 35 45 51 47 41 40 41 40 40 33 33 36
39 43 42 44 44 40 41 42 41 38 35 32 29 27 26 25 23 23 22 22 22 23 25 26 27 29 33 35 35 35 36 38 39 39 42 52 55 47 46 43 42 40 37 33 32
47 44 48 45 47 46 42 42 43 40 38 34 32 30 28 27 26 25 24 24 24 23 24 27 30 31 33 35 36 37 40 40 42 43 46 48 55 50 47 45 44 43 40 35 33
49 51 50 51 48 50 48 42 41 42 40 39 35 33 31 30 28 27 26 25 26 28 27 29 32 32 33 36 39 42 44 44 42 46 50 50 51 49 50 50 47 44 41 39 37
54 54 60 52 52 51 50 48 42 41 41 40 38 36 34 33 31 30 29 30 31 31 32 33 34 36 39 41 43 44 46 48 47 45 48 53 55 53 52 50 48 47 45 41 39
59 58 62 54 46 57 49 49 47 44 42 39 38 37 37 36 34 33 33 34 34 37 38 41 40 41 42 44 46 46 48 50 51 50 51 52 54 57 53 53 50 49 48 45 41
58 62 64 51 44 56 55 48 47 47 45 40 39 37 35 35 35 36 36 38 40 41 43 43 41 44 46 49 51 51 52 53 55 56 53 51 57 54 56 54 52 51 52 51 47
50 62 66 48 45 52 53 51 48 42 45 44 41 37 37 36 35 36 38 39 40 41 42 42 44 47 50 50 54 53 53 54 56 58 58 53 59 54 50 51 49 48 50 51 49
47 58 67 65 50 46 45 51 51 47 45 39 39 38 37 37 37 37 36 38 38 40 43 44 48 50 52 52 55 55 55 57 58 59 64 60 62 55 49 43 45 48 49 49 48
43 53 60 57 51 44 47 50 50 51 45 36 32 33 33 33 34 34 35 35 36 40 44 48 50 54 55 54 55 54 53 54 58 62 66 64 64 58 49 42 44 44 52 50 50
37 50 58 61 47 47 46 47 51 49 44 38 35 31 31 32 32 29 29 31 37 43 44 45 45 46 46 45 45 50 46 47 50 57 61 58 66 58 52 48 44 38 44 47 49
34 50 62 48 51 43 40 42 46 47 42 37 35 33 31 32 29 27 28 31 29 25 25 24 19 21 18 24 29 36 45 41 41 44 48 54 62 61 58 47 46 41 41 45 47
37 52 58 49 41 44 35 34 34 42 40 37 35 34 33 32 26 27 26 21 17 19 24 23 25 22 26 28 29 31 29 34 44 43 44 43 42 43 47 40 43 39 43 45 42
50 55 52 50 47 43 29 30 31 37 39 38 36 34 32 25 25 25 21 15 17 21 25 31 33 30 31 31 32 35 34 35 35 42 46 41 36 26 31 32 36 38 44 42 43
59 49 45 38 37 43 24 22 27 37 38 36 35 34 26 26 24 21 19 19 18 22 27 31 36 32 33 30 30 33 35 34 38 41 44 46 37 29 27 25 29 36 42 39 34
50 39 38 29 38 31 30 28 28 34 36 35 34 30 25 23 19 18 21 17 19 23 27 26 31 37 35 33 33 33 34 32 35 34 35 34 21 24 20 22 25 33 37 32 32
38 25 42 43 36 24 20 22 30 29 32 33 29 25 24 18 16 18 17 17 19 20 26 30 29 30 35 36 35 31 27 23 24 34 25 22 15 21 23 23 28 31 34 37 33
24 16 28 34 33 21 22 23 26 26 28 28 25 22 18 13 14 11 15 18 18 18 19 22 21 22 16 16 26 21 12 13 7 3 16 12 22 20 31 27 29 31 35 39 37
23 27 35 36 32 24 21 24 27 22 21 23 19 20 16 11 12 11 13 13 15 13 12 16 13 16 16 20 23 23 20 15 7 11 11 18 26 26 21 27 30 30 36 38 37
13 21 26 31 26 19 20 18 17 20 20 18 19 19 14 10 9 13 9 9 5 12 9 9 9 15 15 15 12 11 9 11 21 14 15 16 12 16 15 24 35 33 41 36 33

GFSSW_500_spd_027.txt.gz
Wind_Speed
28 30 30 33 33 32 34 35 37 37 39 39 43 43 44 43 44 39 36 38 40 40 36 33 30 29 29 29 29 31 34 30 26 27 28 34 38 38 36 33 37 39 35 33 32
30 31 32 33 34 34 35 35 34 35 37 37 39 41 43 42 43 42 39 39 40 40 36 32 30 29 29 30 31 33 33 25 26 29 32 37 42 42 39 37 35 36 40 37 36
29 34 35 36 36 35 35 35 34 35 36 37 38 39 40 42 43 42 40 37 39 41 36 32 29 29 28 28 30 30 28 26 23 27 30 33 38 40 37 34 33 36 34 40 39
28 35 36 38 38 38 36 34 34 34 33 35 36 37 37 39 41 40 40 38 39 39 35 32 31 28 25 25 25 24 25 26 25 27 29 32 35 38 37 29 31 33 35 34 39
30 31 38 36 39 38 37 35 35 34 34 33 33 34 34 36 38 40 40 38 36 34 33 33 28 27 26 23 23 24 24 26 30 31 31 33 35 39 40 32 33 33 34 34 34
34 33 37 38 38 39 37 36 38 36 35 33 31 31 33 34 36 34 36 35 34 33 32 30 28 27 25 23 23 24 26 27 29 30 36 41 38 46 36 36 35 34 30 30 32
39 36 36 40 36 40 38 38 37 38 37 34 30 29 30 31 34 34 35 35 33 31 31 30 28 27 26 24 24 25 26 27 27 29 32 37 43 49 41 43 39 37 34 32 29
44 39 38 39 41 36 41 37 39 39 38 34 31 28 27 28 30 31 31 32 31 30 29 28 26 25 24 25 26 26 27 26 27 29 29 32 36 41 50 46 43 42 39 36 32
51 46 41 41 45 41 41 41 39 41 39 35 32 29 28 27 26 26 26 28 28 27 26 24 22 22 24 25 26 26 28 29 30 32 31 32 33 34 46 50 46 45 44 41 36
54 53 48 44 47 46 43 45 40 40 39 37 33 32 30 27 26 25 25 24 24 23 23 22 23 24 25 24 26 29 31 33 34 34 35 34 36 32 40 51 52 49 46 42 39
52 56 53 49 52 51 50 42 46 38 37 37 37 34 32 30 29 28 26 24 23 22 23 24 24 22 25 27 30 32 34 37 39 40 39 40 43 38 38 45 54 53 51 46 42
43 58 60 57 55 44 54 48 44 42 38 41 38 36 34 33 30 29 26 24 24 22 23 24 25 26 28 30 33 36 41 45 48 46 50 47 47 44 39 41 46 50 54 50 45
41 53 63 65 62 46 55 50 43 45 43 39 39 37 36 35 32 30 28 26 26 25 26 27 29 31 35 38 40 43 46 47 49 50 52 55 53 46 43 42 45 49 48 48 49
35 41 59 64 54 44 53 53 45 43 47 41 38 37 36 35 34 32 31 29 28 28 31 32 35 38 41 44 44 48 48 50 53 56 56 54 60 52 47 44 47 48 51 46 47
26 35 50 60 64 50 39 32 41 45 45 46 43 36 34 34 31 30 30 30 29 31 33 35 36 39 42 43 48 50 52 54 56 58 59 58 62 56 53 45 41 45 51 51 49
18 34 41 55 64 52 45 40 42 44 46 43 43 38 35 33 31 30 30 30 30 32 34 36 40 42 43 45 50 53 55 57 59 60 64 61 63 55 54 50 42 43 46 53 52
21 29 37 50 66 49 48 38 44 46 45 39 35 36 35 33 31 30 30 30 32 34 35 37 37 40 43 48 52 56 58 60 61 63 67 62 65 55 56 55 51 48 45 51 52
12 19 35 45 62 41 46 41 45 41 42 39 32 32 29 28 28 28 28 28 28 28 31 32 32 33 37 38 37 30 28 32 38 45 52 56 67 61 57 57 56 51 49 50 53
14 14 36 67 58 43 43 49 44 39 34 38 36 32 25 23 23 24 25 22 23 25 29 29 30 32 28 28 32 33 34 30 37 38 42 40 34 52 54 56 57 53 47 46 47
9 20 42 72 52 38 50 43 35 31 33 35 38 33 29 26 24 25 22 21 22 24 28 26 27 22 24 31 35 40 40 40 40 42 45 45 43 36 31 39 37 49 44 45 45
5 31 42 53 34 45 42 37 34 29 28 34 34 33 31 29 29 22 17 20 20 27 24 26 24 26 30 30 36 42 47 45 43 44 46 48 41 33 27 27 27 28 38 44 47
18 43 52 50 54 40 37 29 23 21 27 33 37 33 32 30 29 16 17 21 24 23 24 24 28 28 29 34 38 38 39 41 43 39 44 46 27 29 24 30 28 28 34 39 49
32 55 44 35 36 36 34 27 23 24 26 33 35 35 34 31 21 17 20 26 21 23 20 22 26 27 24 22 25 31 28 32 31 36 31 39 22 24 22 28 22 22 32 43 47
46 32 30 32 38 34 28 23 20 22 29 31 32 32 30 22 19 18 23 23 20 19 19 22 20 22 19 17 18 24 21 17 22 31 23 22 13 10 15 25 31 22 32 42 44
30 22 26 31 33 34 30 17 13 19 24 27 29 28 23 18 19 20 20 17 15 13 15 16 12 13 13 14 17 22 26 18 8 5 5 5 8 12 19 24 16 20 23 32 39
17 32 41 26 32 27 23 22 22 23 23 22 23 22 20 18 19 16 13 11 10 11 13 11 9 12 15 15 16 16 15 12 7 6 2 8 11 17 17 16 20 25 24 30 36
16 23 19 20 29 17 15 18 21 21 17 18 20 20 19 18 14 13 10 9 7 8 5 8 10 12 13 14 18 16 3 4 7 3 4 10 14 17 22 19 26 32 32 30 34

GFSSW_500_spd_030.txt.gz
Wind_Speed
22 24 28 30 33 33 34 35 36 36 37 38 39 41 45 46 45 40 41 42 42 43 38 36 34 37 36 34 32 32 32 28 25 27 28 35 38 37 36 35 34 33 36 36 34
23 24 27 28 34 35 35 36 37 34 36 37 37 39 41 44 43 40 42 41 42 45 38 35 36 37 37 34 33 32 30 23 22 25 32 37 39 40 39 37 37 36 34 35 37
27 26 27 31 34 37 36 36 36 34 34 35 35 35 36 39 41 41 43 41 42 45 40 36 36 37 37 34 33 32 28 27 26 27 31 35 38 41 42 38 35 36 37 34 33
28 29 28 28 31 38 35 36 37 36 34 33 35 34 36 39 41 40 41 41 42 44 43 37 37 37 38 34 32 30 28 28 25 28 28 32 36 36 40 33 34 33 33 32 33
35 33 32 30 30 34 36 35 37 36 34 33 34 33 35 36 38 38 40 41 41 43 43 38 37 39 37 34 31 29 25 25 25 26 27 30 30 33 37 34 34 32 31 30 30
39 38 37 34 34 32 36 33 38 37 35 34 34 33 34 35 37 37 39 40 41 42 42 39 38 39 37 35 31 28 25 25 25 25 26 29 31 38 31 36 37 38 34 32 30
44 44 43 41 38 37 35 34 38 38 36 35 34 33 35 33 35 37 39 40 41 41 41 39 38 39 36 35 32 30 27 25 24 25 24 28 29 30 34 42 42 40 37 35 32
51 47 49 46 42 39 40 37 35 39 36 37 35 34 34 32 33 36 38 39 38 37 38 37 37 36 36 34 32 32 29 28 24 24 26 26 24 29 33 39 45 49 45 41 39
59 58 55 51 49 44 43 40 37 39 37 38 36 33 34 29 29 34 36 36 36 36 36 36 36 35 34 33 32 32 29 28 28 28 27 26 27 24 29 34 39 43 52 49 44
68 61 59 57 54 50 46 43 44 39 39 36 36 35 34 29 28 29 29 30 32 33 33 33 32 32 32 30 30 30 29 28 28 28 28 29 32 28 29 31 32 37 42 52 50
56 55 49 56 58 57 46 38 48 44 38 33 37 36 33 31 29 28 26 26 27 28 28 29 29 28 28 28 27 26 27 29 29 30 32 33 38 37 33 34 34 35 40 44 53
45 41 44 50 62 61 49 48 45 38 40 39 39 39 35 34 31 28 26 24 24 24 25 26 26 25 25 25 26 27 29 32 35 37 40 42 42 44 44 43 41 40 40 43 46
22 25 35 48 60 60 54 52 44 43 41 43 38 39 37 35 32 28 26 25 25 25 25 25 24 24 25 26 27 30 34 37 41 44 48 51 50 50 52 48 43 42 42 43 46
25 22 29 44 50 62 64 44 44 36 44 44 40 39 38 36 34 31 28 26 25 25 25 25 25 26 27 29 33 36 39 44 48 52 54 54 61 57 55 51 49 46 47 46 47
24 36 21 38 42 55 57 50 40 35 44 42 45 38 37 37 33 32 30 28 27 26 26 27 27 28 31 34 37 39 44 48 51 55 58 59 65 62 60 58 55 53 53 50 51
26 20 18 34 41 62 54 38 44 37 44 39 43 40 34 34 34 32 30 29 27 25 25 26 27 30 34 37 41 45 47 49 52 56 62 62 67 63 59 59 58 56 55 54 54
22 19 12 32 54 72 49 42 42 39 38 40 36 40 35 31 31 30 28 25 25 25 26 27 29 32 32 36 39 42 45 50 54 55 58 58 64 61 58 61 61 63 60 58 54
23 16 10 33 62 67 47 41 45 44 39 34 34 36 37 34 31 29 26 25 26 27 28 29 27 26 29 32 35 39 40 39 40 44 44 42 36 24 32 51 61 68 67 60 55
17 13 16 40 64 64 51 39 41 39 33 28 33 30 30 34 31 28 27 28 28 27 27 25 22 23 24 27 29 33 33 39 46 49 52 52 45 39 28 33 39 47 62 64 54
16 2 27 47 76 61 37 32 35 34 29 28 28 29 25 26 26 27 27 25 25 24 22 21 22 19 22 26 32 35 38 39 44 50 51 50 46 43 42 41 46 40 27 52 51
5 8 34 58 74 49 41 38 37 33 29 26 27 30 29 25 25 23 23 23 22 20 21 19 19 18 20 28 34 37 37 40 42 50 51 47 36 35 35 38 33 34 27 29 39
4 16 44 67 50 49 47 38 31 29 24 23 25 33 31 26 26 25 22 19 19 19 15 16 17 16 22 27 28 33 34 37 39 43 39 38 28 28 28 29 26 27 26 29 36
16 33 50 51 50 51 46 34 27 25 22 21 28 30 34 32 30 24 19 19 19 15 14 14 13 21 20 24 27 28 24 30 37 39 40 40 26 27 26 23 26 28 34 29 39
28 48 52 40 37 45 38 30 29 24 22 27 32 34 33 31 26 20 19 20 16 15 14 14 16 17 15 14 21 23 24 25 29 31 30 26 14 16 21 24 29 33 36 31 36
31 37 37 35 25 28 31 25 19 18 22 26 32 33 32 27 23 19 20 16 16 16 14 12 16 13 16 17 19 25 28 24 25 26 26 20 9 10 18 22 26 25 27 29 28
20 33 31 24 25 28 27 19 18 17 20 26 31 29 23 19 19 19 17 15 15 15 10 11 11 10 9 14 14 15 15 17 19 19 24 19 17 13 8 6 14 25 25 22 24
32 27 30 29 29 28 23 17 13 16 20 24 23 19 19 18 19 16 14 16 15 10 8 6 1 2 6 8 11 11 14 16 22 20 15 15 13 10 8 8 8 18 21 17 24

GFSSW_500_spd_033.txt.gz
Wind_Speed
24 25 24 24 30 31 29 35 35 38 38 39 40 42 44 47 47 45 43 44 44 43 44 43 43 43 40 38 37 39 41 36 30 27 27 37 36 37 35 33 31 31 31 36 34
27 26 27 27 28 32 34 31 34 36 37 38 38 40 41 44 45 44 45 45 43 42 43 43 42 43 42 36 36 39 41 36 28 29 33 38 37 41 37 36 36 34 35 33 33
29 30 30 29 32 29 31 37 34 35 37 37 37 38 38 42 44 43 45 46 44 44 43 42 41 43 43 37 36 37 40 32 33 29 32 35 35 42 41 39 37 36 37 39 35
35 34 32 33 33 32 32 34 39 39 38 39 38 39 38 39 43 41 45 46 44 44 43 42 41 43 44 39 36 38 37 37 35 32 34 33 34 40 38 40 38 40 38 29 33
42 40 38 36 35 35 35 34 40 43 42 41 39 38 37 37 38 38 41 44 45 45 44 41 42 44 45 41 39 37 38 37 34 33 33 35 35 33 39 40 39 35 31 29 31
45 47 44 42 40 38 38 38 34 39 42 42 40 39 38 37 35 36 38 41 42 43 44 42 43 46 45 44 38 39 39 34 33 30 33 34 32 33 34 34 37 35 31 30 31
48 48 52 49 45 43 40 40 39 36 37 41 40 40 39 37 34 33 35 39 40 43 44 42 42 43 45 45 41 40 38 36 32 31 31 31 30 31 30 34 35 36 35 35 35
50 54 55 55 54 48 46 43 42 40 37 38 39 40 38 35 33 32 34 37 38 40 42 41 41 42 43 43 40 41 39 37 36 32 31 32 29 32 31 33 33 37 38 39 37
69 65 64 63 60 58 50 47 43 41 40 37 39 38 38 34 32 31 31 35 36 39 39 40 41 41 40 40 41 41 39 39 38 34 35 33 31 31 28 31 33 36 38 39 37
77 77 72 63 63 62 58 50 46 36 43 39 40 38 36 35 32 30 30 33 35 38 38 39 39 39 40 39 38 41 41 39 38 37 35 34 32 30 31 31 33 32 32 33 37
55 51 48 41 49 58 61 51 43 45 46 39 38 36 35 34 33 29 28 30 34 35 36 37 38 35 35 38 39 38 37 35 35 35 36 36 36 36 35 34 32 32 34 36 38
24 24 24 26 33 49 59 59 53 45 43 37 39 37 37 36 33 30 27 28 29 30 33 34 32 31 31 31 31 31 32 33 33 34 36 36 35 38 35 35 38 40 38 39 41
11 20 22 15 34 45 56 57 56 48 48 41 39 40 38 37 34 30 29 28 27 27 27 30 28 25 24 25 25 27 29 30 33 35 37 39 40 42 43 43 43 44 46 45 44
13 15 21 27 28 41 48 62 46 44 46 40 40 41 38 38 36 32 31 29 26 23 25 26 21 21 21 21 24 26 29 32 35 39 42 43 49 46 49 51 51 51 50 50 49
13 25 21 25 18 37 59 63 42 48 45 44 43 41 39 39 35 33 31 28 25 24 24 25 21 20 20 23 26 29 31 35 39 43 47 48 57 49 55 57 60 61 61 58 56
17 17 22 16 20 40 66 47 45 50 45 47 43 40 38 38 37 34 32 28 25 24 24 23 21 21 23 26 28 30 35 38 43 48 52 55 59 55 59 61 64 67 67 65 65
21 20 18 9 24 53 69 51 51 47 42 38 39 37 38 34 35 34 30 28 26 25 24 23 22 23 25 27 30 34 35 40 44 47 50 54 60 56 46 48 52 55 62 66 65
24 19 13 11 35 63 66 51 42 47 40 37 35 35 38 32 34 32 31 28 27 26 23 24 24 25 25 29 30 32 34 34 42 46 49 51 54 49 48 44 48 40 44 45 52
20 16 6 19 39 65 55 37 29 42 37 25 33 31 37 34 29 29 29 27 27 24 25 25 26 25 26 26 28 29 34 37 41 42 47 52 55 57 56 54 58 57 59 47 45
18 12 11 29 46 58 48 38 33 42 37 25 24 25 29 33 30 27 26 26 25 25 26 25 24 23 22 23 27 33 34 38 42 49 51 55 56 59 48 49 48 51 52 48 44
8 10 16 30 60 58 44 31 40 42 32 31 24 27 22 28 30 28 27 26 26 26 26 23 22 18 20 24 29 31 33 37 42 44 48 53 53 51 49 47 44 39 37 36 33
5 3 22 43 63 49 27 41 41 33 29 28 25 29 25 27 28 29 29 26 26 23 20 20 18 18 21 24 28 31 32 36 40 39 46 50 49 40 37 34 31 31 32 30 29
3 5 28 44 50 32 27 36 35 31 26 25 26 29 28 25 24 26 24 22 19 19 18 18 18 16 19 24 23 25 28 33 41 45 42 47 43 38 40 30 30 29 28 34 35
11 23 38 48 34 34 25 29 28 23 22 22 24 28 30 26 24 24 21 17 16 17 17 18 15 18 16 20 22 22 22 31 37 44 40 39 44 24 35 31 30 32 34 36 37
25 31 47 39 38 38 31 24 19 23 20 18 22 26 28 29 28 24 20 16 16 16 15 16 16 18 19 18 22 22 27 31 34 34 41 37 38 35 30 25 18 23 28 35 32
37 35 31 34 35 33 24 20 19 19 20 20 23 25 27 27 25 21 16 16 17 15 15 16 16 14 14 13 15 18 25 26 23 27 35 33 29 29 27 23 19 16 13 17 24
18 24 27 28 30 25 20 19 16 15 17 21 24 26 26 24 22 19 17 18 16 16 15 14 11 8 8 8 11 15 16 15 20 24 26 26 27 29 30 23 21 24 9 17 16

GFSSW_500_spd_036.txt.gz
Wind_Speed
27 29 28 28 30 27 30 30 33 34 35 43 48 49 50 48 48 46 44 45 44 42 44 42 42 42 42 40 40 41 40 40 33 29 25 31 37 41 29 34 32 28 22 34 34
34 31 31 32 29 31 31 32 32 32 33 36 41 45 49 50 49 47 47 46 45 44 44 44 43 44 43 43 44 42 40 37 34 30 32 36 40 41 31 38 35 32 32 33 31
40 39 36 33 35 34 34 34 33 33 32 36 38 40 42 45 47 47 48 47 47 46 47 45 45 45 43 44 44 42 40 37 33 33 36 35 38 35 36 40 35 36 35 36 36
43 44 43 41 37 37 37 37 35 36 34 34 37 39 40 42 43 41 44 45 47 48 48 46 45 45 45 44 42 41 42 40 34 36 34 33 36 38 38 36 38 40 38 38 32
45 47 48 46 46 42 39 39 39 37 38 36 34 38 39 39 41 38 41 42 43 46 46 46 45 45 45 43 42 42 45 41 38 37 32 35 37 37 36 38 37 36 37 35 25
47 47 50 52 50 49 45 42 41 40 37 40 36 37 39 39 39 37 38 41 43 45 46 47 46 45 46 45 42 44 44 43 41 34 34 36 37 39 38 34 36 38 36 33 31
52 51 50 53 54 53 51 48 44 43 41 36 40 39 37 40 37 36 35 37 39 42 45 47 45 45 46 44 43 43 42 44 43 35 35 36 38 37 37 38 36 35 36 30 32
74 72 68 61 59 59 57 53 49 45 44 39 38 41 37 38 37 35 35 36 38 39 41 44 44 46 46 45 44 42 44 43 41 39 38 38 34 33 37 36 33 32 33 31 29
74 71 72 74 68 64 64 58 53 47 44 40 40 37 39 39 35 34 34 35 35 36 38 38 42 43 43 43 43 42 42 42 43 41 40 39 36 35 37 34 30 31 33 30 27
51 45 44 47 53 54 63 63 56 50 45 45 41 37 36 37 37 35 35 33 32 33 34 37 38 40 41 40 37 38 41 43 42 44 41 42 38 37 36 35 33 32 33 31 29
37 21 14 18 25 29 45 60 57 51 39 44 39 38 34 34 36 35 34 31 31 31 33 34 35 34 30 36 36 40 41 40 39 40 41 40 41 39 38 37 33 35 35 36 34
17 6 9 15 16 24 39 50 55 52 48 43 38 39 35 36 35 35 33 30 29 28 30 31 30 28 32 34 35 37 37 36 35 38 42 39 40 40 39 38 38 37 38 38 36
6 5 11 15 20 13 38 48 55 57 50 43 39 37 35 37 36 34 32 29 27 26 26 28 28 29 29 30 31 32 34 33 34 34 35 39 40 38 39 37 36 38 39 40 40
1 10 15 13 11 22 28 46 58 56 55 50 45 40 35 37 35 35 32 30 26 25 24 25 24 25 25 25 26 27 29 27 26 28 31 33 41 35 37 38 42 43 45 48 50
6 13 14 15 18 16 29 54 61 38 46 48 44 39 36 39 35 34 32 28 26 23 21 21 21 22 20 21 22 22 23 24 25 28 31 32 39 40 40 43 49 53 56 58 59
15 18 18 17 16 12 35 66 50 37 36 48 47 40 36 36 35 34 31 28 25 24 21 21 19 18 19 19 20 21 23 25 28 31 35 39 43 39 46 51 54 59 63 66 66
26 29 20 14 10 18 40 52 36 38 35 46 41 35 34 33 33 33 30 27 26 22 21 19 18 19 20 20 20 22 24 29 32 34 37 43 47 43 47 49 53 50 49 55 59
19 27 17 9 8 32 44 40 37 38 23 43 40 36 33 33 33 33 31 29 27 24 21 21 21 20 20 20 22 24 28 30 35 38 41 45 46 46 45 42 45 52 54 53 57
27 15 10 3 18 42 47 36 27 24 27 30 38 34 33 33 30 32 31 28 27 23 21 21 20 19 19 22 24 23 27 30 34 37 44 46 42 41 46 43 43 54 56 58 63
20 18 5 8 27 63 40 30 24 27 32 29 27 30 28 32 27 29 28 27 25 22 23 21 20 21 21 22 25 27 27 30 34 39 40 42 42 42 41 43 47 51 55 57 62
16 14 8 23 55 54 37 32 31 23 28 30 26 21 24 29 25 24 26 25 24 23 22 21 22 20 19 22 24 26 28 30 34 38 40 39 46 49 44 44 47 44 49 50 52
21 13 26 32 47 42 38 35 32 28 29 25 28 24 28 32 28 26 24 24 23 23 23 23 20 17 21 22 25 26 25 30 32 33 39 42 46 37 39 44 49 39 41 42 43
16 18 27 38 42 27 26 36 31 28 22 18 24 27 24 27 29 26 23 23 22 22 20 17 17 19 21 25 24 22 25 24 31 34 30 37 36 34 42 49 46 33 33 36 40
26 36 43 39 31 24 27 31 27 22 22 23 24 26 24 23 25 27 25 22 20 17 16 18 18 20 23 22 20 21 23 28 28 29 34 29 36 34 38 44 38 30 28 29 33
31 41 33 32 28 24 33 28 25 19 19 21 21 26 23 22 21 21 21 18 16 16 16 18 18 22 19 20 20 22 25 23 25 27 30 25 30 33 38 42 43 33 27 28 25
38 29 30 27 29 25 22 24 20 13 16 16 18 21 23 21 19 18 16 16 15 16 15 16 18 12 16 16 16 16 18 18 18 20 23 27 27 33 37 39 42 39 24 23 18
20 23 25 29 25 23 19 15 13 12 12 11 14 18 19 20 20 18 14 15 15 16 15 14 10 11 16 11 10 10 13 11 13 17 25 27 30 30 30 30 27 28 28 10 9

GFSSW_500_spd_039.txt.gz
Wind_Speed
34 37 38 36 36 35 33 32 34 34 40 44 40 49 52 51 50 49 47 46 46 46 45 42 41 41 41 40 40 40 41 35 29 28 22 25 30 35 39 30 29 33 27 30 28
47 37 38 40 41 39 38 36 35 35 36 43 40 41 49 52 50 48 49 49 46 46 48 46 45 45 44 42 42 42 39 33 30 30 29 31 35 38 40 30 27 34 28 29 31
52 49 40 42 42 43 42 39 37 36 37 37 40 40 41 49 52 49 50 49 49 47 48 48 48 47 46 45 44 43 40 37 35 35 35 35 34 38 39 34 27 34 31 34 34
55 50 49 41 46 45 46 44 40 38 35 38 35 39 40 41 47 50 52 50 50 50 49 48 48 49 48 45 45 43 42 42 39 39 38 36 33 34 34 37 33 35 38 32 32
57 50 48 50 45 49 48 47 46 41 37 36 40 38 41 40 40 42 46 49 51 51 49 48 48 48 48 47 47 45 45 43 41 42 41 35 32 33 33 37 33 32 38 36 31
65 62 58 56 54 49 52 49 48 45 41 38 37 39 38 39 39 37 40 43 46 49 49 48 49 49 48 48 47 47 47 45 42 40 41 36 32 36 35 34 33 36 37 36 32
77 72 70 64 64 59 55 53 50 47 45 40 38 39 37 37 37 38 39 40 41 43 43 44 47 48 47 46 46 46 45 42 39 38 41 41 38 38 35 37 36 37 37 37 33
67 59 55 51 52 64 63 58 52 49 47 44 39 39 35 38 36 36 37 36 37 38 40 42 42 43 45 46 46 45 45 44 37 41 42 42 37 36 37 37 37 37 36 36 33
57 43 40 38 38 40 54 66 57 51 47 44 43 38 36 38 34 35 37 36 36 35 36 37 40 41 44 45 46 46 44 43 40 42 43 42 41 38 40 38 37 36 34 34 34
40 33 25 19 20 27 31 59 66 55 47 43 47 40 35 32 36 34 35 35 34 34 34 32 35 38 43 45 42 39 44 45 44 45 46 44 42 39 40 39 35 36 35 36 35
32 21 3 7 12 11 18 37 62 60 50 48 46 39 37 33 34 36 33 33 32 32 33 34 36 38 34 35 38 42 43 43 43 43 44 42 40 40 40 40 38 39 37 37 37
19 2 3 10 15 14 15 26 48 57 52 48 44 40 35 32 32 34 35 30 28 28 29 32 34 28 29 34 37 41 39 35 37 40 43 41 40 41 41 40 41 40 39 39 40
13 3 7 13 13 18 21 15 41 51 51 47 44 41 34 32 32 32 32 30 29 28 25 27 28 28 32 33 30 31 33 34 35 34 35 38 38 37 40 40 41 42 42 42 43
21 15 14 13 12 13 18 9 41 55 53 47 44 41 35 35 33 34 34 32 31 29 27 27 28 27 28 27 25 27 28 26 26 27 30 35 40 32 37 39 41 40 44 43 44
28 28 27 22 19 14 14 23 43 52 46 52 45 40 35 34 30 33 33 32 29 27 24 23 24 24 23 23 23 22 21 20 23 25 26 27 36 34 31 32 36 40 43 46 46
27 25 23 25 11 8 8 39 38 44 33 42 44 40 38 34 31 33 32 28 28 26 24 24 23 21 20 20 19 17 18 19 20 22 25 25 30 35 31 35 40 45 48 51 54
28 29 25 15 10 6 27 45 34 39 33 45 47 42 34 29 30 29 27 27 26 24 21 19 18 19 19 18 16 16 17 19 21 23 24 28 30 29 35 41 44 48 50 52 55
25 21 14 8 2 23 56 46 42 21 30 40 42 37 31 28 29 30 30 29 27 23 22 20 20 20 18 16 17 16 17 20 22 24 28 31 33 34 37 43 45 46 44 45 47
20 14 9 11 21 40 50 20 23 27 33 43 42 36 34 29 28 30 29 27 25 22 20 20 20 18 17 17 16 15 18 21 25 28 30 32 34 36 38 37 37 42 47 50 52
23 11 10 32 47 45 31 37 22 23 29 41 40 35 28 27 26 29 28 26 24 21 22 20 18 18 17 16 17 19 20 22 24 29 32 34 34 31 31 33 38 42 46 48 50
19 21 40 53 43 43 38 26 18 32 32 33 32 27 24 24 26 25 26 26 24 23 22 20 18 16 17 19 18 17 19 22 25 28 32 31 28 26 30 34 38 42 45 49 50
34 46 49 42 41 39 34 31 32 31 33 31 28 27 23 22 25 22 25 24 23 22 20 19 17 17 17 16 17 18 21 23 23 27 26 29 22 21 26 31 35 37 39 46 45
43 47 43 39 42 38 34 27 30 31 28 27 25 27 27 29 28 23 23 24 23 22 19 16 16 16 16 16 17 19 21 23 26 25 23 27 24 26 34 35 40 45 47 44 46
45 34 31 32 32 31 32 22 22 26 26 26 22 22 24 28 25 21 22 22 21 18 17 16 15 15 16 16 17 16 20 24 23 25 19 18 24 25 32 37 43 48 43 32 39
27 21 25 26 25 26 25 19 16 17 17 18 22 19 21 23 27 21 19 18 16 15 13 13 15 16 17 16 14 16 19 19 19 19 20 18 23 26 32 37 39 42 35 25 37
15 16 21 22 25 25 20 18 15 14 12 11 16 17 18 20 21 21 19 16 14 13 14 14 14 11 15 12 13 13 12 14 14 13 15 18 20 24 27 31 35 38 41 27 16
15 15 19 20 22 23 20 17 14 12 10 9 8 14 15 16 17 18 17 15 14 14 13 13 10 10 13 11 9 10 10 5 6 9 15 15 22 22 21 29 30 32 26 24 18

GFSSW_500_spd_042.txt.gz
Wind_Speed
43 46 44 43 40 39 39 41 39 38 38 41 40 43 49 56 57 56 53 52 51 50 49 45 40 38 41 43 43 43 45 42 34 31 24 29 31 33 34 33 30 31 29 28 29
50 50 49 50 46 43 42 44 44 41 39 38 39 42 51 47 56 54 55 54 52 49 51 47 44 42 41 42 44 44 45 39 33 30 30 34 38 37 37 34 29 29 29 30 29
57 57 57 56 55 50 44 45 47 46 41 40 40 41 43 45 48 54 55 55 54 51 51 51 49 46 45 46 45 45 43 37 33 32 36 37 37 38 39 37 27 27 29 33 33
62 66 67 63 60 54 49 46 48 49 45 41 38 42 41 48 44 50 56 55 54 53 51 50 51 49 47 46 45 45 43 39 37 37 36 37 38 39 40 35 26 25 29 31 33
73 71 69 68 61 57 54 52 49 50 48 44 40 40 41 40 41 43 52 54 51 53 52 50 49 50 50 49 49 48 46 44 42 42 41 37 36 38 38 37 32 26 32 33 34
73 71 65 63 59 61 63 59 55 51 48 46 42 42 40 37 42 40 45 50 53 51 51 51 48 49 49 51 51 50 49 47 44 41 41 39 35 36 36 40 39 31 33 36 35
68 59 56 43 41 41 56 64 61 55 50 46 44 42 38 41 38 40 41 43 47 51 51 49 49 50 47 48 49 51 49 48 45 42 44 45 39 36 38 44 43 35 33 34 35
58 56 39 30 29 31 37 47 63 60 51 48 46 44 40 40 39 38 38 39 40 43 45 49 50 50 48 50 49 49 49 48 43 45 46 46 37 38 39 43 44 39 36 36 34
50 42 27 19 17 17 23 33 57 59 52 49 46 45 40 39 37 37 37 37 38 38 39 41 45 48 48 49 48 49 49 47 44 45 45 46 41 39 43 44 43 42 37 37 36
39 32 12 4 7 9 12 19 36 62 53 50 45 41 39 36 36 35 36 36 36 36 36 35 37 41 43 46 46 46 46 47 46 46 45 45 43 39 40 42 42 42 41 39 36
39 29 11 12 14 12 10 9 26 53 54 51 47 43 36 38 37 36 36 36 35 33 34 34 37 39 40 37 42 43 45 45 44 44 45 43 44 40 37 42 44 43 42 42 38
33 29 18 15 13 10 15 12 14 50 55 50 43 40 36 37 36 34 38 33 33 33 32 34 33 32 28 31 35 40 42 41 41 43 44 44 43 41 39 40 43 43 43 42 40
31 27 18 18 17 16 17 17 10 50 56 48 46 39 36 36 35 32 36 31 31 30 29 30 28 28 29 32 33 35 36 35 37 40 40 41 42 39 38 39 40 41 43 44 43
30 29 27 20 15 21 19 15 18 54 57 54 52 45 39 31 34 31 29 35 30 29 29 29 28 28 30 32 29 31 31 31 31 34 38 38 41 31 34 35 36 38 39 41 43
28 27 21 25 20 11 8 6 34 56 57 51 41 43 40 38 32 30 31 29 34 30 26 26 24 24 26 27 26 26 25 24 25 28 31 29 36 28 27 31 31 32 37 41 43
28 23 20 17 7 5 2 30 44 48 51 49 46 41 38 34 32 31 30 32 31 31 30 26 23 22 24 26 25 22 22 22 22 21 26 21 29 29 22 26 30 35 37 39 42
26 16 15 6 2 5 35 48 38 39 37 53 41 40 36 32 33 30 30 31 30 27 25 22 21 20 21 22 21 19 20 20 19 18 16 17 23 24 26 28 32 37 40 43 46
22 12 6 6 11 48 55 45 26 34 38 49 43 39 35 32 30 26 27 27 26 24 20 18 20 22 23 22 21 21 19 17 16 16 17 20 22 24 30 32 35 40 43 46 50
20 17 13 27 52 38 40 25 25 38 28 44 41 36 35 31 26 26 28 28 25 22 21 21 21 20 20 19 19 17 17 16 16 19 20 21 23 26 28 33 39 41 42 42 45
37 50 57 53 42 34 26 28 29 34 29 43 40 37 32 28 25 26 25 25 23 23 21 21 21 21 19 18 17 16 15 15 16 20 21 22 24 23 24 27 30 35 39 42 46
53 43 39 41 36 31 26 26 27 28 36 40 37 32 27 22 22 22 25 24 24 23 23 22 21 18 16 18 17 15 14 15 17 20 24 23 18 17 21 24 27 32 37 41 44
34 34 37 36 39 35 33 27 30 27 32 34 28 25 23 20 19 25 22 24 24 23 21 18 18 19 19 15 13 13 15 17 20 20 19 23 10 19 25 25 30 33 36 40 47
34 29 29 28 29 28 26 29 26 29 29 27 23 23 21 21 23 25 21 23 22 21 18 17 18 17 15 14 14 15 17 18 18 18 16 23 20 22 21 23 26 33 38 41 47
20 26 23 27 23 25 25 23 26 26 26 24 20 21 22 20 23 18 19 21 20 19 18 17 15 14 13 14 14 14 14 17 16 17 16 22 12 19 22 24 27 33 36 40 46
12 8 8 12 23 23 22 20 19 21 20 15 16 17 19 17 22 19 18 19 18 17 15 13 12 13 15 15 13 13 16 15 15 15 14 14 16 14 19 20 25 33 33 39 46
8 6 5 9 3 16 19 19 20 16 14 15 13 14 18 22 22 18 17 17 16 15 13 13 14 14 15 11 12 12 14 12 10 8 7 6 9 20 19 18 26 31 31 36 42
4 10 11 10 13 9 16 14 13 14 12 12 11 11 12 16 20 18 16 16 15 14 15 15 14 12 12 11 11 11 9 7 2 5 6 8 14 18 19 19 22 26 29 31 34

GFSSW_500_spd_045.txt.gz
Wind_Speed
41 44 46 46 49 50 51 46 42 38 43 43 40 41 49 51 58 57 55 55 53 51 49 45 43 45 51 53 54 53 52 48 42 36 33 39 41 41 37 33 34 35 29 29 31
48 50 52 58 59 60 57 57 50 45 44 47 44 42 42 48 50 54 56 59 57 52 50 49 46 43 44 46 51 54 52 47 43 35 37 41 43 42 39 38 35 33 30 29 31
57 59 64 67 73 71 66 64 59 51 50 50 46 43 40 44 52 48 56 58 59 55 52 51 50 47 44 44 46 48 47 43 39 37 39 41 43 43 41 39 33 29 29 29 29
65 69 73 73 70 69 69 65 61 55 55 53 48 43 42 40 43 47 50 57 58 57 55 52 51 50 47 44 43 43 43 40 36 38 40 43 45 43 42 37 34 28 29 29 29
73 76 73 64 63 59 55 57 59 56 57 54 49 44 38 41 41 41 48 51 57 56 55 53 50 50 49 47 46 44 43 40 38 40 41 42 42 40 38 37 39 33 31 32 34
79 76 70 57 46 37 36 41 54 60 57 55 50 49 46 40 44 41 44 44 54 54 53 53 51 49 50 50 49 47 46 43 42 42 43 41 39 38 36 39 41 36 36 38 36
80 71 55 45 28 23 27 33 45 61 59 57 51 50 48 42 41 40 41 43 46 52 50 51 50 49 48 49 51 51 48 47 45 43 43 43 40 37 37 41 43 41 38 39 37
72 55 43 31 16 15 17 21 29 50 61 57 51 50 48 41 39 38 39 42 42 46 49 49 49 48 47 48 49 52 50 49 45 44 46 47 40 41 41 41 43 44 42 38 37
58 45 38 27 15 13 17 15 16 37 58 56 51 50 48 40 37 37 39 39 39 41 45 46 47 47 48 49 48 50 50 49 46 47 47 46 42 40 43 43 43 45 42 40 38
50 37 35 24 17 15 13 14 9 30 54 54 50 49 44 39 38 38 39 42 38 39 39 42 44 49 48 49 49 47 46 44 43 45 46 45 44 40 41 42 43 45 45 42 40
46 30 28 20 16 10 12 14 6 21 51 52 49 45 43 41 44 37 36 40 38 39 38 39 36 44 45 46 46 47 48 47 46 46 46 43 45 40 38 42 44 45 46 45 43
40 28 24 22 23 18 15 13 12 19 52 51 48 45 43 36 33 39 33 38 37 34 35 34 35 39 34 41 42 45 46 46 45 45 46 43 42 41 39 40 42 45 45 44 44
35 28 22 23 20 17 15 15 11 24 54 50 47 41 37 36 37 35 28 37 33 33 31 33 31 34 31 33 33 41 40 40 37 38 40 41 42 40 36 39 40 41 43 44 42
29 23 24 18 18 20 15 11 7 39 54 49 47 42 37 37 37 33 30 33 34 34 32 31 32 32 33 33 33 31 30 31 34 37 38 38 41 32 35 36 36 37 39 41 44
29 24 25 17 14 11 7 8 13 53 53 50 44 39 33 32 34 34 31 33 33 31 31 31 29 31 30 31 31 30 28 28 28 32 36 34 39 26 29 30 30 32 35 38 39
26 16 9 10 9 10 9 8 41 52 45 45 44 35 37 33 34 31 30 27 35 31 30 28 26 26 25 25 26 25 25 25 27 27 32 26 33 29 20 25 25 25 27 31 34
24 16 10 5 5 5 19 38 50 60 52 47 39 41 40 31 32 31 26 28 38 35 31 27 26 22 22 24 23 21 22 24 25 25 23 20 25 22 18 18 22 27 30 34 36
32 24 28 29 41 42 43 34 44 44 35 41 44 38 38 34 32 31 28 25 24 29 23 19 21 21 21 21 22 24 25 24 20 19 16 17 20 19 19 21 25 30 34 36 39
53 47 48 49 42 35 31 31 38 47 44 39 43 39 36 34 30 29 27 26 27 22 22 24 24 25 25 23 22 21 21 19 18 18 18 18 17 18 20 26 29 30 33 36 39
35 37 28 31 33 35 34 36 26 45 41 34 36 36 31 28 26 24 25 25 24 25 24 23 22 21 21 19 20 20 20 17 17 19 18 16 15 17 23 26 30 32 32 32 32
38 30 21 24 24 28 22 32 26 30 38 33 31 27 25 23 22 22 23 24 23 23 22 21 20 18 19 20 19 18 17 17 16 17 17 16 13 18 21 24 26 29 30 32 36
23 29 25 16 13 17 18 25 20 24 32 25 25 25 19 17 17 20 20 21 22 22 19 18 17 17 19 17 16 15 14 15 17 16 16 19 14 16 21 22 26 27 28 30 35
17 20 22 24 18 13 15 17 22 21 27 24 23 20 18 17 18 18 20 20 20 18 18 18 18 19 17 15 14 14 15 16 16 16 16 20 16 22 21 21 24 26 26 29 36
15 19 24 21 20 19 15 19 22 19 21 20 19 18 18 17 17 19 15 17 18 19 19 18 17 16 14 14 14 14 15 14 14 17 16 18 11 20 19 19 23 24 24 30 34
4 7 9 18 17 15 16 20 19 18 20 16 18 16 16 14 15 17 15 17 17 17 18 15 15 13 13 13 14 13 15 15 14 16 12 14 14 15 16 19 20 20 27 30 32
8 10 3 4 9 9 11 14 15 15 13 12 11 13 15 15 20 16 16 16 16 14 15 15 13 14 13 13 13 14 16 13 12 13 9 10 12 13 16 17 15 20 27 27 31
12 11 12 11 10 1 6 9 9 9 7 8 7 9 11 15 18 14 14 15 15 14 14 14 14 14 13 12 14 16 13 11 10 10 8 7 9 11 12 9 14 18 27 25 21

GFSSW_500_spd_048.txt.gz
Wind_Speed
49 49 49 50 50 50 52 55 54 53 55 51 46 43 44 43 50 55 56 54 57 53 53 49 50 53 53 52 52 51 51 49 44 40 36 38 42 43 40 35 36 38 34 32 33
54 54 55 57 60 61 64 64 65 67 64 58 53 48 48 45 44 48 55 57 57 55 51 50 48 49 52 54 53 53 51 46 42 40 38 39 42 42 39 37 38 37 34 32 30
60 61 64 67 71 68 72 67 70 70 67 64 59 55 52 47 43 44 55 56 56 55 54 52 51 49 49 49 53 53 50 46 45 43 39 40 42 42 41 39 38 36 34 32 30
66 70 74 72 72 65 63 63 61 66 63 64 63 60 54 51 47 46 50 54 54 55 55 53 50 48 46 46 46 47 48 49 47 47 44 44 45 44 43 39 39 37 36 33 29
73 78 76 71 58 55 53 46 35 42 56 64 64 60 55 47 47 47 47 52 48 52 53 52 49 47 47 45 43 43 44 41 38 40 43 45 46 46 44 41 41 37 35 35 32
80 82 70 54 48 46 35 26 23 28 47 62 63 59 55 54 46 48 46 47 48 45 50 52 53 49 48 46 45 44 42 39 34 34 38 44 47 47 43 41 40 39 36 38 37
83 76 54 45 38 32 19 19 21 24 35 59 62 58 55 51 44 42 42 40 44 42 45 48 53 50 48 46 48 48 45 42 37 35 40 44 46 45 41 42 42 41 38 39 40
83 58 41 36 29 24 18 18 17 21 27 53 60 56 54 49 40 38 40 35 35 47 43 47 47 50 49 48 47 49 47 45 40 37 40 44 43 45 43 41 41 42 40 39 39
78 45 34 23 23 19 18 15 17 13 22 47 55 52 51 47 42 36 37 37 33 43 43 43 45 48 49 49 47 48 48 46 43 41 41 43 42 43 43 41 42 42 42 38 37
68 37 27 18 19 19 17 15 18 16 20 43 52 52 49 45 36 36 38 34 33 36 40 43 42 46 49 50 49 48 47 46 43 43 42 44 45 40 41 42 42 43 44 44 42
53 32 21 18 19 19 21 18 18 15 18 45 51 49 49 49 45 33 36 31 36 35 26 39 38 45 45 45 45 45 45 45 44 43 44 43 45 40 40 43 42 42 44 45 44
46 25 16 19 18 18 15 13 14 14 23 47 50 48 44 45 41 31 33 32 33 40 35 30 41 33 43 45 45 46 44 42 41 41 42 41 43 40 37 40 42 42 44 45 44
38 27 18 14 13 15 17 13 13 8 33 47 47 44 41 40 43 22 35 30 35 38 34 34 31 36 27 36 41 41 42 41 40 39 41 40 41 39 36 38 39 40 41 43 44
36 27 17 17 12 13 11 8 4 6 46 47 43 39 40 35 41 30 27 24 36 39 37 30 26 31 24 21 33 40 41 37 38 39 40 39 39 33 36 37 38 38 39 41 41
55 28 14 19 12 10 11 4 5 36 48 46 43 39 38 36 33 38 29 22 33 32 35 35 31 32 20 25 29 31 33 31 33 33 35 33 36 23 31 34 33 33 34 37 39
63 51 27 15 10 10 6 9 31 42 42 46 41 33 37 39 27 30 32 23 33 34 32 31 31 31 34 27 34 30 27 27 27 27 30 27 30 24 25 28 29 30 31 34 38
66 57 54 46 31 28 30 39 42 42 46 47 30 30 35 33 31 27 27 23 34 35 36 32 29 31 31 29 28 25 26 26 24 25 26 22 24 24 18 24 26 28 31 33 34
51 57 45 38 28 32 40 46 43 44 40 36 29 31 31 30 31 29 26 18 24 31 26 26 26 25 25 27 25 25 26 25 24 22 21 16 21 20 19 18 25 28 29 31 33
46 48 51 34 23 33 44 45 32 30 43 29 30 28 26 32 29 27 24 17 27 29 22 20 22 23 23 23 22 22 22 21 19 18 18 17 18 18 20 21 23 26 28 30 32
43 42 39 41 28 43 45 24 28 34 27 31 39 31 28 26 26 25 24 21 23 29 31 26 25 21 20 20 20 21 20 19 18 19 18 16 15 17 21 24 24 23 25 28 31
33 34 36 32 30 21 26 18 27 27 24 26 24 25 20 17 18 19 18 17 17 19 19 18 19 20 20 19 18 21 22 22 20 18 16 13 15 18 21 23 23 25 28 28 28
35 33 32 29 20 17 8 9 17 18 19 21 19 18 14 15 15 16 17 20 16 16 17 17 18 18 19 21 21 21 18 17 16 14 14 13 15 17 20 20 23 24 24 26 27
21 26 32 30 22 12 11 14 12 21 18 19 17 16 16 15 15 18 19 19 19 18 16 17 17 18 17 15 15 14 15 15 14 13 11 15 17 17 19 18 20 20 22 26 25
13 19 22 22 26 16 13 13 13 14 15 15 17 16 14 14 17 17 18 17 17 17 17 18 17 16 14 13 13 14 14 13 12 12 14 17 15 20 14 13 17 19 22 19 23
11 9 13 15 17 18 12 9 15 14 14 13 11 12 12 12 13 14 15 17 18 17 17 15 14 13 13 13 13 13 12 11 12 15 13 18 13 16 15 14 18 20 17 17 22
14 10 9 9 8 10 9 7 9 10 9 10 10 9 12 13 13 17 14 17 17 16 15 15 13 13 12 12 12 12 12 13 14 14 14 13 14 11 13 17 19 16 15 18 22
9 10 6 8 8 2 3 8 7 7 6 8 9 11 11 12 13 14 11 14 16 15 16 15 14 13 11 12 12 13 13 14 14 13 12 11 10 12 15 15 17 17 19 19 21

GFSSW_500_spd_051.txt.gz
Wind_Speed
49 52 53 53 53 54 55 53 55 55 55 58 59 57 52 47 46 46 55 51 57 56 53 53 56 54 53 53 53 52 52 49 43 41 39 41 41 42 41 37 37 34 30 29 31
55 56 57 60 62 64 66 65 66 66 66 66 67 64 60 55 48 43 46 56 54 57 54 51 54 52 54 52 54 54 52 46 41 42 40 41 43 44 42 38 36 36 33 30 32
59 62 64 67 72 72 70 65 62 65 68 68 72 71 67 60 54 44 51 52 56 55 55 54 50 52 51 55 52 53 50 46 44 44 42 43 44 45 44 39 38 38 33 31 31
64 68 72 76 77 70 54 52 54 57 61 66 73 73 71 64 61 52 52 51 53 51 55 55 51 49 55 56 52 51 51 49 45 44 44 44 46 47 46 40 39 38 34 32 31
69 74 79 80 61 44 44 41 43 33 34 42 61 69 67 67 61 55 52 52 50 47 50 49 52 48 49 52 48 48 49 49 46 45 45 45 46 47 44 42 39 38 37 34 33
76 81 81 64 38 35 35 32 24 23 27 34 34 56 67 67 60 59 47 49 47 47 54 49 50 49 47 49 45 46 45 44 45 46 47 46 46 47 43 44 41 39 39 38 35
82 80 63 34 29 31 24 22 17 18 21 28 32 46 64 63 57 54 47 46 44 42 50 47 48 51 47 48 47 47 45 41 37 38 41 44 45 46 46 47 45 42 41 40 36
76 73 41 24 26 17 19 19 15 17 15 22 26 41 57 60 53 45 40 43 43 37 47 49 46 50 51 50 49 48 46 44 37 35 36 37 37 42 46 47 45 43 41 41 38
72 61 35 25 16 14 17 18 15 19 19 16 24 40 55 55 52 45 28 40 40 34 42 46 48 50 51 49 47 50 46 43 40 37 35 35 34 39 43 44 44 42 41 39 37
75 53 31 18 14 15 19 19 18 18 17 8 23 46 53 51 51 41 37 36 38 36 44 38 46 50 51 55 48 45 47 42 42 40 37 35 37 38 41 41 42 42 41 41 40
74 51 30 19 16 14 15 15 15 15 18 8 34 48 51 49 43 46 34 41 32 28 37 44 39 44 44 46 52 45 45 44 42 40 40 38 39 36 38 39 40 42 43 43 44
77 60 28 17 18 11 10 11 10 15 9 24 43 45 49 51 46 42 37 37 27 28 33 32 31 38 41 44 47 48 45 44 42 40 39 39 40 36 37 39 41 42 43 43 44
73 65 30 17 16 13 12 8 10 6 11 44 44 44 49 49 42 33 38 38 29 29 34 33 33 37 40 44 45 45 44 42 41 39 39 38 40 36 37 40 41 40 40 42 43
69 66 46 17 10 8 15 9 6 13 42 48 44 44 46 48 37 34 41 37 25 32 38 31 36 34 27 35 40 39 39 38 38 39 39 39 39 33 36 37 38 39 39 40 40
62 60 50 25 8 6 14 9 25 38 49 45 42 40 39 40 35 18 42 31 25 27 33 32 23 32 28 21 35 37 38 36 37 38 38 37 37 33 35 35 35 36 37 39 39
58 50 46 39 25 20 22 37 42 46 44 39 38 39 37 37 36 17 29 21 18 23 27 25 24 34 37 25 20 29 35 37 37 36 34 34 34 30 31 32 31 31 32 34 36
55 44 39 33 30 36 42 45 47 49 42 36 37 38 29 36 32 26 21 19 20 26 18 20 23 24 26 24 27 26 27 27 29 32 31 29 29 27 25 27 28 28 30 32 34
49 48 39 40 42 40 41 41 45 42 45 35 32 32 27 30 30 28 23 18 21 27 32 20 26 29 32 28 22 27 27 26 25 24 23 22 24 22 20 24 26 27 29 30 32
42 45 38 43 41 30 25 38 41 37 31 29 30 30 27 22 24 27 21 13 19 30 28 22 23 23 26 29 26 22 23 23 23 22 22 19 21 19 19 21 22 23 25 27 30
42 28 34 26 31 30 21 32 29 20 23 30 27 25 21 23 23 22 20 13 18 25 26 24 25 24 25 26 26 24 23 21 20 20 18 17 19 18 18 20 21 20 24 28 29
32 28 26 22 21 20 21 23 24 18 16 18 18 15 18 14 16 17 17 13 15 23 27 25 23 22 24 21 20 21 22 21 21 20 18 17 17 18 20 21 19 19 23 25 28
22 27 22 17 12 10 14 9 14 19 19 14 15 15 14 13 14 15 13 14 12 21 26 23 21 19 18 19 18 18 19 18 17 15 15 16 16 18 21 19 18 21 25 26 24
15 17 22 20 9 9 5 10 8 10 11 10 12 11 12 12 13 13 12 16 14 19 19 17 17 17 18 19 20 19 19 19 17 15 13 14 16 16 18 17 21 22 23 20 21
12 10 13 18 15 10 7 8 9 9 10 11 12 11 12 11 11 13 13 18 16 12 17 15 15 14 13 14 16 17 16 15 13 11 13 15 15 17 16 16 20 19 18 18 18
8 7 8 9 11 10 7 8 9 9 10 10 10 10 9 9 11 13 17 15 18 16 15 14 14 15 15 14 15 15 14 12 12 12 13 15 14 15 15 15 16 16 17 18 19
11 6 3 1 5 6 7 10 10 10 8 8 9 10 11 10 11 13 17 16 16 16 15 15 16 15 16 16 15 14 12 12 13 14 15 13 14 15 15 14 13 16 19 20 20
9 8 7 5 5 1 4 6 9 8 7 7 9 9 10 12 9 11 12 15 15 15 15 16 15 14 14 14 13 12 12 12 12 12 13 13 13 13 13 13 14 18 21 23 23

GFSSW_500_spd_054.txt.gz
Wind_Speed
45 47 49 53 56 58 57 58 59 60 58 59 59 59 59 57 54 48 43 48 56 58 59 56 57 57 57 53 52 52 53 53 45 44 43 43 44 43 41 40 38 35 31 30 28
50 52 55 58 61 64 67 70 70 70 69 67 67 67 67 64 61 54 44 48 56 57 59 58 54 59 58 59 53 54 52 50 45 43 43 43 45 44 43 42 39 36 34 32 29
55 57 60 65 69 74 77 77 71 66 64 65 70 74 75 71 67 60 52 54 54 56 56 59 58 56 61 60 54 52 51 50 45 43 44 46 47 45 45 44 41 39 37 33 31
59 62 66 67 69 69 63 54 49 49 55 61 67 73 76 76 72 65 59 56 54 56 55 58 59 58 56 59 58 50 50 49 47 44 45 47 49 47 45 46 43 41 38 35 32
63 66 70 74 63 44 38 34 34 34 37 48 59 66 77 76 74 68 63 57 55 52 54 54 57 58 52 57 58 55 51 49 48 45 46 49 51 48 44 46 44 41 39 35 32
64 69 72 70 39 27 22 16 23 24 25 30 35 43 60 71 70 73 57 57 54 51 52 51 55 55 53 50 50 59 53 46 48 46 47 50 51 50 46 46 44 43 41 38 35
65 70 74 55 30 26 21 20 14 16 16 18 23 33 36 50 66 65 57 49 51 49 45 50 53 56 54 48 44 52 53 49 46 46 47 49 50 49 46 47 46 45 42 41 37
66 68 68 40 26 21 13 9 14 15 15 16 18 26 31 44 61 58 44 49 51 45 45 48 50 54 56 52 51 48 48 50 39 41 46 47 46 49 47 47 46 46 44 42 40
70 68 62 33 21 18 13 13 14 18 15 15 12 23 26 45 53 58 46 50 45 44 44 48 51 51 55 56 52 49 45 50 39 39 40 44 46 47 46 46 47 47 46 44 43
71 69 56 27 16 15 13 15 14 14 11 12 9 18 26 49 57 57 43 47 41 43 41 46 46 50 55 55 49 44 41 44 38 38 38 38 39 40 40 42 43 44 45 45 42
73 71 53 21 14 15 12 9 10 9 12 14 14 25 40 51 49 48 46 42 42 40 41 38 38 37 49 52 52 46 41 41 42 39 39 39 38 37 36 37 37 39 42 43 43
68 68 52 16 14 13 12 10 11 11 8 5 29 45 46 49 53 44 46 43 45 39 36 40 39 37 48 53 52 48 45 43 44 41 39 38 38 37 36 35 35 36 38 41 43
65 58 50 19 12 11 14 7 7 5 22 40 45 46 49 58 46 38 38 35 35 33 31 38 35 34 41 51 51 51 46 41 40 41 37 36 39 38 37 34 34 36 38 40 41
57 52 43 31 19 14 15 12 27 47 55 46 44 36 43 46 43 46 42 18 27 28 28 36 36 34 40 48 49 50 49 49 41 40 39 38 39 38 37 36 36 37 38 39 40
53 49 43 38 29 25 30 47 52 55 45 34 42 42 45 45 44 40 36 21 25 30 27 29 31 31 39 39 43 46 46 48 45 41 39 37 37 36 34 34 35 36 37 39 39
54 51 48 45 39 36 41 47 43 46 32 49 33 37 39 39 43 43 39 32 30 24 35 24 30 30 31 34 38 39 40 42 40 40 40 38 37 37 35 34 34 34 36 38 39
44 42 42 44 41 41 41 39 36 40 32 37 29 44 41 38 27 33 31 25 17 20 21 27 22 28 34 32 32 39 38 40 41 38 39 37 36 38 36 35 34 34 35 36 36
33 36 33 30 34 36 36 31 32 37 36 33 30 34 34 20 26 35 24 19 19 14 23 24 25 25 26 25 27 29 35 40 41 41 38 35 35 35 33 32 32 32 32 31 30
26 27 27 24 32 35 33 26 30 27 34 28 27 30 28 26 23 21 12 12 20 25 25 19 24 28 23 27 26 28 25 29 31 34 31 31 31 29 29 28 29 28 28 28 30
26 19 21 19 22 20 24 24 24 22 22 21 21 25 20 17 16 14 14 9 16 25 24 22 20 24 28 29 25 22 21 23 26 26 24 25 25 24 24 25 27 26 26 26 27
17 19 12 13 15 15 10 14 18 18 19 19 17 16 16 15 18 15 10 7 13 24 26 22 21 23 27 29 24 24 20 22 24 24 23 21 25 22 23 25 24 23 23 24 25
10 13 14 4 11 12 9 11 15 16 18 15 13 15 15 14 15 15 14 10 11 16 20 21 20 21 24 24 23 22 23 23 24 22 19 21 22 24 25 25 20 22 22 23 23
5 8 12 12 7 9 7 8 9 12 14 12 11 10 12 12 12 11 12 13 14 20 21 19 15 15 17 21 20 18 18 21 20 20 21 22 23 24 23 18 20 21 22 22 23
5 3 6 9 1 9 9 6 9 8 7 9 8 9 9 10 10 10 10 13 15 17 19 24 22 21 20 18 20 20 18 17 18 19 20 23 22 22 19 19 20 21 22 20 19
5 5 2 3 4 5 8 10 7 8 9 9 8 7 8 8 8 8 10 14 13 15 18 18 18 17 18 18 19 19 19 17 19 22 21 20 19 18 18 19 20 20 19 19 20
9 8 7 6 5 5 7 10 12 11 10 11 11 10 9 8 8 9 12 11 14 16 17 15 17 17 17 18 16 18 18 19 19 17 19 18 19 18 19 18 16 16 17 16 18
13 11 10 11 10 8 9 11 11 12 12 11 11 11 11 10 9 10 12 15 16 16 15 16 18 19 18 18 18 16 16 17 17 18 17 17 17 17 15 15 14 14 16 18 19

GFSSW_500_spd_057.txt.gz
Wind_Speed
39 41 45 48 51 53 56 59 62 66 67 65 62 62 61 59 57 55 50 46 47 51 57 56 56 57 55 56 56 54 61 58 52 46 43 47 46 43 43 43 36 38 40 33 29
42 45 49 52 56 60 65 68 73 76 77 74 71 69 68 65 62 59 55 51 47 49 54 56 57 58 57 57 58 55 54 53 44 45 45 49 41 45 43 42 40 38 38 36 33
46 50 52 54 59 59 62 69 71 72 76 79 78 76 73 71 68 60 60 54 52 49 51 57 58 60 59 58 58 55 54 45 50 49 44 46 43 48 45 46 42 41 42 37 34
53 55 57 61 64 63 67 54 43 36 44 49 54 61 71 75 70 69 64 59 57 53 51 54 58 60 60 59 56 57 54 53 55 47 42 44 45 48 45 48 48 45 39 39 36
58 58 61 66 63 56 40 34 26 20 21 29 39 48 61 67 71 73 69 63 61 56 50 51 56 58 57 56 58 56 59 53 54 44 44 47 48 44 47 50 46 44 42 40 38
61 65 67 63 56 38 29 28 20 11 13 18 24 32 48 61 61 74 73 66 62 58 53 49 51 54 57 59 54 58 58 57 51 45 45 47 51 49 45 49 46 46 43 42 39
65 71 70 61 39 31 23 23 19 13 11 16 19 25 33 43 59 62 74 68 61 57 53 49 52 54 57 58 57 54 59 57 51 45 46 48 50 50 49 47 47 46 45 43 39
68 71 61 53 28 22 20 15 8 9 15 12 15 18 21 30 48 55 52 54 59 58 53 49 50 54 56 57 58 56 55 56 52 44 43 48 47 51 49 50 49 47 46 44 40
68 63 52 41 21 15 15 10 12 13 15 13 15 14 19 23 35 54 44 43 49 56 51 48 46 55 54 56 57 57 52 51 52 44 41 42 48 51 49 48 48 48 46 45 43
66 60 48 27 15 15 15 12 11 13 14 14 11 9 17 23 37 55 64 45 47 48 52 46 46 46 49 56 58 53 48 45 45 45 43 43 46 50 47 45 46 47 46 45 44
63 59 47 24 17 15 19 11 9 9 9 12 11 13 18 25 45 51 52 48 44 46 47 45 46 41 40 51 51 54 48 44 41 45 47 43 43 46 44 45 45 45 46 45 44
60 59 47 32 20 16 19 12 7 10 10 9 12 22 32 46 57 40 48 46 40 42 43 40 38 34 44 49 54 52 49 46 41 39 42 42 41 41 38 41 42 41 40 43 44
57 58 51 38 26 19 15 12 12 13 17 25 32 39 42 24 45 47 50 42 36 35 37 38 34 39 41 47 52 52 48 47 42 36 42 41 39 40 37 36 35 34 35 36 37
51 55 49 42 37 41 45 45 46 44 45 47 58 46 31 34 54 51 36 32 45 37 36 36 32 31 40 41 52 53 50 49 42 39 39 38 38 40 38 36 33 34 34 34 34
43 45 43 43 44 52 54 44 39 32 30 20 30 22 46 34 40 43 31 31 33 34 30 30 31 32 31 36 49 52 49 47 45 42 38 39 38 42 37 36 35 34 34 34 34
36 36 35 37 29 29 38 36 25 24 34 30 29 19 22 38 51 42 35 31 34 31 29 30 32 30 30 37 46 48 48 46 43 42 40 36 37 41 37 36 35 38 35 34 35
27 29 30 27 27 17 24 28 27 33 34 30 29 30 24 49 44 20 31 27 28 26 20 25 33 37 31 32 40 44 45 43 44 44 45 37 37 42 35 36 35 33 33 34 35
19 19 27 28 26 21 17 20 21 24 32 27 27 24 23 30 30 15 14 24 18 20 21 24 31 36 27 33 32 36 38 42 44 47 45 42 41 43 37 35 35 34 34 35 35
12 14 13 23 24 21 20 17 19 17 26 28 28 25 18 19 19 14 9 10 11 16 18 19 29 26 35 33 31 36 38 37 40 42 40 39 41 39 38 35 35 35 35 34 35
5 8 6 9 15 15 14 15 18 17 21 21 15 13 20 21 19 14 12 10 18 17 19 21 25 29 26 24 33 27 26 34 37 36 37 38 40 38 35 34 33 33 32 32 32
7 6 3 3 6 12 10 6 7 11 16 17 15 11 11 9 10 10 9 9 20 17 22 20 21 26 26 27 28 29 28 28 27 34 31 34 38 36 35 32 31 31 30 30 31
9 6 7 4 3 6 9 2 7 11 12 17 12 14 8 10 11 12 9 6 15 19 21 18 17 18 20 23 25 22 22 20 21 24 26 26 29 31 30 31 29 28 28 29 28
13 7 7 5 11 6 8 7 5 9 12 13 9 6 5 7 6 7 8 8 10 20 21 22 16 17 19 22 23 22 21 22 22 22 22 24 28 26 29 28 27 27 26 26 25
13 12 7 6 5 11 10 8 9 8 8 11 11 9 9 9 9 8 8 9 10 15 20 21 21 19 19 18 19 18 16 20 24 23 24 25 23 27 25 23 23 23 24 25 25
13 14 12 9 6 10 12 11 12 11 10 10 9 9 10 10 9 9 9 9 11 13 18 21 20 20 20 18 19 20 20 16 13 22 26 28 26 26 22 22 23 24 24 24 23
17 18 15 13 10 10 13 13 12 12 12 11 10 9 9 9 9 9 9 10 12 14 16 17 19 20 19 21 21 20 20 21 23 20 21 23 23 20 20 22 22 22 22 22 21
21 21 19 16 16 14 13 15 16 16 14 13 12 11 10 10 9 9 9 11 11 14 18 18 16 17 17 17 17 17 18 19 20 24 25 21 23 19 21 20 20 20 19 19 19

GFSSW_500_spd_060.txt.gz
Wind_Speed
41 39 41 43 45 49 52 55 57 60 62 63 64 65 64 60 57 54 52 48 46 43 47 52 51 55 50 49 49 51 50 59 53 47 49 44 43 44 41 39 40 34 43 39 29
43 43 47 50 53 56 58 61 63 64 68 71 72 71 70 68 64 58 56 53 52 48 45 46 52 53 57 52 54 53 53 46 50 42 45 46 38 49 44 38 37 37 36 35 31
46 50 53 57 61 63 64 65 64 65 66 69 73 77 74 75 70 62 61 56 54 52 47 46 50 56 56 57 54 53 50 42 45 53 49 42 51 47 45 43 41 41 38 39 33
53 57 62 63 64 63 55 48 44 40 40 42 56 72 76 76 74 72 65 61 53 55 51 47 46 55 56 56 55 51 47 49 50 55 50 49 49 37 45 43 44 45 47 38 35
60 65 65 63 56 44 37 31 29 28 26 19 20 25 38 64 70 73 69 65 60 56 53 49 44 48 53 51 55 54 51 51 54 53 48 51 43 39 46 46 48 48 42 37 40
65 67 66 55 45 31 28 25 23 23 14 11 13 19 23 31 53 71 71 67 62 57 55 51 44 42 50 53 56 53 53 55 56 50 43 43 42 47 43 50 50 46 43 43 42
65 67 63 49 33 22 17 18 21 14 15 13 13 14 20 24 39 59 70 66 62 55 55 52 48 45 45 53 52 55 60 54 57 49 44 47 50 50 47 48 44 46 44 44 42
64 66 62 46 24 15 15 16 11 5 6 8 9 13 13 23 34 43 61 64 61 52 55 54 49 45 45 52 54 54 55 57 51 48 49 45 46 49 41 47 43 44 44 44 42
64 65 59 43 24 20 17 14 6 8 10 10 11 11 14 19 28 43 49 58 60 56 50 53 51 45 45 46 50 58 53 54 51 44 51 45 45 48 45 46 46 44 43 43 41
62 60 57 44 30 20 19 13 7 6 8 10 12 12 12 16 24 40 42 50 53 53 50 51 50 46 45 42 51 51 51 51 48 49 45 49 44 45 49 46 45 46 45 43 41
55 53 58 47 39 28 20 13 8 5 6 6 7 7 8 15 23 41 40 44 44 55 50 47 48 46 36 31 34 46 51 49 46 48 49 45 47 43 44 47 42 43 45 45 42
48 48 53 53 55 53 41 23 10 5 8 8 10 10 13 21 49 57 49 35 45 43 46 50 44 39 33 31 38 50 51 47 49 47 42 43 49 43 44 42 46 44 45 43 41
44 41 47 43 50 53 57 44 35 32 26 16 12 13 18 32 66 57 40 41 37 54 59 48 42 41 36 33 39 47 48 48 50 42 35 39 50 48 41 39 43 44 43 44 43
40 39 39 35 37 45 46 39 38 38 47 42 33 51 48 41 30 32 37 29 44 31 38 46 43 37 38 29 36 47 46 46 49 38 37 36 41 48 45 37 38 41 43 42 39
33 37 36 28 24 34 38 32 20 23 26 29 25 25 26 18 31 31 26 28 34 34 34 36 36 30 31 31 29 40 46 47 45 41 42 37 36 38 45 38 36 35 34 34 33
27 32 31 30 24 28 33 25 21 31 31 27 28 27 32 42 36 30 23 25 29 30 33 28 29 24 24 27 30 33 44 44 44 44 44 39 35 36 42 35 33 33 33 33 31
26 25 27 27 24 16 22 22 11 23 23 18 26 29 39 29 31 25 27 21 32 26 24 25 26 28 24 26 29 30 39 42 45 44 43 38 37 35 37 42 34 32 31 33 35
22 20 21 23 22 19 16 14 11 17 25 21 26 28 33 27 24 20 18 19 26 24 22 26 27 28 28 30 26 30 33 40 45 45 42 40 38 34 37 34 31 32 34 32 34
19 21 16 16 18 16 16 10 9 17 15 19 19 17 24 16 15 20 24 20 18 20 17 24 29 30 29 32 25 24 31 33 38 42 41 41 39 38 36 29 31 31 31 33 32
18 18 18 14 10 10 14 10 6 11 16 14 12 8 7 6 8 11 13 12 14 17 16 20 23 33 28 27 31 27 23 32 36 35 38 42 41 36 36 37 33 32 32 34 34
17 17 18 10 8 5 5 11 6 7 8 9 18 16 13 9 5 4 6 7 12 14 14 16 17 23 26 32 26 23 27 27 30 31 31 34 37 36 34 32 33 31 32 33 34
18 16 16 15 5 3 2 6 10 8 6 2 3 3 3 1 3 6 5 7 12 12 16 17 21 23 23 25 26 34 24 22 20 26 29 34 35 33 32 33 32 32 32 32 33
16 17 15 14 9 6 3 5 6 8 8 11 8 6 3 2 2 5 6 6 15 12 16 16 16 20 23 23 22 30 30 28 22 20 23 28 31 29 29 31 32 34 33 31 31
18 17 17 16 12 10 9 6 7 9 10 12 10 8 6 6 6 5 7 8 9 17 20 19 17 17 18 20 21 19 19 19 18 17 17 20 21 21 24 23 27 26 29 29 28
21 16 18 16 16 12 14 15 14 11 11 10 10 10 9 8 7 6 7 7 10 13 18 21 20 19 16 16 16 17 18 17 18 20 24 28 24 24 24 21 21 25 25 25 25
24 20 18 20 18 16 14 16 16 17 16 14 12 10 9 9 9 8 8 10 9 11 13 18 22 22 20 19 19 18 17 18 18 16 21 26 26 23 19 20 23 22 24 24 23
26 20 20 22 20 20 17 16 17 17 18 16 15 13 10 9 9 9 10 9 9 11 10 13 18 21 20 21 22 20 19 19 20 24 23 20 23 18 17 20 21 22 22 22 23

GFSSW_500_spd_063.txt.gz
Wind_Speed
45 43 46 49 50 52 53 54 56 57 58 59 60 59 58 57 53 53 49 47 46 44 42 43 49 48 47 51 56 44 46 45 44 45 45 44 48 47 46 41 42 45 40 36 34
49 51 54 55 56 56 57 59 62 64 65 65 66 66 63 61 60 56 54 51 49 47 45 44 45 49 49 49 52 54 52 41 46 38 34 45 43 50 47 42 44 42 38 35 33
53 56 58 60 59 59 53 50 51 55 61 66 69 71 71 66 64 58 61 57 52 50 50 45 45 50 51 50 46 50 49 41 46 47 48 44 51 36 52 45 47 42 37 35 33
58 59 62 65 60 51 38 31 33 28 28 34 43 57 66 75 69 65 64 60 54 52 51 50 45 46 54 51 47 46 49 49 44 40 50 40 43 45 50 48 48 46 42 41 38
60 61 66 65 60 41 25 23 23 20 20 20 22 27 38 58 66 66 66 65 60 54 51 49 47 43 45 49 50 50 49 47 47 48 46 51 42 43 48 43 48 48 44 41 38
61 65 70 69 56 31 22 18 16 16 16 16 14 15 21 25 45 60 65 63 61 56 49 49 46 42 44 47 52 46 52 51 50 47 47 44 48 44 44 43 43 48 47 40 37
61 65 68 64 51 30 19 17 16 17 14 13 11 8 12 19 31 44 63 63 60 58 50 51 47 45 42 44 51 51 52 57 47 49 48 42 43 45 47 48 46 45 44 40 40
58 60 60 60 59 35 21 18 13 4 0 6 6 7 9 15 25 27 43 58 61 58 52 46 47 47 43 40 45 53 51 54 50 46 46 42 40 39 47 51 48 40 41 42 43
52 53 61 62 60 50 26 17 9 4 4 5 8 4 8 8 21 29 38 50 60 60 55 45 45 47 43 39 41 49 51 51 48 47 42 42 38 42 43 49 50 48 44 42 43
52 47 55 54 56 58 50 27 11 5 5 4 7 7 7 10 17 29 39 47 55 56 52 47 43 48 46 40 35 37 40 46 46 45 41 41 41 42 42 44 44 46 42 41 40
49 46 42 44 50 51 54 55 30 9 5 2 1 4 8 15 20 31 40 52 46 50 48 44 44 43 38 36 33 30 36 43 43 45 48 41 43 48 45 43 44 40 43 42 39
45 44 41 38 40 45 48 46 42 37 12 3 5 4 9 14 24 37 44 56 56 52 43 48 36 35 39 37 34 33 33 40 44 47 45 46 41 44 45 43 43 45 45 44 44
41 43 39 35 36 32 41 39 37 40 30 27 12 4 9 19 32 38 44 58 53 38 51 44 36 36 37 37 32 30 26 33 40 46 46 45 46 40 43 44 41 39 45 45 45
37 38 37 34 31 27 32 42 41 34 40 39 31 16 30 54 43 36 38 51 52 42 33 43 39 33 37 34 28 27 29 35 43 43 44 40 39 40 43 46 46 39 41 46 43
36 32 33 32 19 22 25 33 39 34 40 39 35 39 32 30 32 20 30 33 42 46 41 37 37 31 30 29 27 28 32 35 38 43 45 42 41 35 44 45 45 42 42 41 40
33 30 30 26 15 14 21 31 30 31 33 26 15 21 33 29 26 29 20 30 34 44 45 39 34 36 28 31 31 28 31 33 36 44 46 38 37 35 36 42 46 44 38 38 36
28 28 25 25 18 10 15 24 25 26 32 27 29 28 21 23 23 25 22 28 36 40 37 32 37 37 33 35 28 34 24 32 36 43 43 37 38 36 35 36 43 43 40 39 40
29 25 22 21 16 14 10 20 21 22 24 24 24 27 19 18 15 17 18 25 26 29 29 30 33 35 29 27 30 32 25 20 32 38 39 39 39 34 32 33 37 43 36 35 36
35 22 22 15 13 10 11 12 18 22 16 13 23 23 27 21 11 16 16 15 19 20 21 24 24 25 26 28 31 27 22 21 24 31 36 41 38 32 32 31 32 41 36 33 32
36 21 20 16 9 5 6 7 13 16 16 8 7 15 17 21 14 11 11 14 16 18 15 20 24 26 28 26 26 29 22 21 26 29 33 38 38 35 32 27 26 30 35 33 33
37 25 17 16 5 4 5 4 2 8 10 13 10 10 13 12 15 12 10 14 17 17 18 15 19 27 30 31 22 28 23 22 22 25 27 28 36 35 32 28 27 30 33 33 34
35 29 18 16 10 3 5 10 7 3 3 3 5 6 6 8 7 9 9 10 14 16 14 12 11 18 30 30 25 22 23 21 21 21 23 24 27 28 30 31 28 26 30 34 33
34 29 19 14 13 8 7 7 14 11 5 3 1 1 3 4 4 5 4 7 12 14 15 15 14 13 18 28 32 29 27 24 21 16 21 22 23 22 24 24 25 25 28 30 31
37 28 22 16 15 11 11 8 9 14 13 8 7 5 3 3 3 2 5 6 9 12 13 13 15 18 18 17 20 20 23 26 23 23 23 24 20 18 21 24 24 24 28 30 31
37 29 22 18 16 15 10 16 13 11 12 12 13 11 8 5 3 6 7 8 9 11 17 17 15 14 16 20 21 22 20 23 25 19 20 19 17 15 18 19 21 19 24 25 24
41 32 22 20 19 19 16 13 19 18 17 15 14 13 11 10 9 9 8 9 9 12 14 18 23 22 20 18 17 18 20 19 19 23 21 24 22 20 16 14 18 20 22 22 22
37 31 23 19 17 20 19 15 16 20 20 20 18 16 14 12 10 9 8 8 10 11 13 15 19 22 24 23 22 20 19 19 21 22 22 21 18 18 16 16 20 21 22 20 21

GFSSW_500_spd_066.txt.gz
Wind_Speed
48 48 49 50 51 52 48 49 53 57 63 62 58 55 55 55 55 52 57 49 48 48 44 49 49 50 50 55 48 58 57 61 61 54 54 57 56 54 52 45 45 44 40 38 36
51 51 54 57 61 57 48 43 39 46 56 65 63 59 56 58 58 54 53 54 50 49 49 47 49 49 54 53 57 51 54 56 55 58 59 62 59 56 53 52 48 45 40 37 36
53 54 60 65 65 58 41 23 22 29 33 48 61 65 64 58 58 55 56 59 52 51 51 50 51 50 53 54 47 55 50 53 53 60 61 60 62 56 53 53 50 47 43 39 37
54 58 59 55 61 56 35 21 18 23 23 24 30 45 62 67 60 62 60 58 57 52 54 53 49 49 50 52 45 47 56 52 49 51 57 56 55 55 56 55 55 47 46 44 42
54 54 50 52 58 63 44 17 12 17 13 15 20 23 31 52 60 64 61 59 59 55 53 54 51 46 45 47 44 43 49 60 55 55 48 49 39 52 51 54 55 50 45 46 46
53 45 47 49 56 61 57 28 19 18 15 13 16 21 24 29 46 63 65 61 60 57 54 53 51 47 44 43 45 46 50 59 57 52 52 54 37 48 52 53 54 54 47 45 44
50 50 46 48 53 56 58 45 25 18 17 18 15 14 16 19 29 43 60 64 61 57 56 52 51 49 44 42 43 49 50 56 56 54 50 58 54 43 47 50 52 49 50 45 43
47 50 43 45 50 56 54 57 32 11 6 3 6 10 7 10 19 33 43 61 62 60 55 52 49 49 46 43 43 38 51 54 49 47 48 50 54 51 44 43 52 52 47 46 42
46 49 40 41 46 54 56 53 44 16 7 4 6 1 8 8 27 36 36 56 63 60 53 51 47 47 48 45 43 46 45 46 45 46 41 46 39 42 44 42 43 48 51 46 45
45 47 42 37 41 47 60 54 46 27 10 6 5 5 7 10 22 36 30 54 61 58 53 50 52 48 48 45 40 33 30 42 39 42 44 42 43 40 42 40 45 44 48 48 45
45 43 40 29 36 44 53 55 47 37 22 5 1 5 6 11 17 30 38 55 59 56 47 55 53 40 36 40 38 32 29 33 37 39 40 40 39 46 44 42 40 44 45 47 46
42 39 38 24 35 44 49 53 48 39 26 15 2 5 7 11 18 30 42 59 64 55 56 46 36 32 39 40 36 31 29 30 35 39 41 41 44 40 44 42 39 41 43 45 48
40 35 37 22 32 40 45 41 37 38 38 29 13 4 7 14 24 33 45 67 61 67 50 38 40 33 36 38 35 31 24 26 31 35 38 42 48 47 40 40 38 37 40 45 45
41 33 33 29 28 36 40 34 24 32 36 30 29 19 16 22 32 48 50 61 61 61 43 41 38 34 34 36 34 31 28 28 28 30 35 36 43 45 40 41 40 39 38 41 44
45 30 29 30 29 29 33 28 16 28 29 35 30 36 36 35 44 48 55 48 47 44 47 41 35 34 33 34 35 32 29 27 28 26 30 35 38 42 46 41 42 38 40 40 42
44 28 25 26 24 20 28 29 17 27 28 26 35 31 28 35 38 41 38 48 36 41 46 41 39 34 33 33 31 27 26 27 27 31 31 32 35 44 42 41 42 40 40 42 41
42 31 23 21 21 15 23 23 14 21 29 30 30 31 34 31 39 30 21 26 32 43 36 41 38 30 31 32 29 29 25 26 28 31 31 34 39 37 39 41 40 45 43 42 45
44 36 19 17 16 14 18 17 15 23 27 37 28 19 24 28 23 22 28 28 32 28 36 37 39 32 27 27 27 30 28 25 23 24 31 32 36 33 38 40 37 40 44 43 44
52 37 20 15 12 11 11 13 8 8 13 17 27 22 19 22 22 21 18 19 35 35 26 26 30 30 29 29 26 29 28 29 26 22 20 29 33 33 35 39 34 35 39 46 44
60 38 27 15 9 7 5 5 9 6 8 12 17 17 14 16 14 15 17 20 23 27 28 29 28 32 33 32 37 27 23 24 23 23 20 20 26 32 32 31 32 33 33 37 47
68 45 31 15 9 6 7 4 1 4 3 7 11 10 13 10 12 13 16 19 18 18 18 19 23 28 31 29 25 30 28 24 20 19 19 20 22 28 30 31 31 30 33 36 42
71 49 33 19 11 6 7 11 7 6 3 2 5 8 8 9 7 9 10 12 13 14 17 11 16 23 23 25 26 28 27 27 26 22 21 21 18 18 23 26 29 30 32 31 36
71 56 35 21 12 11 9 11 13 10 9 6 5 3 4 6 5 5 6 10 12 14 12 12 13 21 24 27 29 30 26 25 25 21 22 22 17 16 17 18 21 26 30 37 36
68 55 39 25 17 13 11 13 13 13 13 12 7 5 2 1 1 4 5 7 11 12 15 16 15 13 16 22 27 31 26 24 26 26 18 13 11 12 16 18 20 21 22 24 25
65 56 43 27 18 13 14 12 16 14 13 13 11 9 6 5 6 5 6 7 8 12 13 15 15 14 15 17 18 21 27 25 28 27 26 15 14 15 16 20 22 23 23 24 27
65 60 47 31 20 15 14 15 15 20 15 13 12 10 10 8 7 8 8 9 10 12 14 17 17 16 15 18 20 19 20 21 18 26 27 20 16 14 15 16 16 16 20 20 22
60 62 53 39 20 15 13 17 17 17 22 20 17 14 12 10 9 8 11 10 10 12 14 18 22 23 22 20 20 19 18 18 22 24 23 24 18 21 18 19 20 21 20 19 19

GFSSW_500_spd_069.txt.gz
Wind_Speed
55 48 48 50 52 57 54 49 37 35 45 52 57 56 56 55 54 52 60 57 56 53 52 47 54 50 54 55 53 58 56 62 63 52 52 56 55 56 55 52 49 47 44 39 37
55 50 52 47 49 49 55 52 35 22 29 33 49 56 56 59 58 53 56 62 60 55 54 50 52 53 53 53 53 56 53 60 64 53 55 56 57 59 58 55 51 49 46 42 38
54 50 52 43 44 51 52 52 42 18 27 28 26 47 58 58 58 57 60 62 61 58 56 54 51 57 52 53 54 57 54 59 60 62 60 60 57 59 60 57 52 50 47 43 39
51 49 51 39 45 52 53 52 52 20 21 20 23 25 39 58 60 61 60 60 59 64 58 56 52 53 56 52 55 52 50 55 54 58 61 63 63 61 61 59 55 52 52 47 44
51 49 50 46 44 54 52 54 50 25 20 19 15 17 19 39 62 65 60 56 58 58 60 57 53 48 52 52 51 54 52 50 47 48 61 66 64 65 64 59 58 56 52 50 47
51 47 49 48 46 53 57 60 45 31 14 15 15 15 15 21 47 63 62 58 56 56 62 56 54 49 49 49 49 51 47 59 54 37 53 62 64 66 64 64 59 57 54 54 51
50 46 48 44 45 55 58 58 54 28 14 8 15 14 13 15 23 52 64 61 56 54 59 54 53 52 48 48 48 51 51 50 51 47 53 59 57 57 65 64 61 60 53 52 51
51 43 47 41 46 55 52 54 53 30 18 11 4 6 10 8 13 33 59 63 54 53 53 54 50 53 50 46 47 49 53 50 49 58 60 61 67 46 56 57 65 63 59 52 51
53 41 44 40 46 51 43 52 52 37 19 10 8 2 7 8 11 27 40 61 58 54 49 52 50 49 53 48 46 48 48 46 52 59 58 58 61 42 43 54 56 57 56 55 53
55 41 42 36 44 47 38 44 52 48 30 11 5 4 5 8 12 28 43 50 59 57 50 49 51 48 52 51 40 30 38 38 48 47 63 55 58 56 52 48 48 49 47 48 53
56 41 39 40 36 43 31 45 48 48 41 14 4 3 2 5 12 47 39 42 58 59 52 49 52 45 45 45 40 33 32 26 34 47 51 56 58 53 54 53 47 50 50 47 46
57 42 37 38 33 40 38 39 45 46 38 29 6 2 3 6 19 24 32 45 58 58 50 52 43 39 40 43 42 36 31 28 27 31 38 45 49 39 44 49 52 46 47 47 49
63 45 34 34 33 36 37 29 38 42 39 36 19 1 5 7 20 29 35 52 56 56 44 45 45 35 36 40 41 37 29 26 25 25 36 40 44 47 39 41 41 46 42 44 45
65 47 32 31 29 31 32 29 36 40 42 34 27 10 4 12 22 29 43 59 46 40 42 43 43 39 35 39 37 35 29 26 27 25 24 31 39 39 42 41 39 39 37 41 43
70 50 29 27 27 28 27 25 31 35 46 34 33 22 12 12 25 27 55 55 44 47 39 45 44 40 36 40 38 34 31 25 22 22 24 26 31 32 41 45 37 35 37 38 38
72 53 29 25 23 22 22 20 25 35 34 34 28 23 19 19 25 41 59 53 51 39 47 45 43 37 34 38 38 36 33 29 27 26 24 25 26 31 35 40 41 38 38 40 40
74 57 34 22 18 17 19 14 18 33 35 31 27 24 20 25 33 51 37 50 34 44 42 38 38 33 31 35 37 35 32 30 27 25 20 25 29 23 30 38 42 43 41 41 42
73 65 39 23 17 13 14 13 12 24 28 28 24 22 38 29 23 21 28 33 25 30 29 40 37 33 30 30 32 34 32 30 27 23 20 24 23 26 26 35 43 47 45 41 41
70 70 42 28 14 12 8 11 9 13 18 21 20 18 20 19 18 25 36 19 28 32 27 29 31 30 29 29 30 30 30 27 25 23 19 20 24 27 32 37 40 45 46 43 40
66 67 53 30 15 12 8 5 6 10 10 15 19 18 14 17 14 12 14 19 23 31 28 33 31 28 26 28 29 28 26 27 23 22 24 23 21 22 29 33 39 41 39 39 36
63 66 58 41 23 11 10 5 6 4 6 9 12 14 11 10 12 11 9 11 30 27 26 23 25 29 29 26 25 28 28 26 22 22 21 21 17 18 23 29 34 36 34 39 39
62 69 64 54 31 14 10 11 7 7 2 1 4 8 8 9 7 10 12 14 13 15 20 21 24 29 33 34 32 31 32 34 28 22 22 23 17 17 19 24 29 31 31 38 38
59 66 67 58 34 19 13 13 13 10 9 5 3 3 5 6 6 8 13 16 17 17 18 19 14 20 23 26 33 35 29 25 24 26 26 25 17 15 16 15 18 20 27 30 33
58 65 68 62 43 21 13 15 13 13 12 12 9 6 3 3 4 5 5 9 13 16 16 19 16 18 25 28 29 27 24 23 24 27 27 20 14 14 17 17 18 23 25 27 30
56 61 69 68 52 28 16 14 15 15 12 13 13 11 8 6 4 5 5 7 10 12 14 16 17 17 15 20 26 29 27 30 31 26 27 22 19 16 16 17 20 23 26 25 24
51 60 70 72 55 33 16 10 17 15 17 13 13 14 14 11 8 8 8 9 10 11 11 14 15 16 15 17 17 19 24 28 31 32 29 25 24 21 17 17 17 17 25 28 26
51 56 68 71 57 33 18 13 14 20 17 20 16 14 14 13 12 12 13 13 12 11 12 14 15 17 17 17 17 19 18 19 21 23 23 21 19 24 20 15 17 20 19 19 24

GFSSW_500_spd_072.txt.gz
Wind_Speed
77 63 49 47 45 40 47 52 56 54 41 25 29 45 57 57 56 52 51 62 63 59 56 53 50 50 50 50 62 48 56 68 62 59 51 54 54 55 54 52 49 47 44 41 42
77 63 49 48 44 40 48 54 53 48 36 18 30 28 48 59 56 56 49 63 67 61 59 55 51 51 52 51 56 56 57 62 54 57 52 54 56 56 55 52 51 48 45 42 41
78 62 50 48 39 43 48 48 56 48 26 17 26 29 27 54 60 59 55 58 70 63 61 58 55 52 52 52 51 53 52 49 49 59 56 56 57 57 56 55 53 49 47 44 42
80 63 48 47 39 47 42 51 56 58 31 20 22 18 22 33 58 60 60 59 64 65 61 61 56 52 49 52 50 51 47 52 53 57 60 61 59 58 57 56 55 51 47 47 46
77 61 46 44 40 47 44 51 59 58 45 17 22 21 17 21 49 61 60 58 59 65 61 61 57 52 48 48 48 48 46 44 50 49 60 62 63 62 57 57 57 54 49 45 46
79 62 45 41 40 46 42 53 58 56 52 25 14 17 16 14 28 58 60 54 59 58 65 61 57 54 50 49 50 48 54 56 43 47 58 61 64 64 59 59 57 55 52 47 46
81 65 46 41 38 44 38 51 56 55 51 29 13 15 15 13 16 45 59 53 56 56 57 58 57 55 51 50 51 49 50 54 50 44 45 61 67 61 62 60 57 56 52 50 47
80 69 46 42 37 43 41 46 54 55 48 33 15 7 11 10 12 28 58 56 49 50 52 58 53 55 52 49 51 50 48 59 50 50 46 52 66 63 63 63 62 61 54 50 50
81 70 47 41 37 43 41 41 50 52 44 36 16 3 5 7 7 21 49 58 50 47 44 55 51 55 54 50 49 49 47 52 57 53 50 45 54 63 54 63 62 58 56 56 53
82 70 47 40 37 42 37 44 46 51 44 40 16 2 3 7 9 16 39 58 52 45 42 46 46 52 55 50 43 34 34 48 44 41 45 45 44 59 51 55 59 60 60 57 59
81 67 49 40 34 39 33 41 44 50 46 42 21 5 3 4 7 16 32 47 52 47 45 44 48 44 51 47 42 35 33 36 40 38 42 44 50 52 61 64 57 58 57 60 61
80 75 53 39 32 36 32 40 41 49 45 45 30 7 1 3 4 35 36 39 52 51 44 48 43 37 46 46 43 38 33 35 33 38 42 48 56 53 64 58 51 52 55 52 57
80 78 54 38 31 32 30 38 43 46 44 44 35 16 2 3 5 25 32 35 51 51 43 48 44 40 46 44 42 39 33 31 30 27 31 38 54 53 53 62 48 55 58 54 55
79 76 53 36 29 28 27 31 44 43 42 38 36 25 9 3 13 18 30 34 49 51 44 47 41 34 39 41 40 37 33 29 30 25 25 32 43 44 44 51 56 47 49 51 52
76 75 57 37 25 24 25 27 38 41 37 32 33 28 15 9 14 14 22 33 51 48 45 44 42 37 35 37 40 37 33 29 28 26 18 24 39 40 41 44 47 46 48 48 50
73 75 62 39 26 19 19 23 30 37 33 29 31 28 19 7 18 16 26 47 46 45 41 42 42 26 34 33 36 35 34 31 27 21 15 12 21 24 38 35 38 38 39 44 51
68 75 69 49 29 18 15 16 22 31 30 27 29 33 26 13 12 37 39 36 35 32 40 40 37 30 31 29 35 35 36 32 29 23 17 16 14 12 17 28 32 41 38 42 42
63 71 75 60 35 19 14 13 15 22 27 22 21 26 26 27 37 42 31 30 25 21 35 37 33 33 32 31 36 38 36 33 30 24 20 16 11 11 16 24 30 35 42 43 43
59 69 76 68 42 23 13 9 11 14 20 22 18 18 18 23 18 11 14 13 4 30 32 33 35 31 27 28 36 35 35 31 29 26 21 18 15 18 21 28 32 35 40 41 45
57 62 71 72 52 30 15 9 7 8 12 16 17 16 16 19 30 20 6 7 8 13 20 29 34 28 25 27 31 33 32 30 28 26 23 20 17 16 24 28 34 37 39 42 45
55 58 65 71 63 34 17 10 6 5 5 7 12 13 11 16 16 4 9 13 22 18 11 27 28 25 24 26 27 30 31 30 29 27 24 22 19 16 21 25 29 35 37 39 43
51 57 61 68 67 46 20 14 7 6 3 1 5 7 8 8 5 10 9 19 21 21 20 19 24 27 28 23 24 25 26 27 26 25 19 20 20 16 18 23 25 29 35 35 41
49 56 61 65 71 58 26 13 11 7 8 4 2 1 4 7 5 7 12 15 22 19 21 23 19 19 28 30 30 29 28 29 31 31 28 26 24 13 21 22 22 25 30 29 34
48 54 59 63 68 64 33 14 11 10 9 11 8 5 3 2 5 7 9 11 15 19 21 21 21 22 25 31 34 38 37 33 32 28 26 24 22 15 18 21 22 24 30 34 36
48 53 54 60 64 64 39 17 11 12 11 11 13 11 9 7 6 6 6 10 15 16 18 20 22 22 19 24 28 31 33 31 34 29 29 21 21 20 21 23 26 26 27 30 32
45 49 50 58 63 64 41 18 15 12 12 13 12 15 15 13 9 9 8 8 10 12 16 18 20 18 22 20 20 25 30 32 32 32 30 26 24 22 25 25 22 23 27 31 33
40 46 49 55 60 63 50 21 14 11 14 14 14 15 15 16 15 13 13 12 12 12 13 14 15 16 16 18 18 19 17 20 25 26 28 34 21 23 22 27 21 25 28 30 32

GFSSW_500_spd_075.txt.gz
Wind_Speed
83 81 80 59 46 39 41 40 44 46 49 56 27 24 30 40 63 61 57 55 56 66 65 62 58 56 52 50 49 47 50 67 53 59 58 56 58 56 53 52 53 53 52 49 45
84 85 79 63 47 40 37 36 43 50 52 54 18 23 29 34 57 61 61 56 57 58 67 63 58 58 55 49 42 47 56 65 54 53 57 56 58 58 56 54 53 52 50 48 44
84 85 77 66 48 40 39 37 46 53 54 52 25 21 22 27 37 61 59 58 53 58 63 62 60 58 55 50 46 42 46 61 60 53 57 56 59 57 58 56 54 52 50 46 44
84 85 74 62 48 39 42 37 46 53 54 50 33 21 19 21 26 49 60 60 50 51 63 67 62 59 56 52 48 42 42 53 54 55 58 58 60 59 58 58 55 53 50 45 43
82 86 74 61 48 39 43 37 46 52 52 50 32 13 19 17 19 33 57 57 51 44 57 69 62 60 55 50 48 47 50 50 51 39 56 54 62 61 59 59 57 54 51 48 45
80 86 78 60 49 41 40 40 46 54 52 48 31 12 15 17 18 23 48 55 54 46 54 68 62 58 54 50 48 49 48 49 49 45 42 51 62 65 63 62 60 57 53 49 45
78 85 78 59 50 42 38 41 49 54 52 46 29 14 11 13 15 18 37 52 55 46 50 66 59 59 55 50 47 49 47 47 54 50 40 44 59 62 64 64 62 58 55 49 47
76 83 79 58 49 41 38 43 47 51 50 47 26 14 6 11 11 11 26 48 47 45 51 59 56 55 54 52 47 49 48 47 49 45 45 45 48 58 60 63 61 59 57 51 48
73 81 82 60 45 40 37 41 47 48 47 47 27 9 6 5 9 9 19 42 37 50 49 52 49 55 54 52 47 43 42 39 49 42 42 35 42 57 60 61 61 61 56 52 50
72 79 81 61 43 39 36 41 47 47 46 46 31 7 6 3 8 7 19 38 47 54 44 52 55 52 54 53 49 44 35 38 41 46 45 41 37 59 66 60 61 61 60 55 52
70 76 80 68 44 37 36 38 46 46 45 46 36 6 3 2 4 9 18 36 46 49 43 49 48 40 53 52 47 42 39 32 38 38 45 54 52 47 63 68 61 61 59 58 56
67 73 79 72 46 35 35 34 44 46 44 45 37 13 3 4 5 7 19 37 45 44 39 49 51 39 49 51 47 42 38 39 33 37 36 46 48 48 46 62 66 67 59 58 55
65 68 77 74 47 32 31 32 41 46 42 43 36 23 6 5 3 9 26 36 42 38 39 42 38 27 41 53 47 41 35 32 30 32 33 33 39 51 46 49 61 53 54 57 53
62 68 74 73 52 34 28 31 36 42 40 38 39 27 13 10 15 23 21 36 38 37 40 46 39 29 36 49 46 38 34 28 29 28 30 32 38 41 52 42 59 60 54 49 51
59 65 71 74 56 33 26 27 31 40 38 36 34 38 12 15 14 22 21 36 38 39 40 44 44 26 36 41 44 38 32 26 25 27 24 25 32 30 43 48 41 52 52 56 53
55 62 69 72 60 41 25 23 27 35 31 37 28 34 20 8 13 17 19 31 41 39 39 46 39 26 35 39 39 35 32 29 26 28 25 19 21 24 29 40 43 39 44 47 52
51 58 65 70 62 46 24 20 22 28 34 33 31 32 24 4 11 18 17 30 41 38 38 48 38 25 30 32 34 34 33 33 30 27 23 14 9 12 14 19 31 39 43 45 48
47 55 61 68 66 51 26 19 17 20 28 28 25 29 34 32 31 25 23 33 37 35 32 40 34 23 30 29 30 37 35 34 33 30 20 14 9 10 9 15 26 30 38 40 43
45 52 58 64 66 58 34 18 12 15 19 23 22 19 23 24 29 38 26 21 23 27 29 31 30 25 22 25 30 32 36 37 34 30 22 19 13 9 13 15 20 22 27 36 40
43 49 54 60 64 62 40 20 10 9 12 16 18 19 19 12 12 12 17 17 16 23 25 26 22 27 23 24 25 28 30 32 32 29 25 22 19 14 17 18 21 25 27 29 35
42 47 53 58 64 63 47 25 9 5 6 9 12 14 18 14 8 7 6 8 9 26 25 25 27 25 25 23 22 28 30 31 30 29 28 25 22 18 20 22 22 24 25 28 31
40 44 51 55 63 65 52 33 15 4 1 3 5 8 11 10 2 4 3 5 10 7 8 18 24 24 22 19 19 22 27 30 31 31 29 26 23 20 24 24 23 23 24 24 27
39 41 47 53 59 64 57 30 18 6 5 3 1 3 4 6 8 6 4 12 12 16 16 19 22 21 21 24 22 25 26 28 30 30 30 28 25 18 19 23 22 25 24 25 25
39 39 45 51 54 61 58 34 18 10 6 9 7 4 2 4 5 7 7 4 15 11 14 18 21 24 23 23 27 27 25 27 28 32 31 29 27 24 21 26 26 25 28 27 27
39 40 43 46 49 58 59 42 18 10 6 10 13 11 9 6 4 5 7 11 13 16 19 21 22 22 23 25 28 30 32 34 34 34 35 30 30 21 26 28 28 27 27 29 29
38 40 43 44 45 52 57 45 20 12 3 10 14 16 14 12 9 7 6 7 11 16 18 20 22 23 22 23 24 25 29 32 35 36 40 38 31 22 25 32 32 31 30 29 29
38 38 41 43 45 49 53 49 29 14 7 9 15 14 17 16 14 12 11 10 11 13 15 16 20 22 23 25 26 23 24 27 29 32 34 35 30 29 21 25 30 30 28 27 30

GFSSW_500_spd_078.txt.gz
Wind_Speed
66 73 79 81 69 53 42 38 30 34 42 48 50 50 34 27 30 44 62 62 59 63 65 65 62 63 56 58 59 54 56 57 48 60 63 61 60 56 54 55 54 52 51 46 46
65 72 79 82 68 53 42 38 31 37 44 52 51 46 19 23 21 31 53 63 57 63 65 69 61 58 61 56 56 56 51 51 46 55 59 63 61 59 57 56 55 54 52 51 49
62 71 78 83 68 54 43 37 34 43 47 51 52 37 17 20 25 31 29 61 50 59 62 63 68 63 61 60 57 52 48 45 51 64 55 60 61 60 59 58 56 56 55 54 52
62 70 77 82 67 54 43 36 38 46 49 51 51 33 16 23 24 24 26 54 63 55 54 65 62 66 64 61 55 51 47 49 46 64 57 54 59 60 61 59 57 55 55 55 54
61 68 75 81 73 57 44 38 40 48 50 52 50 31 14 21 18 18 20 40 57 53 48 50 64 62 60 60 55 51 45 45 49 51 68 51 51 62 62 62 58 57 55 54 53
59 67 74 79 74 56 44 40 43 50 50 51 48 28 13 13 18 16 15 35 47 48 48 49 50 65 63 59 55 53 45 42 42 54 56 60 50 57 62 62 61 58 57 55 52
59 65 72 78 75 56 44 42 43 52 50 50 45 23 12 8 15 16 14 32 50 33 41 45 48 60 67 61 58 53 51 40 40 43 52 59 57 48 60 63 62 59 59 57 53
57 64 72 77 72 56 44 42 44 52 50 50 43 18 8 5 10 10 12 30 44 41 38 43 43 48 63 58 53 54 50 44 40 46 47 53 46 47 54 62 64 61 59 58 55
54 62 70 76 73 58 44 39 43 51 49 48 42 18 7 4 9 8 14 29 38 44 38 45 43 41 63 56 52 47 48 48 42 45 38 48 35 47 60 59 65 64 61 58 56
53 59 67 74 73 55 41 38 41 48 47 46 43 21 9 3 6 5 22 35 31 46 38 46 47 45 61 61 54 46 41 44 45 44 38 46 41 39 54 58 63 65 63 59 56
51 57 64 72 73 57 40 35 40 46 46 44 45 22 9 3 2 5 25 43 30 46 38 36 50 47 58 58 54 49 40 40 39 38 39 45 50 42 44 60 61 63 64 61 55
48 55 62 70 73 63 40 33 36 43 45 44 44 24 6 3 4 4 26 39 35 52 39 44 39 44 55 54 52 48 41 32 33 39 37 45 47 47 44 52 63 61 61 59 56
46 53 60 68 71 65 41 30 35 41 43 42 43 24 13 5 9 6 25 39 39 44 48 42 37 34 49 51 45 45 38 35 28 31 35 42 46 47 41 39 62 62 57 56 54
43 50 57 65 70 66 40 28 32 37 42 39 37 22 19 12 14 8 22 44 39 39 41 47 44 32 34 48 45 41 37 32 31 29 28 33 41 50 47 45 39 63 63 57 55
40 48 54 62 69 65 48 26 29 35 38 42 31 18 21 16 11 10 36 39 36 39 36 43 38 25 29 40 44 38 34 28 26 28 27 29 31 36 42 44 44 46 65 69 62
38 46 52 59 67 69 44 25 24 31 31 38 37 22 9 10 18 17 36 35 40 34 41 42 13 19 28 34 42 39 33 30 27 27 26 23 24 23 26 34 44 51 41 62 65
37 43 50 56 64 69 50 27 22 26 29 28 37 35 18 11 15 20 32 35 40 41 25 36 22 21 23 30 35 39 35 32 29 27 24 22 19 11 20 29 38 40 56 43 49
35 40 48 52 61 67 54 30 17 20 23 23 26 34 41 22 21 20 28 36 36 37 34 37 27 18 25 26 28 37 35 34 32 30 22 21 17 12 17 23 27 34 46 46 39
32 38 45 49 56 64 56 32 21 12 18 14 17 19 25 33 32 26 32 30 32 32 24 39 24 22 23 26 29 33 35 35 33 31 24 22 21 15 17 15 19 23 26 34 41
30 35 42 46 53 60 57 41 19 9 12 11 9 14 15 22 28 26 24 22 21 22 26 35 26 19 21 23 26 26 30 33 33 33 29 27 24 21 18 16 17 19 21 23 25
30 34 39 44 50 56 58 46 23 7 6 10 6 5 10 14 17 20 20 18 19 16 22 34 25 19 22 22 22 24 26 32 35 36 32 30 28 21 20 19 18 17 16 21 24
29 34 38 42 47 51 57 51 33 9 2 3 6 3 2 4 7 7 11 13 10 16 19 25 23 17 21 17 18 18 23 26 29 30 31 31 30 26 24 23 22 22 18 17 20
28 33 37 40 43 47 52 50 36 15 1 4 2 3 2 1 1 2 2 7 10 15 20 21 19 24 22 21 20 19 17 22 26 28 30 31 33 26 25 20 22 24 24 23 21
27 30 35 39 42 44 47 47 39 21 4 8 7 4 2 1 2 6 3 2 14 13 12 15 17 22 22 21 21 21 21 23 27 32 32 33 32 25 24 24 24 29 29 27 26
25 28 32 35 39 40 43 44 43 26 12 7 12 10 7 4 2 2 5 5 6 11 16 21 21 23 25 25 23 25 26 28 30 28 30 26 33 27 25 29 30 32 32 29 28
23 26 29 32 36 37 40 41 43 33 17 5 10 13 12 10 8 5 5 5 9 10 15 19 21 24 24 23 24 26 28 30 32 33 35 36 35 33 29 31 31 31 33 32 31
22 22 25 28 32 34 36 37 40 36 22 10 4 11 15 17 14 12 10 9 9 11 14 15 17 22 25 27 26 25 25 27 28 29 33 39 36 39 36 36 34 33 32 35 32

GFSSW_500_spd_081.txt.gz
Wind_Speed
51 54 58 66 74 75 59 48 38 33 31 40 43 48 51 54 38 28 36 56 65 64 64 65 67 66 60 61 64 57 52 56 60 59 56 51 52 57 57 53 52 52 43 46 39
48 52 59 66 73 76 60 51 41 37 36 44 47 50 54 47 25 21 35 40 63 66 64 69 69 68 66 63 59 55 55 60 50 56 56 52 55 58 60 56 55 54 51 45 48
46 52 58 66 73 77 62 49 41 38 40 47 50 52 53 37 20 20 19 33 50 65 60 69 66 69 68 66 65 61 52 52 50 48 58 56 55 60 63 63 56 54 53 50 44
46 51 58 64 73 77 64 48 41 38 44 51 52 54 51 27 19 18 22 25 34 65 60 65 65 63 64 69 70 63 61 44 56 53 54 56 57 63 67 67 58 56 54 54 52
45 51 56 64 73 78 65 47 42 42 46 53 51 52 47 23 18 23 18 22 25 59 46 64 49 60 61 69 68 66 54 52 48 53 54 54 56 63 66 66 64 55 56 57 55
45 50 56 63 71 77 65 49 42 43 48 53 50 49 39 21 13 19 18 23 34 48 38 58 58 51 61 63 71 66 57 57 59 50 51 54 56 58 63 65 65 61 55 57 57
44 49 56 62 70 76 68 47 40 44 50 51 49 46 30 15 11 17 19 22 48 47 41 47 58 56 59 62 63 62 59 46 48 49 50 46 56 60 56 55 63 64 62 57 57
43 47 54 61 70 74 69 48 40 44 49 50 48 44 20 14 9 15 18 25 47 30 45 45 37 44 54 59 59 49 53 50 52 50 46 46 42 57 48 47 58 67 63 59 57
40 46 51 59 68 74 66 44 40 44 48 48 47 40 16 10 6 11 15 33 41 38 44 41 37 43 48 50 55 54 51 47 44 45 43 40 40 49 59 50 49 64 68 62 57
38 44 50 59 67 71 64 43 39 44 48 48 46 32 13 8 4 8 14 41 46 40 45 43 40 38 37 44 50 46 56 47 40 40 40 37 43 52 47 53 43 51 65 67 61
36 42 48 57 65 70 61 41 38 45 48 49 44 28 11 7 2 8 17 42 49 42 40 40 43 31 31 40 48 51 48 43 46 41 37 37 41 45 48 46 51 51 55 64 63
34 40 45 55 64 68 58 41 35 40 45 45 37 26 12 9 4 4 26 37 53 45 47 42 36 30 40 43 52 54 47 49 46 41 37 39 39 47 45 43 48 53 53 57 64
31 38 43 51 61 65 59 41 31 37 41 42 31 27 18 13 13 8 27 41 48 45 49 41 34 35 33 43 49 51 45 40 41 39 44 43 36 35 44 41 37 46 51 52 58
29 36 42 49 58 64 58 43 28 33 38 40 28 19 16 16 11 15 32 39 47 36 43 33 37 29 23 40 48 46 41 39 28 33 35 38 32 36 42 49 39 38 52 55 55
26 34 40 46 55 61 60 42 26 31 33 39 34 19 17 11 8 17 37 45 39 34 39 31 30 31 27 37 44 45 43 38 30 23 29 31 31 33 35 42 48 47 44 55 60
24 31 38 44 52 58 57 42 26 27 27 35 43 21 18 18 12 39 39 40 36 35 31 32 28 22 26 35 45 38 39 35 29 29 25 25 29 30 30 34 41 47 46 41 55
21 29 36 42 48 55 56 44 27 21 24 28 36 33 21 25 29 37 33 33 32 37 37 34 20 20 20 23 38 42 36 28 28 28 28 26 27 24 23 27 33 37 44 46 37
18 27 34 40 46 52 55 47 31 20 23 21 30 33 20 21 21 30 33 29 26 30 33 31 24 20 22 16 25 34 37 30 32 29 26 26 25 21 19 23 29 32 38 39 39
17 25 31 37 42 48 53 49 42 17 18 19 24 30 28 20 22 32 35 36 31 25 27 24 18 20 19 18 22 31 34 34 32 32 30 21 22 17 22 19 17 23 29 35 37
17 24 30 36 39 45 50 50 39 19 12 17 17 22 27 26 26 28 32 31 23 32 28 22 19 18 20 18 22 24 29 31 32 32 30 27 22 22 20 16 18 17 18 26 32
15 21 27 32 37 41 45 49 45 29 9 12 16 14 17 20 21 20 22 24 20 20 26 18 13 14 19 22 18 22 24 30 33 36 33 28 26 25 21 22 22 20 18 18 22
13 19 24 29 34 36 42 47 46 32 8 5 9 12 10 11 14 14 14 8 8 14 24 29 17 14 13 18 18 19 21 27 31 32 34 32 30 29 26 25 23 21 20 19 16
11 17 21 26 30 32 38 43 43 35 15 2 1 6 8 6 7 9 10 9 8 11 15 31 24 18 16 17 17 17 17 21 24 28 32 31 29 36 30 28 25 28 25 23 20
9 14 18 23 26 29 33 41 41 37 23 6 3 2 2 4 3 2 5 5 10 14 13 22 21 25 22 22 18 19 19 19 23 27 27 29 29 34 25 28 29 32 32 29 28
8 10 16 20 22 25 29 36 38 37 30 10 5 7 5 3 2 1 3 2 7 14 13 14 21 23 27 26 25 23 22 22 24 20 27 24 29 28 29 30 32 37 32 33 28
7 8 13 18 20 22 25 31 37 37 32 20 4 8 10 9 7 5 4 4 5 8 10 16 16 18 22 25 25 26 25 26 27 26 30 31 30 30 30 30 36 38 37 36 32
3 8 11 14 17 19 22 26 34 37 34 25 11 7 12 14 12 11 10 9 8 8 12 14 19 23 24 24 26 26 26 26 28 29 32 35 35 35 37 34 35 35 37 36 32

GFSSW_500_spd_084.txt.gz
Wind_Speed
43 47 49 53 57 62 70 71 57 46 35 31 33 40 44 45 47 53 47 43 47 57 61 67 70 70 64 65 64 61 64 65 59 60 51 65 58 53 51 50 47 46 46 41 41
42 44 49 53 56 63 70 70 56 47 37 35 39 47 50 50 49 49 33 28 36 54 65 68 71 73 65 64 61 62 55 59 58 59 53 55 57 53 53 50 50 49 49 42 43
40 43 48 51 56 64 70 71 56 47 38 39 43 51 52 52 53 24 16 17 33 44 61 66 73 74 74 67 70 60 61 59 57 57 62 44 59 53 54 57 52 52 50 49 46
39 43 48 50 56 64 69 71 55 46 42 42 48 53 52 50 39 16 18 16 32 37 52 63 62 71 75 76 71 59 65 49 56 62 61 52 58 54 58 51 52 52 53 51 55
39 43 46 49 55 63 69 69 54 46 43 46 51 53 49 45 22 12 18 17 23 27 48 43 58 71 67 70 70 67 58 61 52 48 43 48 62 56 56 50 52 55 54 54 54
38 42 44 47 55 62 68 66 53 46 44 48 53 53 49 26 20 11 18 14 21 26 51 39 40 62 57 66 74 69 59 59 51 51 23 51 49 63 56 52 50 56 56 59 55
38 41 42 46 55 62 68 65 50 43 46 49 54 52 39 19 16 10 15 15 19 25 53 42 34 58 56 60 67 67 62 65 58 44 37 49 42 55 58 54 51 55 62 59 62
38 39 41 45 53 61 67 65 50 43 45 49 53 48 28 15 13 7 16 18 38 28 40 48 40 39 54 61 63 66 63 49 49 46 30 62 52 48 55 55 54 57 60 57 66
37 37 40 44 52 59 64 62 49 43 44 50 53 39 26 13 7 6 16 22 39 27 33 43 47 37 42 51 44 60 55 50 56 43 37 36 49 54 48 52 52 53 59 60 62
34 34 38 42 50 58 62 60 49 43 43 49 48 37 22 12 5 6 14 22 35 34 31 42 44 44 45 47 45 51 54 57 54 36 34 45 43 47 45 49 53 52 55 58 58
32 32 36 41 48 56 61 58 47 42 42 49 44 29 22 16 4 7 14 23 35 36 28 45 43 48 35 42 35 33 40 49 53 45 34 39 44 42 44 42 45 55 54 52 51
29 29 35 39 46 54 59 57 43 39 41 47 39 25 22 18 5 6 15 37 33 34 31 34 35 43 36 38 40 41 36 31 45 45 39 38 42 39 42 40 42 46 55 45 49
25 27 32 38 45 53 57 54 41 35 40 44 39 24 22 20 14 6 20 41 33 31 37 34 30 34 31 37 40 41 45 29 36 36 37 34 38 37 36 36 39 44 49 49 44
23 25 30 36 43 51 54 53 41 36 37 44 38 23 22 16 11 17 42 40 30 34 32 33 23 28 24 31 39 40 39 43 38 35 32 31 33 31 32 29 35 40 46 46 46
19 22 27 33 41 47 53 49 42 37 36 43 39 33 20 12 17 23 35 39 36 40 39 35 36 46 31 29 30 39 40 41 35 30 33 36 34 34 35 33 30 43 43 42 44
17 18 25 31 38 45 49 48 44 35 32 37 38 29 18 20 27 23 32 22 30 33 29 30 29 25 23 30 37 27 33 41 39 28 30 33 34 35 36 37 33 36 43 40 38
13 15 22 28 35 42 46 46 40 32 32 34 38 30 31 27 26 27 22 29 29 31 25 30 29 19 12 13 35 39 33 36 34 32 28 27 30 28 35 36 28 26 31 41 46
8 13 19 26 32 39 43 46 43 36 28 28 37 23 25 26 33 27 27 25 30 27 23 23 19 15 18 18 21 25 27 30 34 33 27 25 24 25 22 22 23 28 29 33 42
5 10 17 23 29 35 41 44 46 29 23 24 31 27 21 22 23 23 23 20 21 25 27 18 12 12 15 15 22 27 29 33 30 30 29 28 26 24 17 20 22 21 23 27 32
4 8 14 21 25 32 38 42 41 31 17 21 22 29 20 22 20 22 24 22 23 25 17 14 15 16 17 11 13 21 33 34 33 28 27 27 17 17 17 19 17 17 15 15 21
4 6 10 19 23 29 34 38 43 40 18 15 17 21 22 21 19 18 17 16 17 21 21 15 14 17 21 15 16 18 20 27 31 32 23 24 27 19 17 19 20 19 18 17 17
3 3 8 15 21 25 31 36 42 40 24 9 12 13 16 17 15 11 10 8 21 21 16 13 10 9 12 14 13 13 17 25 27 27 28 27 26 27 23 23 23 22 21 20 19
5 1 6 13 18 21 27 32 34 36 34 12 4 8 9 11 12 11 10 9 17 19 19 16 9 9 10 13 16 12 13 16 22 26 28 28 29 31 31 29 27 26 29 26 23
6 2 4 11 15 17 24 28 32 33 33 26 6 3 2 5 6 7 7 7 8 10 13 18 21 15 11 10 11 13 16 19 23 24 21 26 27 31 33 29 28 30 35 32 29
8 5 0 9 12 13 17 24 29 32 32 29 14 2 4 2 2 1 3 4 9 9 12 16 22 25 23 23 19 18 18 20 21 14 22 16 22 24 30 29 29 32 36 32 33
10 7 2 5 8 10 13 18 25 29 32 32 22 6 6 7 7 6 5 4 4 11 14 13 15 21 23 24 26 27 25 24 23 21 25 24 24 22 25 28 28 31 36 35 34
14 9 5 3 6 8 11 14 20 26 28 29 27 16 2 9 11 11 10 8 7 7 9 14 17 20 20 20 22 27 24 27 28 28 28 29 26 25 29 30 31 33 33 35 34

GFSSW_500_spd_087.txt.gz
Wind_Speed
37 39 42 43 47 48 53 60 66 69 58 46 36 31 33 39 45 47 45 47 48 51 50 53 48 62 64 67 63 65 63 67 63 62 57 56 56 56 54 48 41 50 45 42 35
36 38 41 43 46 47 54 60 67 69 58 47 38 35 41 46 50 48 48 51 46 48 60 62 59 65 66 65 62 65 63 64 60 62 63 55 61 59 57 58 51 44 47 44 48
35 38 40 43 46 47 55 60 67 67 57 47 41 42 48 53 50 46 43 34 27 31 48 61 69 67 69 69 75 59 68 62 61 62 62 64 57 62 59 56 50 46 44 44 45
33 37 40 43 45 48 54 61 68 64 54 46 43 49 55 54 45 33 24 19 18 27 33 49 66 68 71 74 78 56 70 57 63 63 60 65 64 52 59 56 49 46 48 45 47
34 36 40 43 45 47 53 62 66 62 54 47 46 52 55 50 35 24 21 16 14 20 32 46 51 63 70 70 76 65 64 59 64 58 63 60 64 54 59 56 52 51 49 46 45
33 37 40 42 44 46 54 62 66 61 52 45 48 54 51 41 27 21 10 17 16 22 25 49 31 59 65 70 77 75 66 59 57 62 60 58 54 58 56 56 57 54 52 48 45
32 37 39 39 42 46 54 62 64 58 49 44 49 52 46 33 20 16 10 14 19 24 31 47 31 42 57 60 73 73 69 64 56 59 55 59 55 54 47 55 55 54 54 52 48
31 36 37 36 41 47 54 61 62 56 48 45 51 47 37 31 19 8 13 15 23 28 35 45 33 41 53 55 74 74 68 60 61 57 56 58 54 59 46 53 55 53 53 53 51
31 33 34 36 40 46 53 59 60 53 47 45 51 42 30 26 18 2 10 20 23 27 41 40 37 45 45 55 73 69 57 57 53 59 51 49 43 52 56 61 60 56 54 51 49
30 31 30 35 39 45 53 58 58 51 45 47 49 39 27 23 17 3 13 18 19 29 47 35 36 48 36 50 55 68 62 52 61 54 60 45 26 40 38 46 59 63 57 53 48
28 30 28 32 37 43 51 56 55 49 43 47 46 30 25 22 19 4 15 19 21 33 29 43 36 37 42 39 36 49 56 49 53 55 43 37 27 36 33 42 40 46 55 51 49
27 27 26 30 34 41 49 53 50 47 42 47 44 31 24 22 18 3 17 24 20 22 35 38 36 36 36 44 39 37 44 46 59 49 37 35 29 33 32 43 41 39 43 47 45
24 24 24 27 32 40 46 49 48 43 40 45 44 34 18 20 17 9 23 27 25 19 34 40 33 29 34 37 42 33 35 44 34 34 37 39 24 27 34 35 40 43 42 45 43
21 19 21 24 30 38 44 48 44 43 40 45 42 26 16 13 17 22 31 30 26 30 34 36 36 30 27 28 28 27 25 29 34 37 35 40 34 25 31 33 34 41 41 40 42
19 16 18 20 27 35 41 45 44 42 41 46 37 25 21 22 26 34 30 30 27 26 29 33 35 35 24 24 31 30 31 26 22 26 37 27 30 29 32 34 33 34 34 33 34
15 13 14 18 25 32 38 42 45 37 42 40 32 21 26 26 30 24 20 31 26 30 32 32 33 31 28 28 26 30 30 28 23 25 30 29 24 28 30 29 29 28 28 29 28
11 9 10 14 22 29 34 40 40 38 42 34 25 24 27 30 29 18 20 29 27 33 32 38 30 29 23 26 29 30 37 36 35 32 28 28 29 29 31 30 26 27 28 25 26
9 7 7 12 19 26 31 37 38 40 32 32 27 28 32 26 24 22 22 22 24 26 29 24 25 22 21 23 28 32 28 29 31 28 30 27 30 26 28 27 26 29 31 32 29
9 7 4 9 16 22 29 33 40 34 31 30 21 23 21 23 24 17 21 21 18 14 16 13 11 10 12 21 33 31 29 26 31 34 30 26 24 21 26 25 24 28 28 27 32
10 8 2 7 14 19 25 31 33 29 25 26 24 24 20 23 20 13 16 19 21 20 17 14 12 14 13 16 24 36 32 29 28 30 30 27 24 24 18 17 19 21 21 22 26
13 9 2 6 11 17 23 26 33 33 23 21 20 19 17 20 20 14 16 15 18 18 12 9 8 14 14 11 13 22 24 25 26 28 28 28 25 24 16 18 21 21 19 19 20
15 9 4 5 9 14 20 26 31 32 28 18 16 16 17 11 14 13 10 12 15 12 8 6 7 12 12 9 10 14 17 22 27 27 28 26 24 26 25 20 22 22 22 22 21
16 11 6 5 8 11 17 22 28 29 27 22 11 11 10 10 6 7 10 7 10 9 8 6 3 2 7 9 10 12 13 18 21 24 24 24 26 24 27 26 24 23 26 26 25
17 13 8 6 7 7 12 20 23 27 26 22 17 5 6 7 5 5 4 7 12 15 14 12 16 17 7 5 7 10 12 16 20 24 22 27 26 28 27 29 30 30 31 32 31
16 13 11 7 8 5 9 16 22 25 25 25 21 8 2 0 2 2 4 7 9 12 14 18 13 12 16 13 8 10 13 15 17 14 20 14 20 22 27 30 29 30 32 34 32
19 15 13 9 8 6 7 12 17 21 25 25 25 20 9 3 6 6 4 4 5 7 10 12 12 13 18 22 21 20 22 22 21 19 21 18 19 17 24 26 25 25 27 29 31
24 16 14 11 10 8 6 7 12 16 18 22 23 22 20 12 5 7 10 10 8 6 7 11 15 14 15 18 21 20 19 24 28 26 26 26 19 24 23 25 26 26 27 28 30

GFSSW_500_spd_090.txt.gz
Wind_Speed
37 35 39 38 40 42 44 48 49 54 63 66 62 52 43 36 34 37 44 50 53 54 51 46 48 49 63 62 63 54 55 65 68 63 57 54 55 52 55 51 49 57 42 41 48
37 37 38 38 39 44 44 48 50 57 65 66 61 50 44 39 41 47 51 53 53 52 57 55 54 53 60 64 66 63 66 54 67 63 57 58 57 57 53 52 47 49 51 46 45
37 36 37 38 40 44 45 47 52 61 67 65 61 52 46 46 50 50 51 47 44 49 54 59 60 61 59 66 66 63 66 52 68 63 59 59 60 58 55 54 48 44 41 43 48
36 37 37 37 39 42 44 47 54 62 67 65 58 51 48 51 51 47 42 31 30 31 37 50 62 65 64 67 67 74 60 60 59 64 59 61 60 60 58 55 52 49 45 43 44
37 36 36 38 39 40 44 48 57 64 67 63 57 51 50 52 46 41 27 23 22 25 22 37 40 70 67 65 68 76 54 66 66 63 59 61 64 59 59 56 55 54 51 47 44
36 36 35 38 38 39 43 49 58 64 66 61 56 52 52 47 38 34 19 14 17 21 20 24 33 60 66 65 69 66 64 67 46 69 65 58 63 63 60 59 56 54 53 51 45
35 34 34 36 38 39 43 50 59 63 65 60 53 52 49 41 33 32 14 14 16 15 17 20 33 41 61 64 65 66 72 71 57 51 65 61 60 63 62 60 58 54 52 50 47
34 33 32 35 37 38 42 50 59 63 62 57 53 52 43 35 30 26 5 16 15 21 19 27 39 40 54 62 65 69 76 65 73 53 68 67 60 59 65 63 56 56 56 54 50
33 32 31 33 34 37 42 50 58 61 59 54 52 51 37 30 24 18 7 12 18 20 21 37 37 33 53 60 66 70 69 64 59 46 64 60 64 62 58 64 61 54 55 54 51
32 31 30 32 32 35 41 50 56 58 56 54 52 47 34 24 19 10 6 13 14 24 26 37 27 39 47 60 65 72 66 62 41 61 57 57 51 65 59 56 59 56 55 54 54
30 30 27 30 29 33 40 49 54 54 53 51 49 38 21 21 16 5 9 12 12 23 34 33 41 40 47 49 55 63 63 57 40 33 49 57 60 40 59 59 58 55 49 54 52
30 27 24 26 26 31 38 47 52 51 49 45 39 27 17 21 14 14 13 14 16 19 36 31 40 39 43 40 52 51 58 61 41 44 45 56 45 45 41 55 56 60 54 52 54
28 22 23 21 22 28 36 45 47 46 44 40 35 26 20 22 28 29 23 24 19 28 32 35 41 27 40 44 38 45 58 59 46 30 46 49 55 53 32 33 48 51 51 58 54
28 17 21 18 18 25 33 40 42 44 40 38 31 31 30 32 32 32 24 23 21 31 23 32 42 30 22 40 33 36 40 53 41 26 31 41 44 46 35 31 34 36 36 38 48
27 14 16 14 16 22 30 36 39 44 39 38 28 37 38 31 26 25 26 16 18 34 19 27 31 29 23 33 29 32 31 36 39 30 24 41 38 28 27 32 28 26 33 38 38
24 13 12 10 13 19 26 32 37 39 35 34 29 28 26 22 20 20 22 23 25 30 22 24 30 27 27 30 29 24 24 28 30 30 30 29 23 34 21 19 25 32 35 37 37
19 12 10 8 10 16 23 28 31 37 41 30 30 27 25 21 15 21 30 30 36 34 21 20 15 15 20 21 25 18 27 31 15 16 23 29 20 16 25 22 25 28 28 29 32
20 11 10 5 6 12 20 26 28 34 35 31 23 27 22 17 19 22 26 22 29 31 27 25 18 16 17 20 25 26 24 24 25 26 17 25 27 20 26 28 26 28 27 31 30
22 12 11 5 3 9 17 23 26 28 32 29 20 22 22 22 17 18 24 35 24 24 21 22 17 17 16 19 15 27 29 29 29 22 20 20 23 23 22 23 25 27 29 29 29
22 15 12 6 5 8 14 21 22 25 29 25 24 19 24 20 16 14 11 12 10 6 8 8 8 10 14 18 19 21 24 25 29 28 25 22 23 24 27 26 28 31 31 31 32
22 18 14 9 8 8 13 18 21 21 24 25 19 21 22 19 13 11 9 9 11 14 10 4 2 8 10 16 22 24 25 25 23 30 28 29 27 24 24 24 25 25 27 30 31
23 20 16 12 10 8 14 17 22 22 20 22 20 14 15 15 14 6 8 7 11 11 5 4 3 7 9 9 16 26 34 32 29 27 27 29 28 26 22 24 25 25 26 26 24
25 22 19 15 13 9 12 16 21 20 23 20 16 17 14 9 9 8 10 7 6 5 4 10 9 6 4 5 4 10 16 21 24 25 25 27 29 28 25 27 26 26 27 28 27
28 23 20 17 15 10 11 14 18 20 22 26 18 12 11 11 9 6 6 5 5 6 7 5 6 9 5 3 6 11 12 16 21 25 26 28 27 27 25 26 30 31 30 29 28
30 24 21 18 16 12 10 15 16 16 22 25 26 18 10 5 4 5 5 4 4 7 11 14 17 14 10 9 7 8 8 9 9 13 20 17 26 27 29 29 30 32 36 37 36
30 25 21 18 17 14 11 9 14 15 18 20 23 21 17 12 4 2 2 1 1 3 7 10 9 9 9 12 15 16 18 19 17 17 18 20 22 22 25 28 30 30 30 32 35
31 24 21 19 17 15 12 9 9 12 15 17 20 22 19 14 14 11 7 6 4 4 4 4 6 10 12 13 14 16 19 20 21 22 27 26 24 28 26 28 29 27 27 28 30

GFSSW_500_spd_093.txt.gz
Wind_Speed
34 35 39 40 40 39 41 43 45 48 50 54 61 65 63 61 53 42 38 39 41 48 53 53 50 47 47 47 62 64 64 45 68 62 63 53 58 62 55 55 60 58 49 53 54
35 36 37 39 39 39 40 43 45 48 51 57 64 66 64 59 52 43 44 46 50 55 57 61 60 56 52 50 57 67 75 44 66 65 61 53 56 60 56 57 57 55 48 47 58
37 36 37 37 40 39 40 44 44 49 54 60 67 67 63 59 51 48 53 53 53 52 56 63 68 69 61 58 55 66 72 73 61 66 60 54 56 58 58 54 57 51 44 50 47
36 36 36 36 38 38 40 45 45 50 57 62 68 68 63 57 52 55 49 49 49 49 46 50 63 69 65 60 57 64 69 56 59 64 61 62 53 57 56 57 49 50 46 42 48
37 36 34 35 37 37 39 43 45 52 58 66 69 66 62 57 55 50 43 42 39 34 32 36 45 62 64 61 59 63 66 61 67 47 59 60 59 54 55 58 52 48 48 42 39
34 37 35 35 35 36 40 42 46 54 61 67 68 65 60 56 52 39 34 37 28 21 18 26 34 45 62 63 60 61 68 58 67 48 59 60 62 56 56 56 56 51 49 46 43
34 34 34 34 34 34 40 41 47 56 63 66 66 64 59 58 42 30 30 27 14 12 11 19 17 35 51 63 59 63 69 74 59 53 59 64 62 61 55 55 56 54 49 49 50
32 33 34 32 31 33 39 41 48 57 63 63 64 61 58 48 32 23 21 16 12 13 11 11 16 27 36 61 61 60 67 69 65 58 46 69 65 63 61 58 55 54 49 49 47
32 30 35 32 28 31 37 41 49 57 60 61 61 58 50 33 23 21 12 10 9 13 15 12 13 25 36 52 61 62 70 77 52 46 49 61 62 62 62 61 58 55 51 49 48
31 26 35 32 24 30 36 41 49 56 56 58 55 47 32 24 22 10 4 8 9 13 8 16 20 33 26 50 59 63 73 65 52 47 39 52 63 55 55 61 61 57 52 49 48
29 22 32 32 23 28 34 41 48 51 53 55 44 27 28 24 23 13 8 8 9 9 9 17 24 19 25 44 53 55 64 68 56 48 36 61 51 66 50 52 58 60 57 53 47
33 19 30 31 22 26 32 39 45 47 47 42 21 30 30 25 18 17 9 5 1 6 13 13 13 23 30 42 51 54 59 54 56 38 49 51 43 66 64 52 51 59 57 55 52
26 18 28 25 21 24 29 37 41 42 41 26 23 28 26 30 29 23 22 13 15 19 17 22 25 25 33 42 45 53 56 55 63 45 24 31 40 52 55 61 57 55 54 56 54
25 23 28 22 18 20 26 33 35 36 31 20 22 24 24 23 20 24 20 32 22 15 11 15 30 23 33 38 38 49 54 52 62 34 18 20 35 43 43 36 53 61 51 47 52
30 20 25 18 16 18 23 29 30 32 24 22 20 19 17 24 17 19 21 21 18 11 17 35 30 15 28 27 35 39 47 49 42 39 22 14 34 39 42 39 27 37 47 51 54
35 18 21 18 13 13 19 24 24 28 19 20 22 18 16 21 19 17 18 16 21 22 18 12 15 20 19 28 20 30 33 41 34 46 25 7 31 28 34 33 30 31 38 50 53
32 18 19 16 10 10 14 19 20 23 30 21 22 20 21 21 26 24 27 27 31 29 16 15 12 19 24 34 24 24 25 26 26 32 36 17 20 31 26 33 35 37 31 33 37
25 21 19 14 9 7 9 15 17 23 27 23 22 20 22 24 17 23 23 17 12 16 18 19 18 20 26 19 23 25 22 24 25 23 27 19 18 25 29 35 34 36 33 34 32
23 24 22 14 9 4 7 11 14 21 27 21 18 13 14 22 24 29 23 20 19 13 15 16 15 16 20 21 18 19 26 18 21 20 16 13 19 20 21 29 27 30 34 34 33
27 25 22 16 10 3 6 9 12 20 24 20 16 20 15 12 14 11 12 12 12 13 12 13 11 13 16 18 11 16 18 16 18 17 16 11 13 25 21 27 31 26 28 30 29
32 26 23 18 11 6 7 10 12 18 21 20 19 18 19 14 11 9 6 7 8 10 10 8 6 5 8 11 12 15 17 20 20 20 20 15 17 19 25 27 26 27 30 31 33
33 30 24 19 13 10 10 13 16 19 20 20 19 14 15 15 8 1 2 6 5 6 8 9 10 9 5 6 12 17 19 21 23 22 23 25 24 22 24 26 28 28 31 34 37
29 31 26 21 17 13 14 16 17 20 20 20 20 13 11 9 4 3 1 3 4 5 6 11 13 11 9 6 3 8 16 22 21 23 21 21 24 26 26 27 25 26 28 29 31
37 30 27 22 19 15 14 17 18 22 23 20 21 17 13 9 5 3 3 2 1 2 2 0 4 8 7 2 4 7 10 12 19 24 28 30 27 26 29 31 32 31 29 31 34
37 30 29 24 20 17 15 18 17 18 20 21 22 17 13 10 8 7 6 5 5 4 3 2 4 4 5 6 6 6 7 7 7 11 14 20 30 31 33 35 37 37 40 40 39
34 31 29 25 21 20 17 17 18 16 16 17 21 22 19 16 12 9 4 2 2 1 2 2 3 3 2 4 8 11 11 11 12 16 16 18 19 26 28 33 38 41 42 39 39
36 32 29 27 24 20 19 18 17 17 18 17 19 22 23 21 19 18 14 13 5 2 1 3 4 5 6 8 9 10 14 16 18 19 22 22 24 26 28 30 30 30 31 33 34

GFSSW_500_spd_096.txt.gz
Wind_Speed
41 41 40 42 44 43 42 41 40 42 45 49 49 50 56 60 64 65 61 53 44 40 40 45 47 50 51 50 46 51 66 69 80 48 64 49 50 55 59 66 57 65 53 58 53
37 40 44 42 42 43 43 39 39 42 45 50 50 54 60 63 66 64 59 49 43 41 43 48 54 54 56 54 53 51 61 69 63 51 60 51 49 53 58 61 62 56 66 60 50
36 34 38 43 43 41 41 39 40 42 47 50 52 59 62 66 66 58 57 53 51 52 53 55 59 62 61 61 58 56 52 60 61 68 53 51 51 55 57 59 60 52 59 61 63
26 29 33 40 41 38 39 39 40 42 49 51 56 61 65 66 61 61 59 56 52 47 46 49 55 62 69 66 61 57 50 53 61 64 55 55 49 56 57 54 53 54 51 59 63
27 28 30 34 37 37 39 39 38 43 51 53 59 63 66 65 61 61 57 48 41 38 41 46 46 51 62 70 64 61 52 49 65 63 50 55 51 54 62 50 51 52 54 55 52
30 24 25 32 33 35 38 40 36 45 51 56 60 64 65 65 59 54 46 35 32 36 30 18 22 35 42 61 65 61 53 50 65 71 50 39 53 53 60 52 49 49 53 46 49
31 27 25 32 32 35 37 38 40 47 52 57 61 63 65 60 49 40 30 27 29 16 6 14 13 16 27 40 59 56 57 54 59 64 59 42 57 47 59 52 54 47 51 44 40
37 25 24 29 29 34 37 35 42 49 52 57 59 60 53 32 33 30 26 20 15 8 12 8 8 11 20 31 44 55 59 55 59 51 59 41 51 52 58 54 53 49 48 46 37
35 29 23 33 27 32 36 37 44 48 51 54 55 49 26 27 28 28 13 11 6 10 4 3 4 16 19 29 44 56 59 55 60 71 46 30 44 63 60 60 55 51 50 46 34
35 27 24 30 31 29 36 38 44 45 48 49 44 25 27 25 24 23 14 6 8 8 7 6 9 7 18 29 47 54 56 54 60 63 52 30 40 53 58 62 58 53 51 48 46
35 31 25 28 31 26 36 37 40 44 44 42 21 28 25 31 24 21 10 8 10 8 6 7 1 7 19 24 44 52 51 55 64 62 66 34 21 58 59 61 59 54 50 46 42
38 30 26 28 27 27 34 34 37 40 36 26 19 24 26 29 19 19 19 14 13 8 7 5 10 5 11 28 39 48 47 55 65 56 39 30 29 40 68 61 57 56 51 46 43
40 34 24 23 23 27 33 32 33 32 27 12 18 23 31 29 26 12 13 12 10 11 5 4 4 5 14 26 39 44 43 47 57 61 30 25 33 39 50 59 56 52 49 48 44
42 34 24 24 26 28 28 29 29 26 18 9 14 24 29 20 17 13 13 17 14 6 9 8 8 20 16 28 34 35 35 46 47 30 35 9 24 31 50 49 52 50 46 45 44
41 36 23 22 26 24 23 23 22 21 12 10 19 25 26 17 13 17 18 19 18 12 17 21 28 19 17 25 29 26 30 41 40 37 39 3 23 30 30 47 51 42 38 41 42
40 29 26 17 25 20 19 18 16 16 7 13 23 23 25 15 21 14 22 24 24 21 29 25 20 20 23 27 20 20 28 39 37 43 37 8 15 21 29 32 54 52 46 47 46
39 32 21 19 23 18 14 13 10 8 12 16 22 21 24 26 26 26 25 24 21 17 17 23 20 21 20 18 16 18 27 27 32 36 34 5 8 12 23 29 33 28 25 34 47
37 24 22 18 19 15 9 7 6 8 14 19 22 26 26 26 20 17 23 21 20 19 20 18 17 17 22 16 13 15 22 23 20 23 27 15 3 15 15 17 23 28 29 28 29
42 26 19 21 18 13 4 3 3 10 17 16 15 18 17 20 21 23 24 21 20 21 16 14 13 17 18 17 20 17 19 17 16 15 25 16 9 7 19 24 24 29 28 27 28
30 26 17 21 18 11 4 3 6 13 20 16 15 16 10 11 13 15 19 19 18 19 19 17 13 11 11 22 19 20 21 17 15 15 15 11 14 14 14 25 27 26 30 31 34
31 28 24 22 18 11 8 7 7 14 19 21 17 11 9 10 11 14 16 18 19 20 18 14 16 13 12 12 14 18 15 15 17 16 17 15 14 20 19 20 23 26 28 33 39
35 30 25 23 17 13 11 10 13 15 19 20 16 14 11 8 4 8 11 15 18 18 18 19 17 15 12 10 11 10 9 11 15 12 13 12 11 13 18 24 25 29 30 31 35
32 26 26 23 19 16 14 12 15 17 20 22 18 13 9 4 5 6 8 8 11 14 16 16 18 15 14 11 8 4 2 5 8 12 16 20 22 21 23 23 26 29 33 35 35
29 27 26 23 21 18 17 18 18 17 21 23 21 19 13 7 3 2 3 4 4 6 5 6 9 11 10 9 8 5 1 3 7 11 15 18 22 24 24 29 32 32 34 38 39
29 29 27 24 21 21 19 22 22 19 18 22 24 22 17 14 10 7 6 5 6 6 4 4 5 6 6 7 3 2 2 4 6 7 7 12 16 25 31 32 34 36 40 41 41
30 30 28 27 24 23 21 19 23 22 20 19 21 22 21 17 15 12 10 7 5 5 5 6 6 5 3 1 1 3 4 5 8 11 13 14 15 17 20 23 26 32 37 40 45
36 33 30 25 23 22 21 20 19 20 22 21 21 23 22 21 22 22 21 19 17 11 7 5 1 0 0 0 2 4 6 9 11 14 16 17 20 22 25 27 28 30 32 34 39

GFSSW_500_spd_099.txt.gz
Wind_Speed
39 39 35 36 38 42 44 43 43 44 41 46 45 46 47 50 55 57 61 62 63 64 55 45 42 44 49 50 54 54 54 52 55 63 56 56 60 54 52 59 54 66 61 52 56
38 38 38 36 34 36 39 41 42 43 43 44 44 47 46 55 58 59 63 65 66 65 56 45 45 48 52 53 57 60 57 51 46 52 58 52 63 61 55 59 55 62 68 49 64
40 36 35 36 32 31 35 40 42 38 39 42 46 47 51 58 60 62 66 69 67 59 55 50 48 53 55 57 57 62 58 48 43 48 62 70 56 61 55 60 57 56 58 66 45
43 36 36 37 35 29 35 38 38 42 43 45 47 48 56 59 62 67 72 72 64 54 49 49 51 57 59 61 59 62 58 54 45 48 65 67 53 60 53 55 61 55 53 66 58
39 38 33 34 30 27 32 32 37 42 40 44 45 52 57 59 65 69 67 56 49 44 40 40 43 50 56 62 66 62 60 58 49 48 59 61 59 47 56 53 53 50 54 62 57
35 36 34 38 29 32 33 34 41 40 45 44 47 53 57 62 57 50 45 42 37 29 27 32 35 37 41 57 61 59 60 59 52 48 50 60 64 49 49 53 53 49 55 53 50
37 35 36 34 38 31 31 34 42 37 48 45 48 53 55 50 40 37 40 39 25 20 9 6 9 7 10 20 41 58 58 60 54 50 47 59 65 50 56 53 47 54 40 41 50
39 36 36 31 29 26 34 38 44 42 47 43 48 51 43 36 37 39 38 23 7 7 9 3 6 11 10 10 18 36 54 55 52 50 48 59 58 48 46 47 45 51 43 36 38
40 37 37 30 31 31 31 38 42 46 42 42 45 37 34 34 35 32 25 12 13 10 6 9 6 6 15 14 19 28 44 49 52 49 50 56 62 53 51 44 44 47 46 38 41
41 38 36 32 32 26 32 35 40 41 36 40 33 29 29 32 21 23 20 14 13 12 13 14 10 8 16 19 18 22 36 47 50 45 50 58 50 36 60 48 45 47 49 43 39
43 39 37 33 31 29 28 37 39 32 35 33 22 24 22 24 21 20 23 20 8 9 11 8 6 8 7 14 22 15 42 47 43 39 47 66 51 27 52 51 51 45 47 40 45
49 40 39 35 32 23 27 32 36 26 29 21 20 23 19 21 25 24 23 19 14 12 16 13 6 8 8 17 25 18 42 39 40 37 45 63 42 27 45 50 52 48 46 37 40
51 44 41 35 32 19 23 28 29 25 22 15 16 17 18 19 22 24 22 18 15 12 16 16 11 4 5 25 16 26 38 37 36 34 53 60 50 30 33 60 51 50 51 45 40
53 48 40 36 31 15 21 29 18 20 11 12 11 15 18 20 23 22 23 21 15 18 16 19 14 12 19 22 22 28 38 26 26 36 34 48 16 21 35 43 53 53 52 47 42
57 48 40 36 28 14 21 24 14 14 5 7 9 17 21 20 22 23 23 26 23 18 24 25 25 26 26 23 24 28 28 19 22 29 23 11 7 6 31 47 47 49 50 46 43
60 48 39 32 19 10 18 12 11 7 8 10 13 20 22 24 25 24 30 30 32 28 28 26 26 31 31 24 21 20 16 25 22 30 30 11 13 12 21 29 48 49 43 40 37
60 46 39 33 21 11 16 5 2 4 11 11 15 17 20 23 23 23 25 28 26 24 19 20 23 27 24 19 17 15 12 18 27 36 31 7 5 12 8 19 34 40 41 30 29
53 45 37 34 18 14 14 4 4 5 16 19 20 21 24 25 22 23 26 27 24 18 21 23 23 21 20 12 16 15 16 15 25 34 21 19 6 5 15 17 31 39 38 40 36
50 41 36 24 19 10 9 3 7 14 20 17 15 17 17 21 24 21 22 23 24 21 18 19 21 18 16 16 14 12 16 16 12 17 16 11 7 7 11 11 17 28 37 31 30
46 40 30 22 17 10 8 8 11 17 19 14 13 9 13 17 22 21 22 23 21 19 18 18 15 12 17 15 18 21 19 13 14 11 13 7 4 4 10 11 9 15 19 24 23
43 41 27 20 15 13 12 12 13 19 18 17 11 9 12 13 18 19 22 24 22 18 18 19 21 19 17 22 22 21 21 15 12 10 7 5 4 3 2 5 15 16 18 22 24
42 29 21 18 17 15 15 15 16 19 18 15 12 9 10 11 13 14 19 23 25 27 26 20 19 19 18 19 20 22 20 18 13 9 9 7 7 9 9 10 11 14 18 18 20
33 26 21 19 18 17 18 17 19 20 20 16 12 9 6 6 10 12 14 14 16 18 21 22 22 20 25 20 17 18 15 15 13 12 13 9 6 5 7 8 13 18 20 23 26
28 23 23 21 19 20 21 21 20 23 24 19 15 9 5 8 7 9 11 9 8 10 11 15 18 19 20 19 19 16 12 8 5 5 6 10 13 15 16 18 20 23 23 24 29
24 24 24 20 19 22 24 24 24 23 23 23 22 18 16 15 12 12 11 11 12 13 12 10 13 15 15 15 13 11 9 5 2 1 4 7 12 14 17 21 25 28 30 34 37
19 27 25 23 22 25 26 25 26 25 25 23 22 22 20 20 19 17 17 15 14 14 13 12 12 11 8 9 8 6 4 3 5 6 9 13 16 17 18 19 22 25 30 36 40
22 25 23 22 24 25 24 24 25 25 26 24 24 23 25 24 25 25 25 23 22 19 19 16 15 14 12 10 7 4 6 7 9 11 14 17 22 24 27 30 31 31 32 33 35

GFSSW_500_spd_102.txt.gz
Wind_Speed
46 48 47 42 43 43 39 38 38 39 40 40 45 49 49 46 49 48 50 53 57 59 61 62 62 62 62 62 55 54 60 60 52 47 50 44 52 53 55 62 71 74 73 79 63
48 50 48 43 41 43 38 37 39 37 38 40 44 43 43 44 49 52 53 57 58 62 62 63 67 64 60 58 55 59 59 59 49 55 56 43 52 54 56 63 66 66 65 81 75
52 51 49 43 42 39 38 38 40 38 36 38 39 42 49 48 52 51 53 55 60 64 66 67 65 60 56 56 58 61 61 58 59 57 53 47 53 55 64 57 59 55 60 63 82
52 53 49 40 41 38 40 38 36 35 36 40 42 44 49 53 42 48 55 58 62 65 66 63 56 52 53 57 61 63 59 61 59 62 56 46 50 56 64 56 48 59 60 64 77
51 51 48 40 38 36 39 36 37 38 38 39 45 52 42 44 43 51 53 55 59 59 58 56 51 50 51 55 61 65 60 58 60 62 56 48 50 59 61 67 58 52 53 65 59
48 48 43 39 36 36 37 33 36 34 39 45 48 52 41 41 38 44 48 50 51 50 44 37 33 34 36 43 55 60 61 58 59 61 56 51 50 60 62 63 60 51 51 56 60
46 43 40 36 36 35 33 34 34 39 42 43 49 36 34 36 35 38 35 37 30 21 11 6 4 10 6 11 20 44 59 58 58 59 54 52 50 58 62 47 58 57 49 60 51
43 42 38 35 37 36 30 33 32 37 36 42 35 28 28 28 29 21 30 26 15 11 9 8 9 10 12 17 14 18 35 58 57 59 51 52 43 54 50 50 51 57 50 60 38
45 41 39 33 36 35 31 33 36 37 35 39 24 22 24 24 11 19 27 24 14 12 10 11 13 12 13 16 17 15 17 36 52 55 49 50 38 39 55 45 48 49 48 54 37
51 49 41 33 36 35 33 33 33 32 32 24 16 20 15 15 14 18 24 22 11 10 12 13 12 13 15 13 14 15 13 23 45 48 47 47 34 44 55 47 56 50 43 50 45
44 50 46 36 37 34 32 32 30 35 30 14 13 14 13 10 15 20 21 17 15 16 16 18 9 7 9 14 10 10 14 22 35 40 43 39 31 43 47 49 38 55 46 56 39
37 40 48 40 36 32 27 30 32 32 11 7 11 11 13 9 15 19 21 17 14 12 16 14 4 11 6 7 13 10 23 34 30 37 36 33 33 43 42 35 43 42 44 56 63
37 32 47 43 33 30 26 32 28 20 6 9 12 10 9 11 14 18 19 15 14 14 15 16 3 8 7 19 17 24 33 33 30 33 31 29 45 56 43 37 39 43 40 44 47
39 34 42 41 31 29 26 28 29 7 9 14 11 8 5 10 15 18 17 13 11 16 15 9 9 10 21 18 28 31 27 29 24 24 20 29 29 50 22 24 49 44 44 42 44
42 39 45 41 32 26 29 18 5 6 11 13 13 13 11 13 16 18 25 19 11 24 21 22 28 22 25 31 35 31 26 25 20 14 17 26 13 35 27 22 51 43 41 41 40
47 46 44 37 29 25 27 18 7 13 15 13 8 13 16 16 17 17 17 25 26 16 25 30 32 33 31 32 30 27 25 22 21 20 17 26 13 19 18 33 44 46 45 37 40
51 47 42 34 28 25 22 10 13 20 21 14 13 17 16 17 20 22 19 20 21 20 22 27 29 34 29 26 20 21 30 23 21 30 24 15 14 18 23 27 32 43 39 37 32
51 46 39 35 27 20 7 8 19 22 21 20 18 18 18 17 19 20 23 21 21 18 25 22 25 20 22 19 21 22 19 25 29 23 15 11 15 22 18 18 22 31 34 36 34
52 44 39 33 30 19 8 14 19 22 22 17 15 17 19 18 19 19 19 22 22 20 17 19 20 21 23 24 23 23 18 19 26 24 11 23 20 22 16 16 15 25 29 31 26
48 41 35 31 22 14 12 15 21 25 19 14 11 14 18 19 19 21 19 20 18 19 13 18 14 20 19 23 29 27 16 17 17 23 11 19 23 19 17 13 10 12 20 22 30
42 37 32 26 19 16 15 15 20 23 18 12 9 13 16 17 21 22 25 22 22 22 27 20 17 22 26 28 30 25 21 14 10 8 8 14 15 18 16 12 8 6 10 17 24
35 30 25 22 20 19 17 15 18 21 17 12 9 11 17 17 18 20 24 26 25 23 20 22 23 21 24 24 27 27 25 18 13 13 8 12 10 13 12 10 6 4 2 7 12
30 24 23 22 21 20 18 18 19 19 16 11 9 8 9 12 13 14 14 16 21 21 21 21 22 24 22 26 27 28 26 22 16 13 6 3 6 8 12 13 12 9 9 12 15
19 18 22 21 23 20 20 21 19 18 16 11 9 8 11 13 15 16 15 13 16 18 19 19 21 24 25 25 24 25 23 19 17 4 2 2 4 6 9 11 14 17 20 23 25
18 20 22 22 24 23 23 25 24 21 19 16 16 15 15 15 18 17 16 18 17 17 18 18 18 20 23 25 24 21 17 16 13 8 2 7 10 13 18 23 24 27 30 34 37
15 19 23 23 24 25 25 26 27 26 26 24 23 22 20 20 24 22 22 22 21 20 18 16 15 15 15 14 14 13 11 9 4 2 10 8 9 13 16 19 22 24 25 29 32
17 17 21 24 26 26 26 27 27 27 27 27 26 26 26 26 27 27 27 26 24 25 23 23 19 18 18 15 14 14 12 8 7 6 3 2 4 9 12 15 19 21 22 25 33

GFSSW_500_spd_105.txt.gz
Wind_Speed
52 51 49 49 51 49 49 49 46 45 43 41 39 41 41 41 42 41 43 49 56 53 55 57 57 57 60 60 59 59 65 67 62 63 62 52 53 53 50 52 52 55 55 60 85
53 54 53 51 52 50 51 49 45 42 42 41 43 43 41 40 39 42 47 53 51 51 57 62 62 61 63 63 62 63 67 67 63 63 64 56 55 53 54 53 53 57 56 71 79
55 54 55 54 54 50 51 51 46 40 42 43 42 38 42 43 41 44 50 55 49 53 56 54 54 57 61 64 63 64 66 64 66 65 64 60 61 63 64 57 55 60 59 69 76
58 57 54 53 53 51 49 49 43 41 41 39 44 42 46 44 49 53 51 41 45 45 46 48 52 58 62 63 65 66 66 65 63 65 70 63 62 63 59 52 57 52 63 77 67
58 56 54 50 50 50 46 43 40 40 36 40 41 42 45 47 50 46 40 40 41 44 47 50 55 59 59 59 60 63 63 61 63 66 70 63 66 62 57 54 53 60 66 73 59
58 55 52 46 45 46 41 36 40 38 36 37 39 42 48 46 36 34 31 30 34 39 41 40 41 42 44 45 49 52 60 62 65 68 69 65 64 64 56 53 54 59 60 60 65
52 51 47 43 41 39 36 35 39 33 32 35 39 43 47 28 29 24 16 19 24 21 19 15 15 17 16 19 20 26 40 52 62 64 65 60 64 66 53 53 53 58 62 52 55
47 48 44 41 37 35 32 35 36 29 34 33 37 49 22 22 19 9 16 19 18 18 16 13 13 14 16 16 19 23 23 24 29 56 57 59 60 53 48 53 53 58 64 46 45
46 46 41 41 35 33 33 36 30 33 29 35 39 17 16 10 4 12 17 21 18 19 18 17 17 17 20 24 21 26 25 25 22 35 51 55 50 43 55 48 48 55 60 53 42
49 48 42 41 35 34 33 34 30 28 26 35 27 14 9 4 7 13 15 18 18 20 21 23 22 20 20 22 22 13 21 24 22 27 41 48 46 43 45 42 44 52 53 47 37
38 39 46 45 40 34 32 31 28 22 28 31 6 6 3 2 11 15 16 16 17 17 19 21 25 15 18 20 16 12 14 13 12 24 32 40 35 39 37 37 40 54 52 50 39
30 34 37 43 41 36 32 29 21 17 21 5 2 4 5 6 11 16 12 13 15 15 14 18 15 12 17 8 8 9 6 12 18 11 24 28 33 33 29 32 37 48 42 50 48
30 29 30 36 39 35 29 22 16 17 17 7 6 4 2 9 13 13 9 12 17 19 16 16 9 10 2 5 10 8 25 19 17 17 22 25 24 27 24 29 39 26 45 44 50
22 30 30 35 37 34 23 18 14 14 7 8 6 4 6 7 12 14 10 11 22 13 7 6 8 9 3 10 18 21 17 22 25 22 19 19 18 16 19 28 34 25 43 43 54
29 32 28 31 31 27 21 11 8 17 14 15 9 7 9 9 9 9 18 13 15 17 14 13 17 32 32 30 27 25 26 33 27 17 15 16 13 14 26 25 22 29 47 43 41
35 36 25 28 29 25 17 10 5 17 15 13 11 11 12 14 11 9 12 16 20 24 27 27 30 28 30 32 31 23 27 22 23 17 22 15 12 20 22 9 25 38 38 44 35
35 34 29 31 28 22 14 7 17 20 19 14 11 12 12 12 13 11 12 12 18 21 27 31 27 21 20 25 18 25 17 19 18 21 20 12 7 19 16 10 27 34 34 29 30
37 33 31 30 24 19 18 22 26 21 20 16 14 13 13 13 12 12 11 8 17 18 12 9 15 16 17 16 19 15 16 24 18 27 24 17 20 17 16 19 24 37 34 27 24
37 36 32 29 20 14 19 29 26 25 21 18 16 12 11 14 14 11 13 14 14 13 16 18 20 22 25 24 21 18 27 26 31 31 27 24 22 20 23 24 24 28 35 36 26
39 35 31 27 20 14 26 31 28 23 17 14 14 13 13 14 16 14 13 10 8 6 14 18 19 28 25 26 21 25 27 30 35 37 30 29 28 28 21 23 25 24 25 24 24
36 31 27 20 13 13 24 29 28 21 14 11 13 13 13 16 19 18 17 15 15 14 14 12 18 28 24 26 25 27 28 24 31 28 29 31 33 33 29 25 21 14 13 14 10
26 22 15 13 15 18 23 27 23 18 11 10 13 14 12 13 17 20 21 17 13 15 22 24 26 27 25 29 26 26 21 20 17 18 17 18 23 24 24 21 18 15 16 13 9
18 16 15 15 16 18 18 21 19 13 9 7 8 10 9 9 11 11 15 18 16 17 17 20 20 25 28 27 26 22 17 13 14 12 12 13 12 9 9 9 10 9 7 5 3
16 17 16 17 17 17 17 15 13 10 8 8 8 10 11 12 14 14 16 16 16 15 16 19 26 23 28 30 26 24 17 14 10 10 9 10 9 7 6 2 2 2 4 7 11
17 16 18 18 21 21 20 18 17 16 16 16 15 15 15 15 15 16 17 18 18 17 17 18 21 26 26 26 24 20 15 10 5 6 5 7 9 10 8 5 7 9 11 12 15
16 16 18 20 23 24 25 24 25 24 24 23 22 21 21 22 22 21 22 21 21 20 18 19 18 19 18 17 17 17 14 9 6 1 3 8 8 11 12 12 13 16 20 21 21
16 15 18 22 22 24 26 26 26 27 28 28 27 27 27 27 26 26 26 26 26 24 23 22 20 19 16 14 12 13 12 10 10 12 11 11 12 11 10 11 14 18 21 24 27

GFSSW_500_spd_108.txt.gz
Wind_Speed
56 57 57 54 50 48 47 48 47 47 46 45 45 43 41 44 43 41 42 41 38 42 45 44 49 56 57 55 57 57 59 58 56 56 53 54 56 56 58 55 51 56 53 60 51
61 58 58 57 54 50 48 47 48 47 46 47 44 43 42 44 44 42 41 41 44 42 42 46 53 53 52 59 61 62 62 61 58 60 60 60 60 58 59 62 61 55 54 68 54
63 62 58 56 54 49 48 48 49 47 47 47 45 41 43 44 42 42 42 45 47 49 51 49 48 53 57 60 61 62 66 63 63 65 65 67 69 63 64 65 67 66 55 62 59
65 62 55 53 49 48 49 48 49 47 46 45 43 40 41 43 42 44 46 49 52 49 48 48 44 45 52 52 56 59 62 62 63 66 66 68 67 67 68 67 67 68 65 68 66
62 59 53 50 47 46 46 47 47 45 44 41 40 39 40 42 42 45 48 52 41 43 44 44 44 45 46 49 53 54 58 60 62 64 66 68 69 71 70 65 65 65 66 60 61
57 54 52 48 43 42 43 45 44 40 39 37 39 35 38 38 42 39 45 34 35 39 40 38 34 33 37 41 45 48 54 59 62 64 68 69 74 76 71 63 64 64 59 60 62
50 48 47 46 42 39 40 39 38 36 35 37 36 34 35 39 37 39 28 23 29 29 23 17 15 19 22 23 29 34 40 42 47 53 61 67 73 75 72 64 66 64 61 61 63
45 42 40 37 34 35 34 33 35 31 33 33 29 29 31 31 31 26 16 17 17 17 18 19 20 20 21 21 25 27 29 27 23 31 40 53 72 70 66 56 61 62 62 63 57
36 34 32 30 31 31 30 29 29 29 31 25 23 23 29 24 18 12 16 19 18 20 20 22 22 23 23 28 25 28 27 26 22 30 28 37 48 58 51 55 58 60 55 52 52
24 24 26 29 29 30 28 26 27 27 24 18 18 25 18 10 9 12 15 15 17 20 21 22 24 24 27 30 24 27 25 20 23 26 33 31 29 29 42 49 49 50 49 47 47
24 26 31 31 30 29 27 26 26 21 15 14 21 14 4 6 9 15 18 18 19 22 21 22 20 24 22 21 25 21 16 17 20 22 23 20 16 21 16 37 39 40 43 44 43
10 15 20 18 29 28 23 21 20 15 10 10 7 5 6 6 11 14 14 12 18 22 24 19 19 13 13 13 8 6 7 8 3 6 4 8 12 23 24 21 29 33 34 36 39
8 12 21 28 19 21 13 13 16 13 8 8 6 6 4 4 11 12 12 13 21 21 19 12 8 4 4 6 4 8 11 6 11 19 19 16 7 15 15 13 17 25 26 30 44
11 18 23 28 24 21 22 16 14 10 9 9 7 4 1 5 7 10 14 18 19 16 10 11 5 3 8 15 17 17 18 16 20 19 17 14 14 10 8 12 14 25 25 31 35
15 22 25 37 31 27 18 13 9 10 15 12 9 6 5 7 8 11 17 20 19 18 18 22 25 24 21 19 21 23 14 26 30 21 15 12 11 14 7 15 18 18 22 31 43
30 28 34 41 30 23 15 16 25 23 17 12 9 8 9 10 8 11 14 16 20 28 27 23 22 23 24 22 24 21 20 6 8 6 6 2 8 3 5 11 15 10 12 38 40
35 35 34 34 29 25 21 26 24 19 18 12 10 9 7 11 10 12 13 9 13 15 21 16 13 15 15 17 16 13 17 13 13 13 10 9 11 18 17 14 17 20 31 41 39
39 40 37 32 28 21 17 22 22 21 16 16 13 12 11 12 12 8 9 10 7 4 13 8 10 11 14 13 11 17 20 23 15 13 5 19 12 13 8 16 14 23 30 31 28
39 35 30 24 24 25 28 28 25 23 19 15 14 11 15 12 11 10 12 8 7 11 10 13 20 16 14 15 20 22 25 24 22 16 22 24 25 25 22 23 22 23 24 29 17
33 31 30 21 15 26 28 28 26 21 17 14 15 16 15 14 12 12 10 10 9 14 12 15 23 20 22 25 29 43 42 38 31 34 29 22 21 24 23 29 25 26 26 17 14
28 24 22 21 26 31 27 25 20 15 14 13 15 16 17 18 17 13 13 13 13 9 11 16 22 30 32 29 35 36 33 33 35 36 39 39 42 29 14 33 21 27 25 22 19
23 24 23 19 22 25 23 20 15 10 12 15 13 13 13 14 17 15 15 19 17 13 15 20 24 22 24 26 28 27 26 24 26 29 28 31 34 34 31 30 27 26 23 19 18
29 26 24 24 20 19 17 13 10 6 9 9 10 8 7 8 11 13 16 21 17 19 21 24 22 23 21 20 20 20 20 20 20 21 20 19 23 20 19 17 17 16 14 11 9
30 28 26 24 21 17 14 10 7 7 7 9 12 13 13 12 12 15 15 18 21 17 19 24 22 20 21 20 19 16 15 15 15 15 14 15 13 14 13 11 10 8 8 7 2
30 27 26 25 24 23 21 15 14 14 15 16 16 16 17 17 15 16 18 18 21 18 19 21 22 19 19 16 13 11 9 9 8 9 9 9 9 10 11 9 7 3 3 3 6
26 25 26 28 28 28 27 26 24 24 25 26 26 26 25 23 23 23 21 21 21 19 20 19 16 14 12 10 8 7 7 9 12 15 15 16 14 16 16 15 14 11 9 7 7
21 22 23 25 26 27 27 28 27 27 27 28 28 29 30 30 29 27 27 28 28 26 22 17 14 13 12 10 9 11 12 14 16 18 19 19 20 21 22 20 19 19 18 17 19

GFSSW_500_spd_111.txt.gz
Wind_Speed
61 60 59 58 54 53 53 53 50 47 42 42 41 40 39 41 41 39 40 41 41 40 42 39 41 41 42 44 48 55 58 57 51 51 49 48 53 53 55 52 52 51 56 59 55
63 61 59 57 56 54 53 52 50 48 45 41 42 42 38 40 41 40 40 39 41 43 42 41 42 44 44 45 47 53 54 57 54 53 53 53 57 56 59 60 55 55 61 62 60
66 64 61 57 57 54 52 52 52 47 45 41 41 43 40 40 42 40 40 40 42 42 44 43 43 44 48 51 53 53 53 55 54 59 59 59 60 59 62 61 62 58 60 63 62
68 68 65 63 60 56 53 53 48 44 40 40 40 41 41 40 40 39 40 40 41 43 46 50 46 45 43 48 52 52 53 56 54 57 60 62 66 62 65 63 64 66 65 66 61
56 58 57 58 59 55 52 48 42 40 38 36 38 39 40 38 37 38 39 40 41 42 45 47 48 43 44 47 49 50 49 48 51 55 57 62 66 67 67 67 66 70 69 66 66
47 44 45 48 51 48 44 40 37 36 35 34 36 37 34 34 35 35 35 34 33 37 44 43 39 40 41 43 45 48 51 50 54 58 62 63 66 69 63 68 68 70 71 63 64
43 37 35 40 43 42 39 36 33 34 33 33 32 31 30 31 31 33 29 32 31 33 34 30 30 35 36 37 38 42 42 46 49 56 58 69 66 68 67 70 69 68 68 66 62
27 34 30 35 39 40 38 36 32 28 29 26 27 27 26 27 27 28 27 27 23 21 21 24 28 29 28 29 29 28 33 35 33 43 45 58 56 61 69 72 71 69 70 67 62
20 27 27 32 34 34 30 21 21 24 23 23 22 21 19 21 24 18 15 16 20 22 22 26 28 33 31 31 30 35 36 34 31 35 39 47 55 53 58 66 69 68 69 70 65
10 20 24 28 26 27 20 20 21 22 20 17 12 14 15 16 13 8 13 19 20 22 26 29 30 30 28 30 32 29 31 32 32 28 36 37 45 42 49 56 63 66 64 65 64
9 11 21 24 26 23 22 22 22 19 13 8 9 10 13 7 3 10 15 17 16 21 26 28 27 25 24 26 19 14 5 2 13 18 22 20 23 27 32 38 35 47 58 53 51
8 17 14 19 22 22 22 20 17 12 9 8 9 10 8 5 4 11 11 13 17 24 24 18 12 7 4 1 3 10 11 6 6 7 11 9 8 8 11 11 13 21 28 36 41
13 27 27 18 17 20 19 24 15 13 10 8 10 8 6 2 7 9 11 11 15 10 5 4 11 14 14 11 8 7 7 11 15 16 14 17 20 22 20 12 8 16 19 26 29
12 34 30 28 23 24 24 16 16 14 16 12 11 9 5 1 6 7 15 19 16 15 19 22 21 19 18 20 19 20 18 14 14 18 22 26 27 13 9 11 11 8 15 19 23
19 35 41 40 34 30 23 23 19 17 19 15 11 10 7 9 18 18 19 19 18 19 21 20 17 19 20 19 19 21 18 16 15 16 16 19 14 9 6 5 8 15 17 16 21
43 45 43 40 30 23 20 20 19 21 17 16 14 11 9 13 15 13 10 17 18 18 19 17 13 14 14 13 18 18 20 21 22 8 15 7 5 5 1 4 12 14 17 18 24
46 44 38 29 24 23 23 28 24 22 21 15 13 12 10 15 13 11 5 5 12 12 11 8 9 12 14 19 15 24 22 11 21 23 16 8 5 4 6 12 17 21 20 21 34
39 34 32 25 23 33 30 27 23 19 19 18 15 13 11 14 15 9 4 4 8 10 12 10 10 13 12 15 15 20 14 6 13 6 6 11 10 14 14 22 27 31 23 25 26
32 30 24 20 31 31 29 23 24 22 20 20 18 14 16 16 16 11 6 6 9 12 13 12 12 13 13 13 14 15 15 11 14 20 19 19 14 15 28 30 31 20 37 23 23
34 23 27 32 33 29 27 24 24 21 20 18 21 21 20 14 10 7 8 11 12 14 16 16 18 18 19 22 19 18 18 20 18 25 28 19 21 18 13 29 30 22 25 24 14
37 32 31 30 26 26 21 20 20 21 19 17 20 23 21 19 14 10 7 7 9 20 27 32 32 30 27 28 29 31 34 36 36 30 32 32 25 21 33 32 26 22 24 12 10
41 30 27 25 21 19 17 16 17 16 18 15 15 16 18 20 17 14 11 11 16 24 23 19 23 23 22 24 25 25 25 24 29 34 30 38 40 31 21 23 25 13 11 22 22
41 35 26 22 19 18 14 14 15 15 15 14 13 16 19 19 18 16 15 17 21 23 18 16 15 13 16 16 19 19 21 19 17 18 15 18 32 37 35 29 27 24 19 14 16
41 38 34 30 26 21 20 18 16 16 17 16 16 21 21 22 18 18 16 17 22 18 16 15 13 13 14 15 17 17 18 17 16 14 19 19 19 21 21 20 16 13 11 9 8
37 38 37 35 33 30 29 29 27 25 26 26 26 24 25 24 20 18 18 22 23 18 12 9 10 12 14 16 18 17 17 15 16 21 21 22 24 22 19 17 15 14 13 11 8
34 33 33 33 32 31 31 32 33 33 32 33 34 35 33 31 26 21 22 22 18 13 12 12 13 14 15 17 19 19 21 23 25 25 25 27 25 24 23 21 19 17 14 9 9
26 29 29 29 28 28 27 28 29 29 30 30 31 32 31 31 31 30 27 27 25 24 23 23 22 21 22 23 22 23 23 23 22 22 20 19 17 15 12 12 11 9 6 7 9

GFSSW_500_spd_114.txt.gz
Wind_Speed
63 61 59 58 56 55 53 54 50 49 48 47 44 42 42 42 40 39 37 38 39 38 37 38 40 41 43 43 42 43 47 48 50 51 50 45 49 52 52 50 52 54 54 53 54
62 60 58 56 54 54 52 51 51 48 48 47 43 42 41 41 40 39 39 39 40 39 40 40 40 43 44 44 43 44 46 46 46 47 50 52 58 56 55 53 55 56 58 57 58
59 57 57 55 53 53 50 48 50 48 46 44 44 42 40 39 40 39 38 39 40 41 40 41 42 42 44 44 44 45 46 48 48 47 49 53 60 60 61 56 55 58 61 61 60
52 53 54 51 51 50 48 47 45 45 43 42 43 41 38 38 39 38 38 39 40 40 40 42 43 43 44 46 49 46 45 46 49 52 52 52 57 58 62 55 55 57 62 62 62
40 40 45 47 46 42 46 47 48 48 48 46 43 39 35 35 36 38 37 36 39 39 39 41 41 41 42 44 46 48 47 48 49 51 54 55 58 61 58 59 61 62 61 63 63
26 35 32 36 40 40 39 38 39 41 43 42 39 36 32 32 31 35 35 35 36 35 36 36 36 37 42 43 43 45 45 49 51 53 54 59 58 64 57 64 63 65 66 65 66
25 28 28 25 32 31 32 33 32 32 34 32 31 30 29 30 33 33 31 31 34 34 36 37 37 36 37 39 39 39 40 45 49 53 53 65 55 55 60 66 65 67 69 68 69
22 19 21 26 22 25 23 28 28 24 27 28 27 28 27 26 26 24 25 27 27 28 28 31 31 32 32 34 36 41 44 43 43 49 53 60 51 57 67 72 68 68 72 73 70
12 14 25 29 22 22 24 24 29 38 34 26 23 20 20 20 19 19 18 21 21 22 23 25 26 32 34 36 40 44 46 46 46 46 53 59 57 55 60 71 73 73 72 73 69
7 13 17 27 28 22 23 25 27 26 22 14 15 16 13 12 13 15 12 14 19 22 25 29 33 35 36 39 40 38 40 39 41 37 50 52 52 56 55 64 70 71 74 74 73
4 5 16 31 26 19 22 24 23 17 14 12 10 8 6 7 4 6 11 14 17 21 27 30 31 33 34 25 19 12 13 15 19 16 16 22 27 38 51 62 68 70 70 71 75
3 7 21 40 38 31 28 23 21 15 12 9 8 5 6 6 2 9 11 16 22 26 26 26 21 8 3 3 5 2 6 3 3 3 8 11 19 13 7 12 40 50 57 60 60
23 25 30 35 33 31 28 23 18 17 15 12 8 9 11 6 3 6 8 8 10 8 2 5 12 14 13 10 9 12 13 14 13 6 16 19 20 19 17 14 8 12 20 35 44
28 30 36 32 32 30 28 25 21 18 16 13 14 12 9 4 8 11 14 16 19 17 16 15 14 17 15 12 11 16 15 14 15 12 11 13 13 12 14 13 12 12 11 12 23
37 32 33 33 32 28 25 23 19 17 16 15 15 13 11 14 17 17 15 16 16 15 15 15 13 11 13 14 22 23 22 18 14 10 10 5 7 7 8 11 13 14 18 19 18
42 37 31 31 28 26 22 22 20 21 19 16 15 15 16 19 17 14 11 10 7 9 9 5 7 11 12 17 21 21 20 14 18 16 14 9 9 5 8 6 9 13 19 21 22
40 33 27 26 25 22 21 18 18 20 21 16 14 15 16 17 16 6 7 7 8 7 6 5 8 7 11 12 15 11 14 17 15 16 13 14 12 10 5 7 14 18 21 21 21
34 30 32 35 33 30 28 23 19 18 17 15 15 15 15 18 13 4 4 8 10 7 7 9 10 7 12 14 9 11 15 13 10 7 6 12 13 8 12 19 22 22 20 24 12
41 39 38 36 33 30 27 24 25 23 20 18 16 15 15 15 6 4 4 12 9 8 8 7 8 9 11 9 6 6 7 5 8 8 10 14 12 13 18 16 27 32 20 18 24
39 38 36 34 31 29 26 22 25 28 26 22 18 18 17 15 13 10 9 12 14 11 10 11 12 13 17 10 10 16 8 10 12 14 16 15 16 17 14 17 15 32 23 21 21
38 32 28 26 24 26 25 26 23 23 24 24 22 19 17 13 11 7 13 18 23 24 18 18 16 17 20 21 20 24 20 25 15 16 13 20 27 26 30 24 32 26 24 22 18
44 38 32 29 25 25 24 25 25 22 23 23 21 19 15 14 13 13 24 30 26 19 15 14 13 15 16 16 18 20 26 23 18 24 19 14 25 24 23 25 21 14 21 20 25
46 43 41 35 32 27 26 28 27 25 26 25 22 22 18 19 20 23 27 23 16 12 9 11 11 13 14 15 19 15 18 19 17 16 21 23 19 21 26 27 30 27 25 24 20
42 44 42 41 40 37 34 31 28 28 26 23 23 27 25 24 24 23 17 15 9 6 9 13 15 17 18 18 15 18 18 21 21 22 18 19 18 21 22 21 18 16 15 13 11
36 37 40 39 39 39 39 40 37 29 26 25 28 30 29 27 22 21 15 10 5 10 10 12 15 16 19 19 21 24 27 29 28 28 27 24 24 22 21 19 19 17 15 15 14
31 30 32 34 36 36 35 35 36 35 35 32 26 23 15 19 23 16 11 6 6 12 17 21 23 24 25 23 25 26 25 24 25 24 23 22 23 21 20 19 17 16 15 13 11
24 25 27 28 29 31 31 31 31 30 28 28 28 26 24 22 19 15 17 19 20 21 22 21 20 20 19 19 19 20 19 19 19 19 18 17 18 17 16 15 15 16 13 11 9

GFSSW_500_spd_117.txt.gz
Wind_Speed
62 63 66 61 59 60 59 55 53 55 51 50 47 43 43 43 42 40 39 40 39 38 39 41 40 39 40 40 40 42 44 43 44 44 42 44 50 54 55 54 54 56 56 55 53
51 53 54 58 59 55 56 53 51 51 48 49 47 43 43 42 41 41 39 40 40 41 41 42 42 41 41 42 43 44 44 45 46 47 45 44 50 56 59 56 55 56 58 57 56
27 41 49 49 54 54 54 48 47 49 47 45 40 39 41 40 40 39 40 41 43 40 41 43 43 44 43 43 44 45 45 46 47 50 50 45 47 51 56 58 57 58 58 60 59
28 27 40 45 45 49 49 49 48 45 42 38 39 37 38 37 37 38 39 41 42 40 41 43 44 44 45 44 45 45 48 48 50 51 52 50 50 53 53 54 57 60 62 62 63
19 35 31 40 43 41 44 42 42 39 41 38 36 34 34 34 36 37 37 39 40 40 40 42 44 45 45 44 44 45 49 53 53 53 55 52 50 52 53 59 61 64 65 65 67
19 9 22 27 39 38 39 38 38 34 37 35 33 35 37 37 37 38 37 36 37 40 41 42 43 42 43 41 40 43 47 50 50 52 58 57 52 52 50 60 62 64 67 68 68
11 9 9 29 27 36 33 35 31 33 28 27 29 31 31 33 32 32 32 33 35 39 40 40 41 40 41 41 41 43 45 47 50 54 55 61 55 51 62 66 64 66 68 71 73
9 10 10 17 18 29 33 28 28 25 26 24 23 25 27 26 27 30 29 30 33 32 32 32 32 33 36 40 41 44 46 45 46 50 54 58 51 57 64 68 68 68 69 71 71
9 6 12 27 27 24 27 26 25 20 18 21 22 23 22 22 22 22 21 22 23 23 25 29 32 34 37 37 40 43 46 49 52 54 58 61 56 57 61 65 70 71 72 71 73
8 7 7 25 38 22 27 28 27 31 26 22 19 17 16 13 12 12 15 17 19 24 27 29 31 34 34 37 40 43 48 47 46 46 47 50 61 64 63 67 70 72 73 74 73
6 8 14 31 40 29 27 28 32 36 28 20 14 10 8 6 7 9 10 14 19 24 28 30 33 31 33 36 34 15 7 16 24 25 20 26 36 35 48 64 70 75 75 74 74
17 29 37 33 30 39 23 25 26 24 19 15 11 10 8 6 6 6 11 16 22 26 29 30 28 26 12 8 4 6 11 17 20 16 8 3 3 4 9 15 34 65 73 73 71
30 40 38 28 28 36 30 30 27 22 19 15 13 11 11 10 2 5 4 7 8 13 11 11 14 14 12 4 6 12 14 15 11 10 6 8 13 13 14 13 12 21 46 66 72
39 37 35 36 36 36 31 27 24 21 18 16 15 15 13 6 7 10 12 13 16 17 18 15 13 11 10 12 10 14 15 17 18 13 15 17 15 16 16 15 8 8 4 17 41
44 43 41 37 33 31 28 24 22 20 18 17 15 15 12 15 12 14 12 13 10 10 11 11 11 12 11 11 9 8 7 15 14 14 12 16 18 13 11 13 10 5 10 7 3
39 36 33 31 29 25 22 19 18 16 14 18 17 14 19 18 16 9 6 5 7 7 8 8 10 6 16 11 13 13 18 15 11 12 14 16 21 15 10 6 5 6 11 15 18
36 34 32 28 25 22 21 19 15 14 21 17 15 15 21 18 10 6 7 7 7 7 8 9 9 10 14 15 17 15 20 19 19 15 14 16 19 16 12 8 6 9 10 18 27
48 43 37 34 30 26 21 18 16 15 14 13 12 15 19 15 5 5 7 9 9 9 10 9 7 12 10 15 15 17 18 20 17 21 19 18 15 11 13 15 14 18 22 23 21
44 43 39 32 28 26 22 19 18 18 16 14 15 16 17 9 5 7 8 7 9 10 7 6 9 12 12 11 12 15 16 14 15 18 22 18 16 15 13 13 8 16 11 4 5
36 39 38 36 31 26 26 25 24 22 24 22 17 15 13 5 4 7 6 9 9 12 16 13 12 15 21 19 15 17 17 11 14 16 18 18 15 12 12 11 9 17 27 27 23
36 36 37 36 32 29 22 24 25 25 25 23 21 18 13 9 10 10 11 14 14 15 17 15 14 14 18 21 16 15 20 19 17 17 22 26 26 21 22 21 25 30 34 31 32
40 38 37 36 34 32 27 25 24 26 23 20 17 16 15 14 15 16 19 17 14 12 11 11 11 12 13 13 13 18 19 19 17 16 20 20 20 22 22 23 22 24 29 30 27
44 45 42 38 35 31 29 28 28 27 25 22 21 20 18 18 22 23 13 9 9 11 11 12 12 15 16 13 14 12 16 19 18 15 10 14 14 24 22 21 22 32 32 23 17
39 40 43 43 40 33 30 35 36 36 32 24 21 19 18 22 19 11 6 9 11 10 11 14 13 19 21 25 19 11 13 16 17 20 21 19 15 15 17 18 21 19 16 16 15
35 34 35 37 40 40 34 33 36 33 28 23 21 21 20 14 6 2 4 8 11 10 12 17 20 19 22 25 25 25 24 24 24 22 18 14 10 12 15 13 13 13 15 14 17
30 30 29 29 31 34 35 30 26 24 22 18 16 15 12 9 4 6 7 9 15 18 18 17 17 17 18 19 20 20 20 19 19 19 18 15 14 15 20 21 17 15 15 13 14
24 25 25 26 25 25 26 26 25 22 16 15 17 13 10 6 3 8 10 12 13 13 12 12 11 11 13 14 14 15 15 15 16 16 16 15 13 14 14 16 15 16 16 15 14